Date StartTime U_cm/s V_cm/s W_cm/s Ustd_cm/s Vstd_cm/s Wstd_cm/s Uvar_(cm/s)^2 Vvar_(cm/s)^2 Wvar_(cm/s)^2 KE_(m/s)^2 TurbulentKE_(m/s)^2 HorizWindSpeed_cm/s FrictionSpeec_cm/s DragCoef SpeedOfSound_m/s SonicTemperature_C Pressure_mb 
10/20/2014  00:00:00     -103.447      -16.677      -13.144       50.392       28.479       17.784     2539.312      811.073      316.282        0.741        0.183      104.782       18.546        0.031      338.949       11.947      858.212
10/20/2014  00:01:00     -114.846      -23.146      -15.281       37.552       32.121       16.378     1410.166     1031.788      268.239        0.833        0.136      117.156       18.316        0.024      338.857       11.793      858.206
10/20/2014  00:02:00      -95.290      -16.816      -23.911       32.072       19.448       17.498     1028.631      378.229      306.185        0.582        0.086       96.762       14.130        0.021      338.872       11.820      858.199
10/20/2014  00:03:00      -93.158       -5.605      -26.440       18.986       22.200       14.785      360.475      492.843      218.594        0.524        0.054       93.327       11.701        0.016      338.904       11.871      858.201
10/20/2014  00:04:00      -86.065       -5.795      -16.033       15.294       14.715       10.693      233.916      216.519      114.337        0.413        0.028       86.260        7.380        0.007      338.917       11.894      858.182
10/20/2014  00:05:00     -102.239      -42.940       -8.684       30.472       40.220       25.876      928.540     1617.659      669.573        0.779        0.161      110.890       13.960        0.016      338.853       11.787      858.185
10/20/2014  00:06:00      -91.785      -30.903       -8.433       44.210       42.418       22.999     1954.537     1799.316      528.933        0.687        0.214       96.848       13.530        0.020      338.745       11.604      858.177
10/20/2014  00:07:00      -89.664      -16.019      -19.637       32.728       29.833       19.281     1071.149      890.029      371.764        0.551        0.117       91.083       13.295        0.021      338.907       11.877      858.178
10/20/2014  00:08:00     -125.640      -25.257      -23.240       20.552       24.438       16.172      422.364      597.205      261.544        0.912        0.064      128.154        7.385        0.003      339.019       12.065      858.155
10/20/2014  00:09:00     -110.296       -6.699      -19.545       12.724       17.264       13.278      161.912      298.057      176.314        0.661        0.032      110.499       11.245        0.010      338.981       12.001      858.143
10/20/2014  00:10:00      -87.795      -35.302      -17.852       22.084       26.512       16.686      487.712      702.889      278.413        0.537        0.073       94.627       13.339        0.020      339.000       12.033      858.137
10/20/2014  00:11:00     -112.772      -18.376      -22.586       14.577       22.543       13.558      212.486      508.176      183.816        0.723        0.045      114.259        5.365        0.002      339.114       12.226      858.130
10/20/2014  00:12:00      -81.794       -7.611      -17.936       14.144       13.725        9.516      200.066      188.371       90.561        0.377        0.024       82.147        4.934        0.004      339.113       12.223      858.124
10/20/2014  00:13:00      -88.859      -27.026      -20.961       19.096       16.981       10.166      364.670      288.350      103.345        0.491        0.038       92.878        7.272        0.006      338.902       11.868      858.108
10/20/2014  00:14:00     -142.249      -38.615      -26.283       27.182       20.943       17.470      738.878      438.588      305.192        1.195        0.074      147.397       15.590        0.011      338.802       11.701      858.104
10/20/2014  00:15:00     -126.659      -45.270      -10.489       64.843       48.207       33.611     4204.648     2323.916     1129.723        1.293        0.383      134.506       34.974        0.068      338.740       11.596      858.112
10/20/2014  00:16:00     -115.050      -12.127       -7.156       63.689       54.217       25.874     4056.233     2939.446      669.462        1.055        0.383      115.688       28.164        0.059      338.707       11.540      858.095
10/20/2014  00:17:00      -42.825       -7.745        1.615       34.656       28.317       18.662     1201.073      801.827      348.256        0.212        0.118       43.520       13.555        0.097      338.794       11.687      858.082
10/20/2014  00:18:00      -73.151      -46.924       -2.147       37.162       26.052       21.872     1381.028      678.714      478.395        0.505        0.127       86.908       16.650        0.037      338.889       11.846      858.068
10/20/2014  00:19:00      -88.043      -45.063      -20.960       37.105       33.695       28.432     1376.756     1135.356      808.402        0.677        0.166       98.905       20.686        0.044      338.936       11.925      858.076
10/20/2014  00:20:00      -42.981      -45.431       12.379       59.430       43.609       26.327     3531.969     1901.755      693.108        0.509        0.306       62.541       30.857        0.243      338.866       11.808      858.080
10/20/2014  00:21:00     -175.390      -35.744       -8.035       49.397       46.150       25.564     2440.060     2129.860      653.513        1.866        0.261      178.995       24.056        0.018      338.873       11.820      858.106
10/20/2014  00:22:00     -134.691       22.677      -15.246       31.950       29.950       20.809     1020.820      897.024      433.011        1.062        0.118      136.587       15.860        0.013      338.871       11.817      858.100
10/20/2014  00:23:00      -92.329       38.752      -16.319       43.006       36.222       29.731     1849.482     1312.049      883.939        0.717        0.202      100.132       24.676        0.061      339.427       12.753      858.081
10/20/2014  00:24:00      -66.343        3.450      -14.878       29.921       38.463       20.006      895.262     1479.428      400.231        0.370        0.139       66.433       17.535        0.070      339.473       12.831      858.099
10/20/2014  00:25:00      -36.164      -15.083        2.258       40.732       22.718       24.884     1659.093      516.108      619.222        0.217        0.140       39.183       24.619        0.395      338.863       11.802      858.110
10/20/2014  00:26:00      -54.116      -20.375       -8.745       28.611       30.950       13.002      818.609      957.900      169.042        0.268        0.097       57.824        9.719        0.028      338.865       11.807      858.126
10/20/2014  00:27:00      -49.660       18.708      -10.007       23.579       12.230        8.031      555.962      149.581       64.503        0.184        0.039       53.067        7.939        0.022      339.317       12.567      858.115
10/20/2014  00:28:00     -128.400      -16.098      -21.519       35.484       21.133       17.558     1259.096      446.588      308.292        0.961        0.101      129.405       15.659        0.015      339.038       12.098      858.097
10/20/2014  00:29:00      -84.737       38.720      -15.739       20.885       22.749       11.698      436.187      517.514      136.847        0.501        0.055       93.164        7.830        0.007      339.732       13.268      858.090
10/20/2014  00:30:00      -17.175       75.559       -2.700       25.720       18.603       14.849      661.517      346.061      220.497        0.362        0.061       77.486       16.059        0.043      340.338       14.289      858.088
10/20/2014  00:31:00       20.694       60.852       -1.483       26.346       20.537       14.253      694.136      421.789      203.154        0.273        0.066       64.274       10.095        0.025      340.244       14.132      858.073
10/20/2014  00:32:00      -45.243       16.839       -7.170       50.251       42.845       19.435     2525.114     1835.685      377.732        0.356        0.237       48.276       20.311        0.177      339.724       13.253      858.082
10/20/2014  00:33:00     -115.866      -50.094      -18.914       25.602       22.392       15.889      655.447      501.403      252.469        0.885        0.070      126.231        9.623        0.006      339.003       12.038      858.074
10/20/2014  00:34:00     -107.571      -33.611      -17.646       39.286       17.672       13.425     1543.372      312.305      180.232        0.752        0.102      112.700        8.503        0.006      339.077       12.164      858.063
10/20/2014  00:35:00     -113.494      -64.596      -15.150       26.935       21.730       13.292      725.493      472.180      176.688        0.933        0.069      130.589        7.060        0.003      339.004       12.039      858.072
10/20/2014  00:36:00     -138.597      -40.366      -19.823       20.781       17.576        9.584      431.860      308.931       91.855        1.103        0.042      144.355        4.180        0.001      339.116       12.229      858.098
10/20/2014  00:37:00     -130.735      -19.841      -19.507       19.025       13.658       12.367      361.969      186.552      152.934        0.928        0.035      132.232        8.361        0.004      339.085       12.175      858.097
10/20/2014  00:38:00     -116.483       -3.934      -18.944       25.663       20.345       15.421      658.597      413.933      237.795        0.763        0.066      116.549       13.781        0.014      338.974       11.990      858.076
10/20/2014  00:39:00      -32.816       -1.755       -5.400       33.783       41.630       22.576     1141.280     1733.058      509.689        0.225        0.169       32.863       22.084        0.452      339.306       12.550      858.072
10/20/2014  00:40:00        2.100      -53.089       -2.271       22.264       27.942       18.716      495.672      780.744      350.283        0.223        0.081       53.130       12.332        0.054      339.408       12.721      858.094
10/20/2014  00:41:00       27.469     -109.399      -31.357       43.766       46.883       21.712     1915.475     2197.971      471.399        0.914        0.229      112.794       13.038        0.013      339.388       12.688      858.120
10/20/2014  00:42:00      -20.452      -55.142       11.278       41.388       41.907       19.185     1712.949     1756.204      368.064        0.371        0.192       58.813       19.571        0.111      339.353       12.628      858.135
10/20/2014  00:43:00       -9.995      -26.327        8.589       39.474       25.597       19.582     1558.186      655.220      383.455        0.173        0.130       28.161       19.745        0.492      339.234       12.429      858.121
10/20/2014  00:44:00      -85.507       13.080      -10.161       13.565       22.004        9.590      183.996      484.174       91.969        0.417        0.038       86.501        5.797        0.004      339.906       13.560      858.091
10/20/2014  00:45:00      -51.250       37.169       -7.183       29.728       14.943       11.411      883.739      223.307      130.206        0.265        0.062       63.309       13.562        0.046      340.267       14.171      858.062
10/20/2014  00:46:00      -82.639       40.915      -20.099       15.233       18.085       11.909      232.040      327.082      141.836        0.480        0.035       92.213       12.236        0.018      339.875       13.508      858.029
10/20/2014  00:47:00      -78.236      114.483      -25.529       22.955       23.519       15.937      526.928      553.141      253.979        1.061        0.067      138.662       13.888        0.010      340.325       14.268      858.000
10/20/2014  00:48:00      -44.631      133.714      -18.645       31.394       23.337       14.733      985.589      544.627      217.053        1.098        0.087      140.966        8.790        0.004      340.616       14.757      857.996
10/20/2014  00:49:00      -28.927       73.144      -12.172       29.567       36.010       11.673      874.222     1296.708      136.270        0.432        0.115       78.656       14.340        0.033      340.936       15.301      858.002
10/20/2014  00:50:00       -6.950      -18.159       -7.530       24.511       36.590       14.626      600.805     1338.808      213.922        0.129        0.108       19.443       13.970        0.516      340.019       13.752      858.045
10/20/2014  00:51:00      -13.977      -51.998        0.136       28.904       33.453       23.883      835.448     1119.122      570.394        0.271        0.126       53.844       22.610        0.176      339.811       13.400      858.078
10/20/2014  00:52:00      -28.017      -49.545        9.318       29.533       26.099       25.431      872.204      681.139      646.716        0.276        0.110       56.918       19.079        0.112      339.691       13.199      858.085
10/20/2014  00:53:00      -58.649      -19.902       -8.391       39.767       17.282       18.718     1581.431      298.651      350.352        0.307        0.112       61.934       19.312        0.097      339.724       13.253      858.068
10/20/2014  00:54:00     -122.780       -8.803      -18.507       29.958       17.764       12.065      897.455      315.575      145.553        0.843        0.068      123.095        9.414        0.006      339.766       13.324      858.052
10/20/2014  00:55:00     -142.245       -5.583      -13.489       28.135       13.396       11.316      791.571      179.450      128.059        1.077        0.055      142.355        8.249        0.003      339.545       12.953      858.046
10/20/2014  00:56:00     -144.472      -15.680      -11.274       50.464       28.512       19.758     2546.625      812.920      390.385        1.250        0.187      145.321       21.395        0.022      339.403       12.712      858.048
10/20/2014  00:57:00     -211.757       -4.535      -22.048       34.617       22.747       18.934     1198.362      517.417      358.511        2.371        0.104      211.806       17.754        0.007      339.440       12.774      858.054
10/20/2014  00:58:00     -204.651       28.773      -26.087       49.773       45.412       27.480     2477.355     2062.237      755.144        2.434        0.265      206.664       18.871        0.008      339.378       12.668      858.060
10/20/2014  00:59:00     -200.496       60.664      -19.712       51.205       29.720       22.725     2621.992      883.296      516.419        2.414        0.201      209.473       14.222        0.005      339.595       13.033      858.069
10/20/2014  01:00:00     -201.463       30.401      -13.883       33.827       23.148       16.410     1144.249      535.840      269.289        2.183        0.097      203.744       14.395        0.005      339.726       13.255      858.080
10/20/2014  01:01:00     -151.357      -18.385      -14.758       34.460       26.258       19.101     1187.526      689.476      364.854        1.285        0.112      152.469       19.745        0.017      339.557       12.972      858.087
10/20/2014  01:02:00     -144.122      -42.498      -15.237       32.837       33.512       22.918     1078.264     1123.066      525.239        1.277        0.136      150.257       15.192        0.010      339.428       12.754      858.101
10/20/2014  01:03:00     -110.298      -13.297       -3.467       57.707       42.654       26.484     3330.134     1819.406      701.380        0.910        0.293      111.097       25.900        0.054      339.277       12.500      858.112
10/20/2014  01:04:00     -111.941       27.722      -24.373       44.542       43.479       27.050     1983.997     1890.430      731.680        0.925        0.230      115.323       26.482        0.053      339.531       12.928      858.122
10/20/2014  01:05:00      -22.142       -4.589      -11.278       31.783       25.031       18.034     1010.157      626.536      325.218        0.130        0.098       22.612       11.282        0.249      339.445       12.782      858.129
10/20/2014  01:06:00       -4.268       16.769       20.580       20.463       22.202       13.959      418.718      492.921      194.860        0.091        0.055       17.304       14.082        0.662      339.224       12.411      858.126
10/20/2014  01:07:00      -21.859       -7.633        4.030       26.732       28.049       21.016      714.618      786.742      441.657        0.125        0.097       23.153       19.262        0.692      339.287       12.517      858.124
10/20/2014  01:08:00      -24.348        5.794       -6.733       20.574       25.108       14.312      423.277      630.388      204.822        0.096        0.063       25.028        8.737        0.122      339.247       12.448      858.120
10/20/2014  01:09:00      -71.093        6.617       -1.070       20.183       19.140       14.092      407.337      366.321      198.597        0.304        0.049       71.400        8.815        0.015      339.197       12.365      858.112
10/20/2014  01:10:00     -109.220       37.063      -11.658       21.222       21.877       12.811      450.370      478.614      164.113        0.727        0.055      115.337        8.722        0.006      339.221       12.406      858.093
10/20/2014  01:11:00      -46.048       60.741      -11.710       30.665       23.038       17.762      940.320      530.731      315.496        0.387        0.089       76.222       15.112        0.039      339.295       12.531      858.092
10/20/2014  01:12:00      -30.277       48.913      -11.095       25.777       22.384       13.287      664.459      501.029      176.549        0.239        0.067       57.526       14.102        0.060      339.328       12.586      858.085
10/20/2014  01:13:00      -35.743       56.380      -10.205       23.475       18.482        7.900      551.079      341.597       62.417        0.276        0.048       66.756        7.659        0.013      339.237       12.434      858.085
10/20/2014  01:14:00       -6.729       28.035       -1.054       23.057       15.525       12.080      531.630      241.020      145.935        0.088        0.046       28.831       10.466        0.132      339.163       12.307      858.083
10/20/2014  01:15:00       35.809       22.121       10.507       23.403       15.466       12.880      547.694      239.204      165.900        0.142        0.048       42.091        7.268        0.030      339.259       12.469      858.081
10/20/2014  01:16:00       82.003       55.772       20.525       21.081       18.609       12.527      444.423      346.299      156.936        0.560        0.047       99.172        5.501        0.003      339.163       12.309      858.081
10/20/2014  01:17:00       34.712       41.459       40.895       17.239       21.058       15.651      297.200      443.447      244.950        0.279        0.049       54.072        9.958        0.034      338.887       11.843      858.079
10/20/2014  01:18:00       -9.940       -5.511       -2.319       13.296       13.031       12.209      176.796      169.796      149.061        0.032        0.025       11.366        9.771        0.739      338.791       11.682      858.092
10/20/2014  01:19:00      -10.810       -1.087        5.775       12.650       11.548       12.419      160.035      133.359      154.226        0.030        0.022       10.865        8.844        0.663      338.788       11.678      858.105
10/20/2014  01:20:00       15.941      -36.299        6.679       11.811       23.087       13.648      139.497      533.024      186.260        0.124        0.043       39.645       14.683        0.137      338.981       12.001      858.131
10/20/2014  01:21:00        1.347      -44.354        2.732       18.212       21.500       21.420      331.688      462.249      458.813        0.161        0.063       44.375       13.549        0.093      339.137       12.264      858.150
10/20/2014  01:22:00       -2.735      -33.471       15.424       18.851       19.259       19.853      355.372      370.894      394.142        0.124        0.056       33.582       13.265        0.156      339.118       12.232      858.165
10/20/2014  01:23:00      -23.045       -1.226        4.093       13.235       10.285       14.029      175.154      105.772      196.812        0.051        0.024       23.077        4.076        0.031      339.136       12.263      858.165
10/20/2014  01:24:00     -117.621      -41.672      -14.745       30.900       24.654       17.287      954.833      607.823      298.850        0.882        0.093      124.785       21.917        0.031      339.223       12.409      858.147
10/20/2014  01:25:00     -154.761      -33.204      -20.694       25.907       21.301       18.694      671.196      453.713      349.456        1.348        0.074      158.283       14.111        0.008      338.927       11.910      858.134
10/20/2014  01:26:00     -163.537      -64.659      -13.226       35.467       40.412       21.794     1257.927     1633.122      475.000        1.723        0.168      175.856       16.428        0.009      338.901       11.867      858.139
10/20/2014  01:27:00     -105.188      -56.424        5.937       64.112       46.272       27.157     4110.366     2141.095      737.493        1.063        0.349      119.365       25.896        0.047      338.831       11.751      858.165
10/20/2014  01:28:00     -109.323      -92.905        1.990       40.937       42.312       27.048     1675.816     1790.285      731.617        1.239        0.210      143.467       22.247        0.024      339.003       12.039      858.182
10/20/2014  01:29:00      -93.116      -98.712       -6.827       38.818       40.770       23.514     1506.803     1662.173      552.921        1.109        0.186      135.701       17.780        0.017      338.997       12.030      858.196
10/20/2014  01:30:00      -77.018      -98.595        4.873       30.814       28.378       22.275      949.533      805.306      496.172        0.896        0.113      125.111       18.267        0.021      339.004       12.040      858.193
10/20/2014  01:31:00      -95.125      -59.304       -5.276       31.954       27.601       17.745     1021.028      761.800      314.902        0.735        0.105      112.097       14.500        0.017      339.020       12.067      858.194
10/20/2014  01:32:00      -90.527      -29.753       -6.597       25.455       24.113       16.798      647.956      581.434      282.186        0.532        0.076       95.291       15.057        0.025      339.058       12.129      858.189
10/20/2014  01:33:00     -112.102      -40.294       -8.798       19.611       16.949       16.595      384.590      287.254      275.405        0.761        0.047      119.124        6.907        0.003      339.078       12.165      858.170
10/20/2014  01:34:00      -98.678      -14.978      -14.226       10.435       13.027        8.855      108.894      169.697       78.409        0.526        0.018       99.808        6.735        0.005      339.137       12.264      858.149
10/20/2014  01:35:00     -120.848      -35.664      -17.212       18.891       12.085       10.677      356.871      146.039      113.996        0.839        0.031      126.001        1.281        0.000      339.200       12.369      858.122
10/20/2014  01:36:00     -133.795      -43.044      -11.835       17.414       13.016       15.426      303.244      169.421      237.977        1.030        0.036      140.549       13.018        0.009      339.140       12.268      858.120
10/20/2014  01:37:00     -157.884      -34.325      -13.644       22.105       11.795       17.437      488.625      139.115      304.049        1.361        0.047      161.573       15.250        0.009      339.149       12.283      858.116
10/20/2014  01:38:00     -162.242      -36.522      -11.572       34.964       21.758       22.421     1222.468      473.392      502.687        1.499        0.110      166.301       21.814        0.017      339.171       12.323      858.113
10/20/2014  01:39:00     -193.960      -43.881      -21.634       32.054       33.983       20.311     1027.453     1154.839      412.551        2.130        0.130      198.861       12.754        0.004      338.927       11.912      858.117
10/20/2014  01:40:00     -160.109      -12.650       -5.720       69.322       32.977       28.894     4805.486     1087.483      834.845        1.628        0.336      160.608       34.751        0.047      339.158       12.298      858.123
10/20/2014  01:41:00      -80.387       -8.423       -4.505       30.591       26.898       20.949      935.785      723.484      438.860        0.433        0.105       80.827       18.485        0.052      339.065       12.143      858.111
10/20/2014  01:42:00      -81.836       -8.905       -2.797       41.207       28.417       24.351     1698.011      807.553      592.973        0.494        0.155       82.319       26.482        0.103      338.998       12.029      858.098
10/20/2014  01:43:00      -32.626        0.870       -4.732       42.733       28.845       16.099     1826.073      832.029      259.167        0.200        0.146       32.638        5.762        0.031      339.016       12.060      858.105
10/20/2014  01:44:00       -4.397      -16.902       -7.822       39.421       22.795       20.609     1554.048      519.594      424.716        0.143        0.125       17.465       16.351        0.876      338.905       11.874      858.106
10/20/2014  01:45:00      -61.517      -19.642       -8.102       22.370       27.371       14.494      500.422      749.160      210.073        0.285        0.073       64.577       11.743        0.033      338.989       12.014      858.106
10/20/2014  01:46:00        8.185      -16.235        9.499       18.088       18.979       15.126      327.175      360.217      228.810        0.067        0.046       18.181       13.151        0.523      338.925       11.908      858.091
10/20/2014  01:47:00      -96.924      -35.190      -13.365       65.599       15.735       13.122     4303.172      247.595      172.185        0.777        0.236      103.115        8.991        0.008      339.039       12.099      858.091
10/20/2014  01:48:00     -106.798      -37.357      -11.939       21.566       18.751       12.101      465.104      351.610      146.437        0.695        0.048      113.143       11.895        0.011      339.002       12.038      858.116
10/20/2014  01:49:00      -32.284      -19.863       -4.452       25.299       14.556        7.164      640.053      211.868       51.321        0.118        0.045       37.905        3.538        0.009      339.000       12.032      858.122
10/20/2014  01:50:00      -44.095      -19.546       -7.639       37.072       21.504        7.539     1374.350      462.442       56.831        0.214        0.095       48.233       10.384        0.046      339.277       12.500      858.107
10/20/2014  01:51:00     -102.761       -3.187      -12.642        9.364       17.493        8.226       87.678      305.993       67.659        0.560        0.023      102.811        6.517        0.004      338.873       11.821      858.108
10/20/2014  01:52:00     -117.086      -15.350      -15.397       23.089       16.609       15.058      533.079      275.846      226.750        0.761        0.052      118.088       13.789        0.014      338.890       11.849      858.096
10/20/2014  01:53:00      -83.520        1.496       -6.171       25.734       27.287       14.922      662.254      744.580      222.662        0.432        0.081       83.533        6.897        0.007      338.936       11.926      858.075
10/20/2014  01:54:00     -166.289       56.549      -13.948       52.053       31.239       26.471     2709.511      975.851      700.710        1.771        0.219      175.641       20.769        0.014      339.645       13.119      858.051
10/20/2014  01:55:00      -84.171       18.654       -6.815       62.605       40.084       21.489     3919.419     1606.743      461.770        0.673        0.299       86.213       24.044        0.078      339.310       12.555      858.024
10/20/2014  01:56:00      -35.754       10.858        7.414       38.049       24.739       21.608     1447.750      612.033      466.895        0.199        0.126       37.367        9.948        0.071      339.142       12.272      858.018
10/20/2014  01:57:00      -32.596       13.092        4.114       48.483       21.429       27.138     2350.554      459.182      736.454        0.240        0.177       35.127        6.118        0.030      339.175       12.329      858.035
10/20/2014  01:58:00      -75.734       -8.541       -1.004       40.387       32.813       22.182     1631.141     1076.687      492.030        0.450        0.160       76.214       20.453        0.072      339.080       12.168      858.053
10/20/2014  01:59:00      -10.695       10.681       14.853       24.001       29.245       33.853      576.026      855.294     1146.035        0.151        0.129       15.115        9.360        0.383      338.877       11.827      858.049
10/20/2014  02:00:00      -10.741       29.117       34.945       23.989       26.692       23.889      575.451      712.483      570.661        0.202        0.093       31.034       13.949        0.202      338.816       11.725      858.035
10/20/2014  02:01:00       26.773       40.588       34.651       39.587       24.772       31.793     1567.157      613.651     1010.810        0.338        0.160       48.622       16.779        0.119      338.689       11.511      858.027
10/20/2014  02:02:00       20.553      -51.236        2.469       23.662       39.539       24.266      559.896     1563.361      588.821        0.288        0.136       55.205       25.491        0.213      338.659       11.461      858.038
10/20/2014  02:03:00       -5.114      -57.782        0.775       27.654       30.556       20.340      764.768      933.676      413.731        0.274        0.106       58.008        9.549        0.027      338.932       11.921      858.042
10/20/2014  02:04:00      -20.374      -29.870       -0.978       25.449       30.210       18.596      647.652      912.627      345.826        0.161        0.095       36.157       14.691        0.165      338.935       11.924      858.054
10/20/2014  02:05:00      -26.218      -27.737       -3.906       28.953       21.493       14.386      838.265      461.945      206.967        0.149        0.075       38.167       11.859        0.097      339.183       12.342      858.062
10/20/2014  02:06:00       37.533       19.051       12.734       34.546       27.947       14.730     1193.437      781.033      216.967        0.206        0.110       42.091       18.695        0.197      338.895       11.856      858.078
10/20/2014  02:07:00      137.160       48.348        6.044       48.576       51.226       37.792     2359.643     2624.064     1428.242        1.380        0.321      145.431       26.070        0.032      338.535       11.252      858.087
10/20/2014  02:08:00       30.783       25.902       -5.101       52.608       25.536       28.238     2767.623      652.095      797.392        0.293        0.211       40.230       15.577        0.150      338.328       10.906      858.078
10/20/2014  02:09:00        7.484       35.534       -9.127       16.665       26.116        8.894      277.706      682.028       79.097        0.122        0.052       36.314       12.659        0.122      338.405       11.033      858.083
10/20/2014  02:10:00        4.077      -77.311      -13.624       27.102       43.022       16.058      734.532     1850.861      257.872        0.451        0.142       77.418       20.627        0.071      338.523       11.233      858.128
10/20/2014  02:11:00       30.744      -55.499        5.195       52.006       65.474       42.382     2704.659     4286.804     1796.262        0.642        0.439       63.446       35.687        0.316      338.453       11.113      858.169
10/20/2014  02:12:00       52.840       35.530       45.141       41.838       45.119       36.303     1750.396     2035.681     1317.942        0.560        0.255       63.674       26.456        0.173      338.363       10.963      858.163
10/20/2014  02:13:00       38.664       34.016       32.037       38.483       35.304       21.799     1480.969     1246.407      475.186        0.344        0.160       51.498       14.641        0.081      338.590       11.344      858.141
10/20/2014  02:14:00        4.965      -64.675       -4.199       23.166       21.039       17.646      536.678      442.653      311.373        0.276        0.065       64.865       14.927        0.053      338.623       11.399      858.149
10/20/2014  02:15:00       -3.259       -4.646       -0.654       10.150       17.971       13.419      103.013      322.967      180.081        0.032        0.030        5.675       12.212        4.630      338.614       11.385      858.158
10/20/2014  02:16:00      -10.007       24.920        0.952       15.243       10.111        9.248      232.336      102.236       85.521        0.057        0.021       26.855        7.879        0.086      338.642       11.433      858.148
10/20/2014  02:17:00      -17.047       30.787       -4.832       22.088       24.929       10.502      487.873      621.450      110.293        0.124        0.061       35.192       14.772        0.176      338.869       11.814      858.141
10/20/2014  02:18:00      -42.717       26.577       -7.933       11.898       15.325        7.636      141.565      234.863       58.304        0.151        0.022       50.310        7.615        0.023      339.000       12.034      858.155
10/20/2014  02:19:00      -35.114      -13.621       -4.468       11.444       15.959        4.576      130.971      254.704       20.942        0.092        0.020       37.663        2.354        0.004      338.895       11.857      858.184
10/20/2014  02:20:00       -7.755      -48.154        5.589       21.687       34.421       24.432      470.328     1184.803      596.906        0.233        0.113       48.775       11.674        0.057      338.834       11.755      858.209
10/20/2014  02:21:00       41.559      -13.537       17.186       35.462       39.392       31.286     1257.544     1551.714      978.789        0.300        0.189       43.708       21.566        0.243      338.458       11.122      858.228
10/20/2014  02:22:00       29.912       19.580        1.421       28.749       28.728       19.636      826.522      825.309      385.575        0.166        0.102       35.751       10.617        0.088      338.400       11.026      858.221
10/20/2014  02:23:00       -2.257       15.522       -1.058        9.602       11.909        8.213       92.193      141.832       67.455        0.027        0.015       15.685        5.130        0.107      338.548       11.274      858.193
10/20/2014  02:24:00       -2.179       -5.386       -3.077        6.254       16.995        6.031       39.113      288.826       36.372        0.020        0.018        5.810        8.045        1.917      338.551       11.279      858.190
10/20/2014  02:25:00      -40.744      -27.189        1.420       34.452       16.078       15.346     1186.925      258.510      235.507        0.204        0.084       48.982       17.069        0.121      338.556       11.287      858.211
10/20/2014  02:26:00     -123.293      -29.472       -7.562       28.954       27.250       20.706      838.347      742.577      428.737        0.907        0.100      126.766       16.921        0.018      338.399       11.024      858.214
10/20/2014  02:27:00     -102.078       39.734       -9.656       37.703       22.383       18.313     1421.547      500.990      335.379        0.717        0.113      109.539       14.441        0.017      338.363       10.964      858.181
10/20/2014  02:28:00      -49.437       31.130       -3.839       24.939       26.714       22.941      621.947      713.649      526.270        0.264        0.093       58.422        9.151        0.025      338.421       11.059      858.166
10/20/2014  02:29:00      -26.238      -34.234      -15.803       44.141       18.916       14.922     1948.427      357.805      222.654        0.232        0.126       43.132       15.257        0.125      338.456       11.119      858.200
10/20/2014  02:30:00      -13.780      -17.576       10.450       25.042       17.973       16.336      627.077      323.037      266.858        0.091        0.061       22.334        9.674        0.188      338.302       10.861      858.231
10/20/2014  02:31:00      -89.722       -5.144      -11.208       38.780       17.470       17.685     1503.918      305.186      312.767        0.516        0.106       89.870       20.855        0.054      338.291       10.842      858.230
10/20/2014  02:32:00     -164.080       36.436      -12.569       36.655       20.716       13.001     1343.555      429.150      169.023        1.517        0.097      168.077        4.723        0.001      338.278       10.822      858.216
10/20/2014  02:33:00     -135.121       10.392      -16.140       31.287       25.548       15.565      978.891      652.676      242.267        1.025        0.094      135.520       12.655        0.009      338.374       10.983      858.227
10/20/2014  02:34:00     -155.469       55.207      -19.005       46.196       27.510       21.968     2134.106      756.803      482.583        1.548        0.169      164.980       16.077        0.009      338.460       11.127      858.227
10/20/2014  02:35:00     -109.078       58.306        0.020       48.220       31.479       31.065     2325.197      990.953      965.049        0.979        0.214      123.683       20.822        0.028      338.423       11.063      858.216
10/20/2014  02:36:00     -175.994       54.385      -15.527       44.058       33.865       21.229     1941.128     1146.817      450.682        1.886        0.177      184.206       13.134        0.005      338.517       11.220      858.222
10/20/2014  02:37:00     -108.300       41.496      -11.272       34.511       35.359       25.728     1191.034     1250.237      661.918        0.834        0.155      115.978       10.628        0.008      338.632       11.415      858.223
10/20/2014  02:38:00     -109.068        1.675      -16.016       40.268       37.792       18.413     1621.538     1428.227      339.027        0.777        0.169      109.080       18.676        0.029      338.502       11.196      858.224
10/20/2014  02:39:00     -151.188       22.948      -16.214       32.297       23.016       17.483     1043.108      529.721      305.641        1.276        0.094      152.920       14.125        0.009      338.387       11.003      858.234
10/20/2014  02:40:00     -142.911       -0.815      -17.608       16.834       28.914       14.473      283.370      836.038      209.456        1.103        0.066      142.913        8.928        0.004      338.315       10.883      858.228
10/20/2014  02:41:00     -143.243      -40.378      -11.238       35.349       51.530       26.918     1249.585     2655.338      724.590        1.345        0.231      148.826       22.321        0.022      338.328       10.905      858.215
10/20/2014  02:42:00     -155.842      -10.169      -16.156       35.903       46.297       22.417     1288.998     2143.371      502.543        1.429        0.197      156.173       18.242        0.014      338.319       10.889      858.208
10/20/2014  02:43:00     -179.136      -26.097      -19.071       34.275       24.920       23.221     1174.793      621.012      539.208        1.773        0.117      181.027       22.270        0.015      338.407       11.037      858.195
10/20/2014  02:44:00     -197.177      -30.712      -19.920       31.776       36.920       26.596     1009.739     1363.089      707.324        2.165        0.154      199.554       21.917        0.012      338.299       10.856      858.185
10/20/2014  02:45:00     -163.126      -35.592      -14.474       36.779       25.461       20.687     1352.684      648.252      427.959        1.526        0.121      166.964       19.062        0.013      338.288       10.838      858.184
10/20/2014  02:46:00     -152.133      -32.129      -15.946       31.820       22.025       20.398     1012.483      485.090      416.062        1.317        0.096      155.489       19.075        0.015      338.398       11.021      858.169
10/20/2014  02:47:00     -158.313      -18.312      -27.408       35.483       28.188       17.892     1259.019      794.536      320.111        1.426        0.119      159.369       17.087        0.011      338.368       10.972      858.165
10/20/2014  02:48:00     -170.715       33.032      -16.277       51.352       40.266       31.185     2636.989     1621.348      972.482        1.786        0.262      173.881       30.046        0.030      338.527       11.237      858.173
10/20/2014  02:49:00     -165.605       67.494      -20.242       61.485       31.782       28.853     3780.430     1010.127      832.496        1.901        0.281      178.831       24.648        0.019      338.852       11.783      858.158
10/20/2014  02:50:00     -146.809       59.677      -13.249       49.436       34.291       22.505     2443.928     1175.856      506.476        1.471        0.206      158.474       15.618        0.010      338.801       11.701      858.137
10/20/2014  02:51:00     -161.228       53.543       -8.830       24.437       21.665       13.575      597.152      469.377      184.289        1.509        0.063      169.886       10.376        0.004      338.846       11.774      858.115
10/20/2014  02:52:00     -150.038       25.963      -14.320       30.465       30.427       18.595      928.144      925.825      345.775        1.279        0.110      152.268       14.480        0.009      338.693       11.519      858.106
10/20/2014  02:53:00     -131.677       -1.060      -14.295       38.532       34.456       20.026     1484.708     1187.238      401.027        1.031        0.154      131.681       17.226        0.017      338.477       11.155      858.112
10/20/2014  02:54:00     -152.416       -4.678      -15.819       42.919       36.807       23.247     1842.008     1354.755      540.437        1.362        0.187      152.488       19.731        0.017      338.283       10.830      858.111
10/20/2014  02:55:00     -177.795       23.625      -11.103       45.315       34.117       19.958     2053.448     1164.001      398.322        1.795        0.181      179.358       16.509        0.008      338.246       10.766      858.093
10/20/2014  02:56:00     -171.566       49.745      -16.579       53.477       36.824       24.882     2859.841     1356.001      619.125        1.851        0.242      178.632       25.908        0.021      338.308       10.871      858.061
10/20/2014  02:57:00     -174.377       50.343      -17.542       59.608       34.325       24.008     3553.132     1178.230      576.384        1.928        0.265      181.499       16.758        0.009      338.369       10.973      858.043
10/20/2014  02:58:00     -145.618       40.597       -5.379       42.374       41.852       27.404     1795.558     1751.627      750.990        1.359        0.215      151.171       18.846        0.016      338.462       11.130      858.032
10/20/2014  02:59:00     -162.139       31.737      -10.629       37.702       41.352       21.409     1421.473     1709.964      458.326        1.550        0.179      165.216       14.236        0.007      338.507       11.206      858.015
10/20/2014  03:00:00      -79.189      -19.864        0.916       42.930       35.210       25.633     1842.960     1239.714      657.043        0.520        0.187       81.642       20.829        0.065      338.311       10.875      858.012
10/20/2014  03:01:00     -114.427      -69.181      -10.323       55.715       47.357       33.616     3104.200     2242.666     1130.037        1.223        0.324      133.714       21.293        0.025      338.200       10.691      858.031
10/20/2014  03:02:00     -127.917      -32.169       -5.409       32.839       29.896       21.598     1078.388      893.787      466.480        0.993        0.122      131.900       20.451        0.024      338.090       10.506      858.044
10/20/2014  03:03:00     -122.883      -44.933       -0.326       35.612       30.014       21.092     1268.243      900.852      444.874        0.987        0.131      130.840       22.098        0.029      338.179       10.654      858.026
10/20/2014  03:04:00     -128.753      -24.404      -11.560       50.153       25.654       24.822     2515.343      658.145      616.132        1.055        0.189      131.045       29.513        0.051      338.084       10.496      858.006
10/20/2014  03:05:00     -169.776       12.899      -13.581       40.906       29.008       19.613     1673.295      841.478      384.669        1.604        0.145      170.265       14.203        0.007      338.111       10.541      857.996
10/20/2014  03:06:00     -139.655      -31.225       -8.578       49.486       39.357       28.929     2448.889     1548.948      836.903        1.269        0.242      143.103       27.339        0.036      338.273       10.811      857.987
10/20/2014  03:07:00      -97.997       -1.578       -4.460       26.590       35.282       21.009      707.031     1244.827      441.394        0.601        0.120       98.010       17.149        0.031      338.370       10.975      857.983
10/20/2014  03:08:00     -148.753      -34.168      -13.994       43.291       41.471       25.204     1874.147     1719.882      635.229        1.386        0.211      152.627       23.213        0.023      338.473       11.148      857.978
10/20/2014  03:09:00     -178.543      -14.227      -20.727       46.613       33.190       23.507     2172.743     1101.594      552.562        1.817        0.191      179.109       23.045        0.017      338.411       11.043      857.985
10/20/2014  03:10:00     -207.696      -23.453      -30.203       46.414       33.852       22.609     2154.215     1145.940      511.172        2.420        0.191      209.016       21.728        0.011      338.532       11.246      857.969
10/20/2014  03:11:00     -141.105      -21.180      -10.890       37.349       40.120       23.095     1394.941     1609.645      533.392        1.201        0.177      142.686       19.790        0.019      338.477       11.155      857.960
10/20/2014  03:12:00     -150.047      -37.113      -15.154       44.787       47.420       27.580     2005.881     2248.663      760.659        1.457        0.251      154.568       26.296        0.029      338.529       11.243      857.959
10/20/2014  03:13:00      -99.191       -5.386      -14.340       38.030       51.356       32.581     1446.253     2637.416     1061.548        0.761        0.257       99.338       23.557        0.056      338.604       11.368      857.969
10/20/2014  03:14:00     -107.482      -39.638      -14.417       26.794       37.879       22.963      717.928     1434.785      527.300        0.801        0.134      114.558       16.032        0.020      338.716       11.557      857.962
10/20/2014  03:15:00     -105.297      -46.763        1.209       47.262       40.948       28.348     2233.732     1676.754      803.605        0.899        0.236      115.214       22.592        0.038      338.832       11.750      857.958
10/20/2014  03:16:00     -103.172       -3.670       -0.454       38.853       28.121       23.460     1509.535      790.763      550.361        0.675        0.143      103.237       18.562        0.032      338.839       11.762      857.940
10/20/2014  03:17:00      -86.500       -1.266      -12.503       20.858       23.795       16.393      435.053      566.186      268.736        0.445        0.063       86.509       10.982        0.016      338.885       11.841      857.928
10/20/2014  03:18:00      -88.556       -1.597       -5.674       26.940       44.771       15.394      725.754     2004.465      236.971        0.542        0.148       88.570       18.671        0.044      338.951       11.951      857.928
10/20/2014  03:19:00      -59.801      -12.311       -4.768       23.050       37.028       20.099      531.325     1371.082      403.958        0.303        0.115       61.055       22.595        0.137      338.842       11.768      857.931
10/20/2014  03:20:00      -69.085      -18.368       -3.723       25.181       25.396       13.907      634.059      644.981      193.416        0.330        0.074       71.485       12.161        0.029      338.825       11.738      857.934
10/20/2014  03:21:00      -52.494       15.108      -11.239       15.866       18.749        8.733      251.724      351.530       76.259        0.189        0.034       54.624        5.975        0.012      339.031       12.087      857.921
10/20/2014  03:22:00      -48.877       -8.696        1.021       39.134       24.602       11.868     1531.465      605.252      140.850        0.237        0.114       49.645       17.082        0.118      338.786       11.674      857.926
10/20/2014  03:23:00       44.710       24.660       16.245       20.094       20.762       10.256      403.763      431.075      105.176        0.191        0.047       51.059       13.361        0.068      338.630       11.412      857.927
10/20/2014  03:24:00       54.193       22.788       -7.472       27.596       18.596       13.189      761.542      345.814      173.949        0.240        0.064       58.789       11.034        0.035      338.528       11.239      857.936
10/20/2014  03:25:00       59.390       37.286       17.732       44.193       31.394       29.492     1953.023      985.557      869.806        0.452        0.190       70.125       22.149        0.100      338.165       10.630      857.965
10/20/2014  03:26:00      108.201       73.906       47.531       43.934       32.660       39.664     1930.224     1066.699     1573.259        1.200        0.229      131.033       21.357        0.027      338.023       10.393      857.983
10/20/2014  03:27:00       34.036       -6.715       36.853       42.787       57.807       38.929     1830.746     3341.680     1515.458        0.462        0.334       34.692       35.751        1.062      337.857       10.113      858.010
10/20/2014  03:28:00       84.392      -64.025       11.976       53.850       57.961       38.141     2899.830     3359.435     1454.736        0.954        0.386      105.930       42.017        0.157      337.934       10.244      858.033
10/20/2014  03:29:00       36.018       -9.905       18.694       41.163       49.352       20.983     1694.421     2435.615      440.266        0.316        0.229       37.356       17.480        0.219      337.943       10.259      858.051
10/20/2014  03:30:00       34.837       14.183       33.066       30.942       35.574       30.199      957.386     1265.538      911.960        0.282        0.157       37.614       24.760        0.433      338.059       10.453      858.062
10/20/2014  03:31:00       36.253       62.791       61.180       31.740       34.068       18.459     1007.407     1160.657      340.750        0.575        0.125       72.505       13.991        0.037      337.981       10.323      858.059
10/20/2014  03:32:00       43.283       43.737       42.145       28.585       25.668       22.378      817.107      658.840      500.781        0.377        0.099       61.533       13.610        0.049      337.910       10.203      858.080
10/20/2014  03:33:00       70.412       37.296       15.373       31.068       20.619       19.585      965.229      425.146      383.576        0.418        0.089       79.680       12.666        0.025      337.986       10.331      858.093
10/20/2014  03:34:00       64.386       48.696       37.956       59.606       25.671       19.308     3552.881      659.011      372.785        0.627        0.229       80.727       18.611        0.053      338.121       10.557      858.097
10/20/2014  03:35:00       73.716       59.804       33.912       83.338       50.256       32.986     6945.253     2525.622     1088.092        1.036        0.528       94.924       29.172        0.094      338.140       10.588      858.087
10/20/2014  03:36:00      -91.886       14.735      -10.895       39.429       31.344       19.352     1554.652      982.470      374.487        0.584        0.146       93.060       22.706        0.060      337.809       10.035      858.118
10/20/2014  03:37:00      -59.669      116.643      -23.245       41.671       68.779       22.419     1736.465     4730.556      502.624        1.234        0.348      131.019       11.900        0.008      338.208       10.703      858.118
10/20/2014  03:38:00       77.782       55.798      -11.929       42.584       49.541       31.708     1813.395     2454.323     1005.402        0.729        0.264       95.726       29.883        0.097      338.916       11.893      858.112
10/20/2014  03:39:00       33.759       95.010       -8.103       27.764       41.089       26.134      770.823     1688.344      682.966        0.669        0.157      100.829       23.042        0.052      338.349       10.940      858.111
10/20/2014  03:40:00       42.920       44.818       12.410       45.841       25.730       19.624     2101.412      662.034      385.094        0.358        0.157       62.054       15.948        0.066      337.959       10.285      858.120
10/20/2014  03:41:00       49.079       38.878        8.283       23.406       23.138       16.689      547.839      535.390      278.519        0.268        0.068       62.612       14.139        0.051      337.747        9.930      858.154
10/20/2014  03:42:00       19.537      -27.036       -2.106       20.778       23.814        9.284      431.716      567.096       86.200        0.110        0.054       33.357       10.768        0.104      337.793       10.007      858.202
10/20/2014  03:43:00       83.474       49.772       11.935       29.152       45.825       24.286      849.830     2099.891      589.800        0.656        0.177       97.186       17.302        0.032      337.840       10.084      858.211
10/20/2014  03:44:00      155.420       90.687       35.608       37.519       33.819       33.238     1407.643     1143.742     1104.776        1.865        0.183      179.943       21.113        0.014      337.942       10.256      858.154
10/20/2014  03:45:00       83.930       37.128       22.941       46.959       36.386       25.924     2205.122     1323.907      672.049        0.657        0.210       91.775       19.229        0.044      337.866       10.129      858.148
10/20/2014  03:46:00       21.679        2.636      -15.884       20.891       21.830       10.586      436.419      476.545      112.054        0.088        0.051       21.839       11.851        0.294      337.913       10.209      858.194
10/20/2014  03:47:00       31.079       55.946        4.808       16.173       14.928       13.877      261.564      222.848      192.573        0.240        0.034       63.999        9.218        0.021      337.850       10.101      858.200
10/20/2014  03:48:00       63.442       47.577       12.486       22.095       12.453       10.201      488.204      155.089      104.057        0.360        0.037       79.300        5.874        0.005      337.835       10.076      858.168
10/20/2014  03:49:00       93.527       56.353       10.687       35.275       23.528       22.788     1244.302      553.588      519.290        0.718        0.116      109.193       17.145        0.025      337.873       10.142      858.154
10/20/2014  03:50:00       86.026       45.708       23.507       32.041       22.507       25.421     1026.624      506.586      646.239        0.611        0.109       97.415       20.289        0.043      337.797       10.013      858.169
10/20/2014  03:51:00       27.934       17.591       26.780       19.918       24.222       21.229      396.729      586.704      450.676        0.162        0.072       33.012       19.251        0.340      337.740        9.918      858.204
10/20/2014  03:52:00       82.168       39.235       14.804       32.280       21.045       17.519     1041.995      442.902      306.905        0.515        0.090       91.055       13.477        0.022      337.686        9.828      858.219
10/20/2014  03:53:00       72.182       41.799       20.713       30.596       21.650       21.419      936.137      468.719      458.762        0.462        0.093       83.411       16.344        0.038      337.675        9.810      858.242
10/20/2014  03:54:00       82.815       59.443       15.274       17.688       15.350       17.383      312.882      235.637      302.173        0.574        0.043      101.940        8.011        0.006      337.646        9.761      858.238
10/20/2014  03:55:00       82.386       58.321       15.221       18.580       17.044       16.949      345.214      290.492      287.272        0.567        0.046      100.939        5.420        0.003      337.563        9.622      858.226
10/20/2014  03:56:00       86.956       58.871        0.963       25.192       23.893       20.347      634.646      570.887      414.010        0.632        0.081      105.010       16.558        0.025      337.513        9.538      858.213
10/20/2014  03:57:00       63.552       54.271        6.086       30.585       21.713       15.422      935.430      471.445      237.841        0.433        0.082       83.571       11.226        0.018      337.540        9.582      858.215
10/20/2014  03:58:00       -2.697       74.210      -10.321       19.872       15.165       15.385      394.895      229.963      236.709        0.324        0.043       74.259        7.049        0.009      337.543        9.588      858.234
10/20/2014  03:59:00        9.737      101.728      -15.356       29.150       23.540       17.848      849.716      554.113      318.545        0.620        0.086      102.193       10.227        0.010      337.502        9.520      858.222
10/20/2014  04:00:00       39.443       49.491        0.276       21.626       26.121       16.126      467.696      682.297      260.033        0.271        0.071       63.286       14.958        0.056      337.428        9.395      858.185
10/20/2014  04:01:00       66.926       67.792        9.080       25.969       24.362       21.532      674.365      593.488      463.626        0.544        0.087       95.262       11.417        0.014      337.444        9.421      858.160
10/20/2014  04:02:00       37.962       82.077       -9.065       43.252       62.685       39.558     1870.747     3929.415     1564.805        0.781        0.368       90.431       40.183        0.197      337.389        9.330      858.146
10/20/2014  04:03:00       60.977       72.872        2.702       52.192       62.017       38.852     2723.991     3846.083     1509.498        0.856        0.404       95.019       39.398        0.172      337.422        9.386      858.113
10/20/2014  04:04:00       18.781       50.366        8.856       63.633       49.219       32.234     4049.176     2422.487     1039.008        0.524        0.376       53.754       22.013        0.168      337.396        9.342      858.125
10/20/2014  04:05:00       41.746       25.151       -4.860       24.228       37.444       18.027      587.019     1402.043      324.957        0.236        0.116       48.737       20.813        0.182      337.450        9.431      858.180
10/20/2014  04:06:00       36.044       31.211       23.193       27.333       40.556       19.614      747.108     1644.787      384.705        0.279        0.139       47.679       18.871        0.157      337.425        9.391      858.219
10/20/2014  04:07:00       32.858       24.200       -0.113       39.620       37.459       14.637     1569.769     1403.207      214.233        0.243        0.159       40.808       11.199        0.075      337.493        9.502      858.219
10/20/2014  04:08:00      -15.216       31.800       -7.033       17.297       30.673       12.146      299.169      940.818      147.530        0.134        0.069       35.253       12.616        0.128      337.527        9.561      858.202
10/20/2014  04:09:00        0.367       63.165       -7.364       10.153       12.969       10.089      103.092      168.203      101.793        0.221        0.019       63.167        3.295        0.003      337.688        9.830      858.186
10/20/2014  04:10:00       19.254       83.545       -6.281       12.840       17.542       12.172      164.872      307.712      148.154        0.401        0.031       85.735       10.659        0.015      337.642        9.754      858.168
10/20/2014  04:11:00       40.146       59.529       -2.816       32.805       28.190       20.402     1076.182      794.653      416.249        0.372        0.114       71.801       14.215        0.039      337.638        9.748      858.150
10/20/2014  04:12:00       89.246       64.532       14.109       32.249       24.793       25.317     1040.021      614.706      640.937        0.731        0.115      110.132       13.572        0.015      337.601        9.686      858.140
10/20/2014  04:13:00       88.157       55.462       23.536       47.880       31.322       23.079     2292.466      981.055      532.640        0.760        0.190      104.152       16.196        0.024      337.761        9.952      858.148
10/20/2014  04:14:00       44.405       25.926       11.492       33.738       20.194       11.552     1138.272      407.795      133.438        0.223        0.084       51.420       10.062        0.038      337.658        9.781      858.159
10/20/2014  04:15:00       44.079       15.941        5.584       12.012        8.395       10.186      144.294       70.473      103.752        0.127        0.016       46.873        4.545        0.009      337.687        9.830      858.146
10/20/2014  04:16:00       55.858       39.872       -1.763       18.599       20.329       14.660      345.935      413.265      214.922        0.284        0.049       68.629       14.285        0.043      337.713        9.872      858.137
10/20/2014  04:17:00       37.940       39.324        2.886       16.798       12.230       12.161      282.176      149.564      147.888        0.179        0.029       54.642        5.870        0.012      337.693        9.840      858.142
10/20/2014  04:18:00       58.410       34.077       16.516       15.207       16.894       12.818      231.254      285.422      164.303        0.276        0.034       67.624        7.156        0.011      337.611        9.703      858.159
10/20/2014  04:19:00       63.573       31.714       33.079       26.125       24.084       27.570      682.526      580.029      760.116        0.408        0.101       71.044       20.853        0.086      337.583        9.656      858.171
10/20/2014  04:20:00       31.587      -40.029        2.149       35.255       61.504       28.862     1242.916     3782.737      833.032        0.423        0.293       50.991       24.225        0.226      337.540        9.582      858.186
10/20/2014  04:21:00       89.821     -118.303      -27.175       30.266       38.135       19.215      916.051     1454.312      369.229        1.277        0.137      148.538        9.614        0.004      337.724        9.893      858.202
10/20/2014  04:22:00       53.282      -45.172        2.717       42.692       43.590       25.085     1822.625     1900.097      629.274        0.462        0.218       69.853       32.906        0.222      337.778        9.982      858.208
10/20/2014  04:23:00        9.373       -4.663       17.706       20.581       28.180       20.552      423.570      794.099      422.371        0.103        0.082       10.469       17.154        2.685      337.661        9.785      858.184
10/20/2014  04:24:00       30.260       30.084       14.437       16.349       14.358       11.682      267.290      206.154      136.466        0.132        0.030       42.670        8.821        0.043      337.534        9.573      858.160
10/20/2014  04:25:00       57.636       60.129       34.482       30.008       18.733       24.527      900.472      350.921      601.564        0.499        0.093       83.291       18.482        0.049      337.714        9.874      858.148
10/20/2014  04:26:00       60.518       51.714        8.488       35.592       22.338       24.130     1266.823      498.996      582.241        0.438        0.117       79.604       12.491        0.025      337.779        9.985      858.128
10/20/2014  04:27:00       25.321       36.131        0.808       23.020       25.048       13.501      529.937      627.396      182.276        0.164        0.067       44.120       17.004        0.149      337.676        9.811      858.107
10/20/2014  04:28:00       30.745       62.069       -4.427       22.849       25.502       16.708      522.075      650.333      279.143        0.313        0.073       69.266       15.996        0.053      337.897       10.181      858.087
10/20/2014  04:29:00       36.893       31.848        2.349       27.663       16.193       13.906      765.252      262.220      193.368        0.180        0.061       48.738       10.175        0.044      337.828       10.065      858.091
10/20/2014  04:30:00       43.857       45.154       46.379       33.498       26.230       32.086     1122.119      688.018     1029.522        0.448        0.142       62.947       24.727        0.154      337.685        9.827      858.097
10/20/2014  04:31:00       -3.294       48.216       67.305       19.811       28.790       20.347      392.485      828.892      413.993        0.425        0.082       48.328       13.582        0.079      337.464        9.457      858.096
10/20/2014  04:32:00      -19.948       14.552       40.758       14.880       36.753       30.430      221.406     1350.760      925.957        0.238        0.125       24.691       30.642        1.540      337.654        9.774      858.117
10/20/2014  04:33:00      -72.431      -14.072      -17.897       24.627       23.606       11.483      606.488      557.261      131.850        0.353        0.065       73.785        9.587        0.017      337.703        9.856      858.150
10/20/2014  04:34:00      -62.536       -7.832      -16.548       22.076       15.692        9.797      487.354      246.249       95.991        0.254        0.041       63.025        5.194        0.007      337.899       10.185      858.174
10/20/2014  04:35:00      -44.121        4.344      -11.345       18.772       18.569       10.945      352.394      344.822      119.804        0.146        0.041       44.334       10.398        0.055      337.851       10.104      858.170
10/20/2014  04:36:00      -26.282       15.793      -10.064       15.194        8.955        8.701      230.859       80.193       75.704        0.071        0.019       30.662        5.615        0.034      337.880       10.153      858.150
10/20/2014  04:37:00       -6.195       15.970        0.207       17.371       15.366        8.357      301.767      236.113       69.834        0.045        0.030       17.130       10.319        0.363      337.988       10.334      858.144
10/20/2014  04:38:00      -15.835       -8.164       -6.566       13.211       13.018        9.455      174.522      169.476       89.391        0.040        0.022       17.816        5.473        0.094      337.892       10.174      858.168
10/20/2014  04:39:00      -18.775      -10.559       -3.577       15.123        9.103        9.434      228.704       82.859       89.009        0.044        0.020       21.540        4.041        0.035      337.777        9.981      858.186
10/20/2014  04:40:00      -18.086      -14.179        2.707       11.311       13.162        6.913      127.933      173.245       47.796        0.044        0.017       22.981        6.994        0.093      337.836       10.079      858.178
10/20/2014  04:41:00      -63.074       12.735       -1.209       11.553       12.074        6.306      133.475      145.771       39.761        0.223        0.016       64.346        2.517        0.002      337.830       10.067      858.178
10/20/2014  04:42:00      -88.422       12.340      -10.059       11.038       10.484        8.053      121.846      109.921       64.847        0.418        0.015       89.278        2.977        0.001      337.759        9.949      858.199
10/20/2014  04:43:00     -111.564      -44.258      -12.675       11.267       24.063        9.065      126.955      579.018       82.179        0.768        0.039      120.022        7.883        0.004      337.660        9.784      858.210
10/20/2014  04:44:00     -156.662      -51.653      -12.177       22.833       22.776       12.934      521.344      518.741      167.289        1.428        0.060      164.958       12.602        0.006      337.498        9.512      858.209
10/20/2014  04:45:00     -154.871      -30.275      -17.760       23.990       20.291       13.551      575.517      411.711      183.639        1.319        0.059      157.802       12.018        0.006      337.382        9.319      858.211
10/20/2014  04:46:00     -136.382      -23.508      -12.322       55.950       24.621       23.026     3130.444      606.187      530.176        1.178        0.213      138.394       26.197        0.036      337.260        9.115      858.191
10/20/2014  04:47:00     -173.632      -17.705      -19.074       52.840       28.683       25.440     2792.052      822.686      647.180        1.754        0.213      174.532       22.473        0.017      337.142        8.915      858.198
10/20/2014  04:48:00     -140.270      -11.096       -6.225       49.064       28.630       23.462     2407.243      819.684      550.444        1.181        0.189      140.708       27.125        0.037      337.259        9.113      858.200
10/20/2014  04:49:00     -108.895       12.070       -9.607       34.406       24.245       18.740     1183.797      587.831      351.203        0.711        0.106      109.562       16.138        0.022      337.418        9.379      858.183
10/20/2014  04:50:00     -115.680        0.715       -7.838       25.999       20.357       17.780      675.972      414.398      316.144        0.742        0.070      115.682       15.169        0.017      337.483        9.488      858.162
10/20/2014  04:51:00      -68.799      -17.001       -7.068       26.572       30.633       19.069      706.051      938.379      363.624        0.354        0.100       70.868       12.214        0.030      337.535        9.574      858.151
10/20/2014  04:52:00      -36.708      -27.561       20.297       56.032       47.438       21.208     3139.598     2250.404      449.759        0.418        0.292       45.903       27.081        0.348      337.412        9.369      858.152
10/20/2014  04:53:00       37.630      -32.937        4.402       27.422       35.887       18.505      751.941     1287.886      342.423        0.245        0.119       50.009       20.607        0.170      337.545        9.591      858.168
10/20/2014  04:54:00       53.361      -57.916      -14.042       18.257       19.813       13.610      333.325      392.555      185.222        0.365        0.046       78.751        5.224        0.004      337.633        9.739      858.167
10/20/2014  04:55:00      -45.147      -40.331       -7.074       39.775       15.848        9.039     1582.064      251.146       81.705        0.281        0.096       60.538        4.945        0.007      337.708        9.864      858.173
10/20/2014  04:56:00     -132.760      -53.576       -8.388       27.092       29.245       16.469      733.969      855.290      271.221        1.121        0.093      143.163       11.883        0.007      337.515        9.541      858.179
10/20/2014  04:57:00     -134.238      -45.368      -12.803       27.454       29.425       13.301      753.747      865.847      176.908        1.102        0.090      141.697       14.896        0.011      337.450        9.431      858.178
10/20/2014  04:58:00      -93.841      -47.085       -0.588       25.755       28.505       17.125      663.326      812.554      293.266        0.640        0.088      104.991       12.012        0.013      337.565        9.625      858.155
10/20/2014  04:59:00      -95.535      -43.406       -8.760       23.681       24.834       13.026      560.793      616.714      169.685        0.622        0.067      104.934        7.760        0.005      337.456        9.443      858.133
10/20/2014  05:00:00      -57.510      -20.412       -5.155       10.973       17.617        7.388      120.417      310.367       54.587        0.212        0.024       61.024        4.887        0.006      337.663        9.789      858.108
10/20/2014  05:01:00      -41.536        4.330       -9.115        8.439        6.069        7.051       71.221       36.837       49.715        0.099        0.008       41.761        5.492        0.017      337.585        9.658      858.089
10/20/2014  05:02:00      -19.624      -34.358      -13.150       13.348       19.591        6.682      178.177      383.811       44.652        0.117        0.030       39.567        5.998        0.023      337.620        9.718      858.098
10/20/2014  05:03:00      -69.886      -36.409      -10.622       29.605       10.193        8.811      876.431      103.899       77.629        0.369        0.053       78.802        7.040        0.008      337.577        9.643      858.133
10/20/2014  05:04:00     -115.396      -39.247       -7.554       22.825       19.213       16.725      520.961      369.125      279.730        0.804        0.058      121.887       13.747        0.013      337.450        9.432      858.160
10/20/2014  05:05:00      -93.457      -24.313       -6.513       24.664       17.515       14.723      608.293      306.785      216.778        0.525        0.057       96.568       12.785        0.018      337.261        9.116      858.170
10/20/2014  05:06:00      -53.870      -17.357        5.821       21.940       14.512       13.479      481.382      210.589      181.676        0.206        0.044       56.597       12.321        0.047      337.261        9.117      858.164
10/20/2014  05:07:00      -63.495       15.975       -1.965       19.957       13.517       11.863      398.279      182.705      140.728        0.251        0.036       65.474       10.878        0.028      337.370        9.298      858.145
10/20/2014  05:08:00     -131.019      -28.965      -12.266       31.324       40.870       21.644      981.172     1670.366      468.475        1.064        0.156      134.182       15.047        0.013      337.235        9.073      858.124
10/20/2014  05:09:00     -112.469      -51.162      -22.319       43.119       35.090       27.311     1859.233     1231.308      745.886        0.980        0.192      123.559       16.163        0.017      337.121        8.881      858.132
10/20/2014  05:10:00      -49.245      -30.900       -4.340       46.750       29.043       26.693     2185.528      843.481      712.502        0.357        0.187       58.137       24.165        0.173      337.160        8.947      858.137
10/20/2014  05:11:00      -62.957      -13.045      -10.513       17.413       25.387       13.425      303.203      644.482      180.243        0.269        0.056       64.295       11.499        0.032      337.410        9.364      858.120
10/20/2014  05:12:00      -85.152       26.195      -11.681       10.065        9.623        6.704      101.304       92.593       44.941        0.416        0.012       89.090        4.359        0.002      338.245       10.764      858.092
10/20/2014  05:13:00      -52.483        2.069       -1.658       22.162       19.656        8.735      491.173      386.366       76.295        0.186        0.048       52.523        6.390        0.015      338.060       10.454      858.060
10/20/2014  05:14:00      -67.407       -6.277      -16.655       11.515       13.686        7.122      132.586      187.294       50.725        0.262        0.019       67.699        6.449        0.009      337.976       10.314      858.040
10/20/2014  05:15:00     -102.904      -50.497      -11.630       24.936       16.520       14.661      621.785      272.915      214.951        0.719        0.055      114.626        6.854        0.004      337.287        9.159      858.049
10/20/2014  05:16:00     -135.932      -24.007      -11.225       57.709       50.897       28.745     3330.378     2590.469      826.282        1.296        0.337      138.036       28.300        0.042      337.031        8.731      858.062
10/20/2014  05:17:00      -38.210       11.857        5.478       41.870       41.027       30.819     1753.122     1683.224      949.791        0.301        0.219       40.008       26.467        0.438      336.893        8.500      858.082
10/20/2014  05:18:00      -95.350       12.606       -8.740       47.018       35.334       24.056     2210.725     1248.484      578.713        0.668        0.202       96.180       18.237        0.036      337.179        8.978      858.101
10/20/2014  05:19:00      -59.118       -6.808       -3.673       47.112       30.524       21.790     2219.499      931.734      474.813        0.359        0.181       59.508       23.076        0.150      337.388        9.327      858.102
10/20/2014  05:20:00      -77.678       19.591       -7.778       28.850       19.936       19.060      832.305      397.456      363.274        0.404        0.080       80.111       14.911        0.035      337.800       10.019      858.065
10/20/2014  05:21:00      -67.996        7.207      -16.748       15.402       14.339        9.692      237.230      205.608       93.940        0.275        0.027       68.377        9.740        0.020      337.881       10.154      858.027
10/20/2014  05:22:00      -75.539       -9.689      -16.011       10.458       14.630        9.712      109.366      214.034       94.322        0.324        0.021       76.158        7.242        0.009      337.595        9.675      857.995
10/20/2014  05:23:00      -60.372       -6.773      -13.627       16.564       14.183        8.886      274.376      201.162       78.957        0.222        0.028       60.751        9.017        0.022      337.688        9.830      857.976
10/20/2014  05:24:00      -30.971      -12.394       -6.043       21.796       13.090       11.116      475.070      171.337      123.559        0.096        0.038       33.359        9.596        0.083      337.755        9.943      857.970
10/20/2014  05:25:00      -17.239      -24.721       -6.245       28.059       18.905       16.513      787.329      357.391      272.684        0.118        0.071       30.138       11.292        0.140      337.806       10.028      857.992
10/20/2014  05:26:00      -47.657      -58.795        5.023       45.180       36.511       27.263     2041.264     1333.048      743.277        0.493        0.206       75.684       31.271        0.171      337.307        9.193      858.032
10/20/2014  05:27:00     -139.441      -72.417      -14.660       30.115       42.327       21.854      906.928     1791.537      477.600        1.404        0.159      157.124       17.996        0.013      337.313        9.202      858.061
10/20/2014  05:28:00     -150.436      -23.061      -18.342       21.116       18.149       17.056      445.896      329.382      290.893        1.228        0.053      152.193       14.311        0.009      337.343        9.253      858.060
10/20/2014  05:29:00     -140.157       19.979      -18.620       19.646       14.374       13.613      385.947      206.599      185.302        1.058        0.039      141.574        6.990        0.002      337.332        9.237      858.027
10/20/2014  05:30:00     -158.532       16.275      -22.153       26.626       22.359       16.943      708.964      499.920      287.053        1.369        0.075      159.365        6.819        0.002      337.316        9.209      857.992
10/20/2014  05:31:00     -121.599        2.000      -10.366       45.344       32.469       20.579     2056.059     1054.263      423.494        0.922        0.177      121.616       20.152        0.027      337.290        9.164      857.975
10/20/2014  05:32:00      -57.203      -11.517       -2.685       43.587       27.530       21.440     1899.792      757.917      459.674        0.326        0.156       58.350       17.745        0.092      337.522        9.551      857.961
10/20/2014  05:33:00      -56.722      -25.083       -6.503       20.982       33.470       19.199      440.226     1120.222      368.612        0.291        0.096       62.020       13.030        0.044      337.793       10.007      857.955
10/20/2014  05:34:00       11.499      -39.416       -4.000       36.029       37.239       24.310     1298.081     1386.733      590.980        0.249        0.164       41.059       16.144        0.155      337.368        9.296      857.967
10/20/2014  05:35:00      -31.493       -0.371        2.948       52.083       22.597       17.017     2712.686      510.613      289.577        0.226        0.176       31.495       20.603        0.428      337.192        9.000      857.972
10/20/2014  05:36:00     -121.706        1.640      -15.059       35.858       20.979       13.789     1285.795      440.115      190.136        0.848        0.096      121.717       14.467        0.014      337.107        8.858      857.953
10/20/2014  05:37:00     -161.750       30.695      -21.114       25.113       28.751       15.049      630.670      826.620      226.470        1.462        0.084      164.636        8.680        0.003      336.939        8.577      857.919
10/20/2014  05:38:00     -134.588       47.558      -13.556       66.364       45.185       35.273     4404.232     2041.657     1244.217        1.412        0.385      142.744       32.379        0.051      336.915        8.537      857.867
10/20/2014  05:39:00     -125.922       46.263       -6.890       64.000       40.742       31.677     4096.044     1659.879     1003.453        1.240        0.338      134.152       25.710        0.037      337.313        9.202      857.847
10/20/2014  05:40:00     -121.630       -2.849       -2.161       49.898       43.193       25.771     2489.792     1865.636      664.133        0.991        0.251      121.663       23.294        0.037      337.470        9.466      857.860
10/20/2014  05:41:00     -175.661      -55.331      -12.985       40.916       35.363       20.549     1674.141     1250.515      422.255        1.872        0.167      184.169       12.385        0.005      337.026        8.721      857.878
10/20/2014  05:42:00     -152.295      -44.252      -13.190       24.741       40.197       19.830      612.096     1615.774      393.240        1.397        0.131      158.594       14.044        0.008      336.883        8.483      857.878
10/20/2014  05:43:00     -112.072      -12.561      -14.419       25.428       27.396       14.873      646.603      750.563      221.208        0.727        0.081      112.773        7.371        0.004      337.036        8.739      857.856
10/20/2014  05:44:00     -127.764        3.457      -16.880       18.347       14.294       11.227      336.607      204.325      126.053        0.864        0.033      127.811        7.073        0.003      337.339        9.246      857.849
10/20/2014  05:45:00      -48.469       -5.099       -1.907       40.947       19.369        9.787     1676.656      375.141       95.790        0.226        0.107       48.737       14.101        0.084      337.404        9.355      857.863
10/20/2014  05:46:00       14.791      -35.815        4.537       20.524       15.285       11.383      421.252      233.637      129.584        0.115        0.039       38.749       11.132        0.083      337.664        9.791      857.875
10/20/2014  05:47:00       18.230      -75.173      -12.335       31.055       20.420       12.798      964.388      416.962      163.798        0.384        0.077       77.352       10.936        0.020      337.612        9.703      857.889
10/20/2014  05:48:00        1.228      -10.393       13.034       38.302       56.571       20.501     1467.080     3200.253      420.272        0.268        0.254       10.466       30.388        8.431      337.382        9.319      857.903
10/20/2014  05:49:00      -57.884        4.477       -3.963       20.929       24.993       11.873      438.039      624.666      140.971        0.229        0.060       58.057       12.833        0.049      337.349        9.263      857.909
10/20/2014  05:50:00      -32.298      -20.063       -0.701       36.753       17.259       10.102     1350.809      297.882      102.053        0.160        0.088       38.022        9.992        0.069      337.371        9.301      857.906
10/20/2014  05:51:00       34.512      -54.719      -15.874       30.414       36.477       22.431      925.038     1330.582      503.159        0.360        0.138       64.694       16.414        0.064      337.464        9.455      857.928
10/20/2014  05:52:00       42.101      -63.000        2.956       31.012       30.636       20.401      961.772      938.577      416.203        0.403        0.116       75.773       16.145        0.045      337.253        9.101      857.975
10/20/2014  05:53:00       29.035      -39.722       -9.583       31.699       37.383       24.927     1004.810     1397.520      621.346        0.277        0.151       49.203       24.294        0.244      337.334        9.238      858.014
10/20/2014  05:54:00       -0.990      -32.923        2.868       32.927       27.714       25.228     1084.173      768.042      636.447        0.179        0.124       32.938       23.715        0.518      337.354        9.271      858.034
10/20/2014  05:55:00      -52.611       26.599       -7.877       20.804       12.033       11.952      432.796      144.788      142.853        0.213        0.036       58.953       12.338        0.044      337.280        9.148      858.032
10/20/2014  05:56:00     -118.225       14.045      -13.961       28.723       10.570        9.850      825.015      111.732       97.016        0.770        0.052      119.056        9.010        0.006      337.180        8.981      858.022
10/20/2014  05:57:00     -167.248        6.834      -18.203       17.388       16.733       12.883      302.344      279.981      165.959        1.455        0.037      167.388        9.269        0.003      337.065        8.786      858.000
10/20/2014  05:58:00     -113.726      -36.610       -2.105       30.598       22.953       21.286      936.264      526.847      453.114        0.810        0.096      119.473       20.102        0.028      336.845        8.420      857.989
10/20/2014  05:59:00      -94.271      -69.562      -14.249       27.408       24.127       11.891      751.215      582.129      141.400        0.770        0.074      117.157        7.810        0.004      337.009        8.692      857.991
10/20/2014  06:00:00      -91.134      -49.012      -12.377       26.075       25.838       17.646      679.890      667.604      311.374        0.626        0.083      103.477       15.612        0.023      337.116        8.871      858.003
10/20/2014  06:01:00      -86.894      -17.433       -6.159       26.037       23.666       18.503      677.937      560.062      342.366        0.474        0.079       88.626       15.334        0.030      337.150        8.930      857.992
10/20/2014  06:02:00      -98.508      -38.881       -8.057       23.866       20.162       12.178      569.596      406.499      148.298        0.620        0.056      105.904       11.107        0.011      337.147        8.925      857.978
10/20/2014  06:03:00      -95.071       -6.959       -8.330       35.850       21.503       16.223     1285.251      462.394      263.196        0.558        0.101       95.325       17.390        0.033      337.037        8.739      857.978
10/20/2014  06:04:00      -86.943      -26.490       -8.531       38.537       24.756       18.423     1485.127      612.856      339.414        0.539        0.122       90.889       19.705        0.047      337.129        8.895      857.987
10/20/2014  06:05:00       23.869       -9.624        3.398       20.391       11.691       11.403      415.800      136.685      130.027        0.068        0.034       25.737        2.237        0.008      337.164        8.954      857.990
10/20/2014  06:06:00       53.582       24.753       -2.951       22.881       25.356       22.152      523.540      642.902      490.711        0.257        0.083       59.023       17.210        0.085      337.164        8.954      857.988
10/20/2014  06:07:00        9.263       31.664      -15.440       27.809       26.196       12.040      773.329      686.254      144.963        0.147        0.080       32.991       10.474        0.101      336.970        8.627      857.999
10/20/2014  06:08:00        6.750       26.286       -6.036       11.652        9.815        9.018      135.778       96.342       81.330        0.054        0.016       27.139        3.389        0.016      337.106        8.856      858.005
10/20/2014  06:09:00       -8.614        0.162       -2.758        7.457        6.969        3.692       55.613       48.572       13.631        0.010        0.006        8.616        3.263        0.143      337.189        8.997      857.978
10/20/2014  06:10:00      -40.412       -8.027       -4.797        7.666        7.241        5.718       58.770       52.432       32.698        0.093        0.007       41.202        4.827        0.014      337.221        9.050      857.961
10/20/2014  06:11:00      -47.346      -17.026       -8.340        9.179        7.232        4.459       84.247       52.304       19.879        0.138        0.008       50.315        3.246        0.004      337.143        8.915      857.957
10/20/2014  06:12:00      -32.253      -13.953       -3.575        9.980        6.479        4.885       99.610       41.982       23.866        0.071        0.008       35.142        3.281        0.009      337.092        8.830      857.952
10/20/2014  06:13:00      -16.875      -22.177       -5.327       11.165        8.479        5.987      124.650       71.886       35.838        0.052        0.012       27.867        3.016        0.012      337.082        8.815      857.956
10/20/2014  06:14:00        4.668      -12.604        6.971        7.248       11.063        7.335       52.539      122.392       53.808        0.023        0.011       13.441        3.617        0.072      337.256        9.108      857.949
10/20/2014  06:15:00      -15.871      -15.772       -2.256       16.767        8.788        5.036      281.149       77.236       25.364        0.044        0.019       22.375        2.981        0.018      337.256        9.109      857.933
10/20/2014  06:16:00      -23.671      -29.053        2.022       19.146       15.340       14.215      366.588      235.313      202.059        0.111        0.040       37.475        8.125        0.047      337.068        8.790      857.928
10/20/2014  06:17:00      -46.284       -1.898       -8.622       30.557       18.899       14.563      933.714      357.173      212.069        0.186        0.075       46.323       13.334        0.083      336.971        8.630      857.917
10/20/2014  06:18:00     -102.164      -42.941      -11.083       57.726       23.712       16.739     3332.247      562.243      280.197        0.829        0.209      110.821       20.601        0.035      336.831        8.397      857.903
10/20/2014  06:19:00     -140.176      -49.905       -5.853       29.512       34.423       23.929      870.954     1184.957      572.607        1.240        0.131      148.794       18.636        0.016      336.729        8.228      857.893
10/20/2014  06:20:00      -81.348        4.592       -3.806       57.440       34.485       29.925     3299.349     1189.237      895.528        0.602        0.269       81.477       25.367        0.097      336.780        8.313      857.892
10/20/2014  06:21:00     -101.126        3.762      -11.749       25.131       21.592       17.048      631.585      466.204      290.626        0.588        0.069      101.196       13.396        0.018      337.359        9.280      857.904
10/20/2014  06:22:00      -75.529       -0.361      -10.121       35.134       22.007       18.518     1234.420      484.329      342.909        0.393        0.103       75.530       12.088        0.026      337.222        9.051      857.905
10/20/2014  06:23:00      -76.596       -8.121       -9.482       53.781       34.253       24.622     2892.359     1173.249      606.231        0.535        0.234       77.026       29.807        0.150      337.068        8.792      857.915
10/20/2014  06:24:00      -79.642       11.697       -5.078       49.967       41.059       27.859     2496.726     1685.831      776.121        0.573        0.248       80.496       28.789        0.128      337.164        8.954      857.931
10/20/2014  06:25:00     -147.438        0.569      -19.978       39.492       31.924       24.593     1559.589     1019.170      604.797        1.266        0.159      147.440       19.611        0.018      337.295        9.173      857.938
10/20/2014  06:26:00     -153.846      -31.971       -7.910       50.342       54.955       31.940     2534.299     3020.031     1020.178        1.566        0.329      157.133       30.336        0.037      337.316        9.206      857.938
10/20/2014  06:27:00     -223.821       27.574      -22.758       43.105       42.601       28.177     1858.075     1814.862      793.929        2.792        0.223      225.513       20.656        0.008      337.321        9.211      857.920
10/20/2014  06:28:00     -208.658       40.400      -22.719       43.528       35.467       24.155     1894.698     1257.937      583.478        2.471        0.187      212.533       17.472        0.007      337.464        9.454      857.899
10/20/2014  06:29:00     -165.931       18.126      -12.961       54.013       45.218       32.230     2917.406     2044.705     1038.805        1.701        0.300      166.918       24.195        0.021      337.394        9.338      857.888
10/20/2014  06:30:00     -146.412      -62.541       -0.546       48.210       43.410       29.965     2324.188     1884.409      897.900        1.523        0.255      159.210       26.879        0.029      337.205        9.022      857.897
10/20/2014  06:31:00      -88.785      -64.912       11.890       56.906       41.330       29.100     3238.280     1708.169      846.792        0.901        0.290      109.983       21.404        0.038      337.107        8.858      857.920
10/20/2014  06:32:00     -139.440      -89.010      -13.245       27.780       28.845       22.788      771.722      832.020      519.296        1.483        0.106      165.427       16.746        0.010      337.508        9.530      857.923
10/20/2014  06:33:00      -89.345      -96.018       -4.970       58.087       52.827       41.117     3374.102     2790.644     1690.629        1.254        0.393      131.156       33.204        0.064      337.343        9.253      857.920
10/20/2014  06:34:00     -200.558     -148.068      -18.618       57.041       59.862       29.232     3253.648     3583.452      854.536        3.509        0.385      249.294       24.379        0.010      337.307        9.189      857.925
10/20/2014  06:35:00     -146.295      -63.244        0.453       82.424       53.835       34.027     6793.709     2898.250     1157.865        1.812        0.542      159.380       39.049        0.060      337.206        9.022      857.916
10/20/2014  06:36:00     -103.505      -68.477       -5.261       39.133       49.917       21.367     1531.397     2491.729      456.539        0.995        0.224      124.106       24.687        0.040      337.216        9.040      857.898
10/20/2014  06:37:00      -50.501      -31.282       -3.200       35.263       25.647       14.646     1243.506      657.756      214.510        0.283        0.106       59.405       12.684        0.046      337.211        9.031      857.884
10/20/2014  06:38:00      -16.223      -38.246        5.822       34.234       28.731       16.307     1171.971      825.465      265.915        0.201        0.113       41.545       19.102        0.211      337.299        9.181      857.895
10/20/2014  06:39:00       12.363       -6.415        8.561       14.274       12.777       11.798      203.733      163.262      139.186        0.039        0.025       13.928        8.272        0.353      337.151        8.929      857.911
10/20/2014  06:40:00       45.346       29.874       13.265       57.256       40.955       26.551     3278.282     1677.326      704.969        0.439        0.283       54.302       27.623        0.259      337.227        9.060      857.935
10/20/2014  06:41:00       83.869       80.904       52.736       58.451       41.879       41.778     3416.533     1753.826     1745.438        1.164        0.346      116.531       26.791        0.053      337.077        8.808      857.961
10/20/2014  06:42:00       63.563       54.181       37.582       66.984       42.791       22.328     4486.828     1831.029      498.537        0.760        0.341       83.522       18.694        0.050      336.714        8.202      857.999
10/20/2014  06:43:00       -7.215      -25.704        5.468       14.894       17.356       11.494      221.821      301.242      132.115        0.070        0.033       26.698        8.310        0.097      336.958        8.607      858.011
10/20/2014  06:44:00      -15.843        5.278        6.172       15.491       15.910       13.294      239.977      253.136      176.718        0.049        0.033       16.699        8.619        0.266      336.855        8.436      857.999
10/20/2014  06:45:00      -43.628      -10.285       -3.022       20.971       15.742       12.377      439.784      247.800      153.196        0.143        0.042       44.824       11.348        0.064      336.982        8.649      857.977
10/20/2014  06:46:00      -20.530       17.603       -3.135        6.299        7.673        6.274       39.683       58.874       39.366        0.044        0.007       27.044        4.151        0.024      337.042        8.749      857.949
10/20/2014  06:47:00      -32.635       19.887       -5.840       13.080        7.027        6.555      171.079       49.374       42.972        0.088        0.013       38.217        7.821        0.042      337.124        8.887      857.924
10/20/2014  06:48:00      -62.076       57.260      -18.903        8.485       17.505        6.895       72.002      306.436       47.544        0.396        0.021       84.451        5.043        0.004      337.086        8.822      857.912
10/20/2014  06:49:00      -14.547       78.105       -8.835       22.918       28.971       14.563      525.228      839.329      212.068        0.398        0.079       79.448       11.723        0.022      337.207        9.026      857.912
10/20/2014  06:50:00       -4.224       59.208        3.791       18.064       29.286       18.503      326.295      857.650      342.355        0.253        0.076       59.359       17.561        0.088      337.078        8.810      857.907
10/20/2014  06:51:00       13.133      102.494      -16.378       13.775       14.334        9.354      189.742      205.463       87.493        0.571        0.024      103.332        6.212        0.004      336.912        8.531      857.907
10/20/2014  06:52:00        5.368       87.595       -7.794       16.163       20.178       11.618      261.236      407.168      134.973        0.428        0.040       87.759       10.019        0.013      336.805        8.355      857.902
10/20/2014  06:53:00       46.136       54.456       -1.552       29.118       30.685       21.390      847.869      941.550      457.547        0.367        0.112       71.372       19.777        0.077      336.591        7.995      857.892
10/20/2014  06:54:00       79.083       33.770        7.395       29.276       29.340       29.067      857.091      860.854      844.913        0.501        0.128       85.991       17.383        0.041      336.469        7.792      857.879
10/20/2014  06:55:00       12.097        7.927      -10.197       22.406       22.830       13.109      502.007      521.219      171.835        0.075        0.060       14.463       15.450        1.141      336.387        7.655      857.890
10/20/2014  06:56:00      -30.134      -14.112       -7.112       21.327       24.918       15.149      454.860      620.909      229.479        0.123        0.065       33.275       11.747        0.125      336.547        7.923      857.901
10/20/2014  06:57:00      -89.646       30.117      -18.022       23.758       31.690       14.738      564.454     1004.240      217.201        0.553        0.089       94.570       14.837        0.025      336.632        8.065      857.874
10/20/2014  06:58:00      -98.283       78.526      -23.103       28.820       34.550       20.978      830.570     1193.702      440.090        0.941        0.123      125.801       20.321        0.026      336.889        8.494      857.822
10/20/2014  06:59:00      -74.256       86.711      -20.939       29.612       31.469       20.753      876.862      990.309      430.673        0.788        0.115      114.161       19.520        0.029      336.910        8.528      857.794
10/20/2014  07:00:00       29.230       73.702      -15.077       47.807       34.706       24.459     2285.490     1204.500      598.255        0.530        0.204       79.287       16.490        0.043      336.810        8.362      857.795
10/20/2014  07:01:00       14.687       47.531      -13.377       22.171       26.985       13.547      491.536      728.186      183.510        0.203        0.070       49.748        4.450        0.008      336.678        8.142      857.808
10/20/2014  07:02:00      -41.567       52.918      -11.818       33.514       31.204       13.938     1123.159      973.679      194.264        0.348        0.115       67.292       16.151        0.058      336.858        8.442      857.823
10/20/2014  07:03:00      -86.182       -9.325       -7.269       27.295       33.163       14.684      745.014     1099.790      215.612        0.481        0.103       86.685        4.882        0.003      336.882        8.482      857.835
10/20/2014  07:04:00      -69.488      -58.487        0.178       48.107       30.864       22.086     2314.241      952.558      487.786        0.600        0.188       90.826       13.717        0.023      336.854        8.434      857.854
10/20/2014  07:05:00      -71.546      -50.666        5.844       35.891       21.424       18.540     1288.180      459.003      343.736        0.491        0.105       87.669       18.513        0.045      336.863        8.452      857.871
10/20/2014  07:06:00      -48.683      -72.696        2.265       43.506       35.151       23.545     1892.762     1235.568      554.358        0.567        0.184       87.491       21.815        0.062      336.990        8.660      857.878
10/20/2014  07:07:00      -40.910      -26.371        4.913       59.101       27.932       22.432     3492.952      780.182      503.173        0.358        0.239       48.673       15.940        0.107      336.988        8.657      857.856
10/20/2014  07:08:00      -30.868        1.237       -2.345       47.496       13.550        9.199     2255.845      183.607       84.617        0.174        0.126       30.892       12.407        0.161      337.098        8.843      857.833
10/20/2014  07:09:00     -136.988      -22.843      -10.546       46.845       40.181       19.619     2194.491     1614.539      384.901        1.180        0.210      138.879       16.614        0.014      337.018        8.710      857.821
10/20/2014  07:10:00     -149.016      -80.730       -1.652       52.625       38.579       25.556     2769.387     1488.307      653.109        1.682        0.246      169.479       23.940        0.020      336.910        8.527      857.806
10/20/2014  07:11:00     -130.767      -30.313       -4.452       47.408       27.296       18.076     2247.475      745.065      326.739        1.068        0.166      134.234       22.424        0.028      336.851        8.430      857.790
10/20/2014  07:12:00     -126.009       -1.984       -8.458       38.938       37.706       22.498     1516.144     1421.764      506.139        0.970        0.172      126.025       18.938        0.023      336.753        8.267      857.783
10/20/2014  07:13:00      -67.973      -12.493       -3.317       31.935       32.756       20.712     1019.860     1072.929      428.971        0.365        0.126       69.111       19.955        0.083      336.781        8.314      857.779
10/20/2014  07:14:00      -70.804      -21.425       -9.664       39.969       31.792       25.166     1597.536     1010.722      633.333        0.440        0.162       73.975       21.617        0.085      336.899        8.510      857.771
10/20/2014  07:15:00     -109.090      -35.749      -16.413       24.516       31.917       15.915      601.054     1018.717      253.293        0.766        0.094      114.798        5.723        0.002      336.847        8.424      857.752
10/20/2014  07:16:00     -137.769      -35.775      -15.996       31.867       30.610       17.019     1015.480      936.994      289.653        1.138        0.112      142.338       14.441        0.010      336.828        8.392      857.730
10/20/2014  07:17:00     -134.833      -15.657       -1.680       51.527       38.642       33.132     2655.022     1493.172     1097.751        1.184        0.262      135.739       28.432        0.044      336.630        8.060      857.730
10/20/2014  07:18:00     -121.243        9.893      -18.741       42.377       54.765       32.396     1795.799     2999.161     1049.490        1.050        0.292      121.646       28.489        0.055      336.760        8.278      857.746
10/20/2014  07:19:00      -66.438       -8.838       -4.452       37.721       34.266       27.363     1422.875     1174.132      748.736        0.393        0.167       67.024       16.255        0.059      336.857        8.440      857.766
10/20/2014  07:20:00        4.150      -44.204       15.185       17.016       49.908       24.516      289.556     2490.848      601.045        0.279        0.169       44.399       26.431        0.354      336.866        8.455      857.780
10/20/2014  07:21:00        6.157      -35.612       18.322       21.982       55.734       34.207      483.191     3106.290     1170.105        0.320        0.238       36.140       33.119        0.840      336.971        8.628      857.779
10/20/2014  07:22:00       16.874      -54.364       23.897       37.116       35.879       28.059     1377.567     1287.311      787.328        0.363        0.173       56.922       17.704        0.097      336.997        8.674      857.769
10/20/2014  07:23:00      -45.598      -21.497        4.620       31.665       19.081       14.857     1002.672      364.093      220.720        0.207        0.079       50.411       15.275        0.092      337.057        8.774      857.755
10/20/2014  07:24:00     -124.263      -31.205      -14.252       31.600       24.443       17.549      998.570      597.478      307.969        0.926        0.095      128.121        6.557        0.003      337.064        8.786      857.753
10/20/2014  07:25:00     -100.139      -19.712       -1.032       31.971       25.971       18.935     1022.145      674.513      358.526        0.624        0.103      102.061       15.839        0.024      336.840        8.412      857.759
10/20/2014  07:26:00      -73.508       -5.641       -0.991       45.940       21.400       16.519     2110.502      457.967      272.889        0.414        0.142       73.725       22.097        0.090      336.882        8.481      857.782
10/20/2014  07:27:00        1.258      -57.670        0.615       38.370       26.917       16.977     1472.266      724.543      288.233        0.291        0.124       57.684        4.913        0.007      337.052        8.765      857.823
10/20/2014  07:28:00      -25.436       -5.771       -3.618       31.363       18.779       15.275      983.626      352.647      233.334        0.113        0.078       26.082       14.503        0.309      337.083        8.819      857.862
10/20/2014  07:29:00      -46.100       31.077      -15.983       15.215       19.754       11.651      231.500      390.239      135.746        0.205        0.038       55.597       12.111        0.047      337.138        8.908      857.852
10/20/2014  07:30:00      -78.295       31.761      -12.731       23.838       15.506       15.643      568.230      240.448      244.714        0.418        0.053       84.492        7.527        0.008      337.062        8.781      857.828
10/20/2014  07:31:00      -36.208       13.015       -4.627       21.346       22.755       12.043      455.631      517.783      145.042        0.131        0.056       38.476        8.795        0.052      336.925        8.552      857.807
10/20/2014  07:32:00       11.099      -41.786       -9.107       14.456       15.440       10.543      208.968      238.387      111.147        0.126        0.028       43.235        7.709        0.032      337.139        8.911      857.791
10/20/2014  07:33:00        8.938      -48.921       -9.074       17.634       18.868       13.490      310.972      355.992      181.977        0.170        0.042       49.731        7.473        0.023      337.262        9.118      857.792
10/20/2014  07:34:00       -6.707      -13.022       -3.901       21.877       19.272        8.658      478.587      371.411       74.955        0.058        0.046       14.648        8.115        0.307      337.234        9.071      857.799
10/20/2014  07:35:00      -40.950      -13.024      -11.471       10.998       13.354        8.920      120.958      178.316       79.563        0.118        0.019       42.971        4.580        0.011      337.201        9.017      857.796
10/20/2014  07:36:00      -29.549       -8.447       -7.826        8.255        6.790        7.082       68.138       46.100       50.160        0.059        0.008       30.733        4.958        0.026      337.245        9.090      857.794
10/20/2014  07:37:00      -47.546      -20.812       -2.118       14.719       10.438        6.545      216.649      108.954       42.839        0.153        0.018       51.902        5.711        0.012      337.191        8.999      857.805
10/20/2014  07:38:00      -34.987      -22.499       -3.874       25.008       14.398       10.535      625.402      207.310      110.978        0.134        0.047       41.597       11.236        0.073      337.167        8.958      857.813
10/20/2014  07:39:00      -80.776      -19.960       -9.059       19.477       10.332       10.486      379.353      106.753      109.946        0.380        0.030       83.205       11.052        0.018      337.202        9.016      857.811
10/20/2014  07:40:00      -42.017        5.631       -4.657       18.113        9.313        9.164      328.077       86.740       83.983        0.116        0.025       42.393        6.781        0.026      337.252        9.100      857.805
10/20/2014  07:41:00        6.008        8.650        9.034        9.587        5.460        8.899       91.906       29.812       79.186        0.020        0.010       10.532        7.966        0.572      337.387        9.325      857.788
10/20/2014  07:42:00      -22.266        3.365        1.601       26.584        8.606        8.044      706.723       74.071       64.709        0.068        0.042       22.519       11.904        0.279      337.393        9.337      857.768
10/20/2014  07:43:00     -128.640       -6.235      -19.318       27.672       17.067       11.832      765.758      291.278      140.005        0.908        0.060      128.791       11.333        0.008      337.255        9.105      857.760
10/20/2014  07:44:00     -143.283      -25.687      -11.443       33.305       28.176       24.311     1109.237      793.872      591.021        1.191        0.125      145.567       20.760        0.020      337.009        8.692      857.746
10/20/2014  07:45:00     -126.531       -6.259      -10.027       40.450       39.293       24.790     1636.200     1543.930      614.531        0.997        0.190      126.686       23.173        0.033      336.966        8.621      857.745
10/20/2014  07:46:00     -105.192      -11.859       -3.520       44.203       34.217       22.328     1953.877     1170.816      498.559        0.742        0.181      105.858       19.867        0.035      336.945        8.587      857.740
10/20/2014  07:47:00      -96.616       -0.276       -7.191       42.098       17.659       17.729     1772.260      311.842      314.303        0.589        0.120       96.617       18.632        0.037      336.939        8.577      857.745
10/20/2014  07:48:00      -22.269       16.231      -16.715       27.275       24.220       13.910      743.911      586.622      193.501        0.128        0.076       27.556       16.166        0.344      337.096        8.838      857.746
10/20/2014  07:49:00      -14.126       18.881       -8.869       14.762        9.983        9.400      217.907       99.657       88.359        0.052        0.020       23.580        7.903        0.112      337.386        9.324      857.751
10/20/2014  07:50:00      -39.034      -17.142      -11.614       25.421       19.319        9.567      646.248      373.225       91.524        0.153        0.056       42.632       10.459        0.060      337.494        9.506      857.748
10/20/2014  07:51:00      -96.235      -39.412      -11.276       34.996       27.358       19.219     1224.750      748.438      369.384        0.664        0.117      103.993        6.557        0.004      337.344        9.256      857.748
10/20/2014  07:52:00     -106.493      -34.943      -12.430       31.863       24.146       16.054     1015.279      583.021      257.724        0.729        0.093      112.080       15.586        0.019      337.238        9.078      857.756
10/20/2014  07:53:00      -45.556      -27.959       -3.105       33.298       19.158       13.214     1108.773      367.024      174.615        0.226        0.083       53.452        1.735        0.001      337.236        9.075      857.749
10/20/2014  07:54:00      -47.316      -18.149       -1.801       13.276       18.997       10.635      176.248      360.896      113.101        0.161        0.033       50.677        6.374        0.016      337.243        9.086      857.737
10/20/2014  07:55:00      -90.406        7.194       -3.999       40.991       22.905       19.129     1680.296      524.655      365.929        0.541        0.129       90.692       21.162        0.054      337.274        9.139      857.732
10/20/2014  07:56:00     -135.331       -9.443       -5.002       45.767       23.041       24.885     2094.579      530.881      619.269        1.084        0.162      135.660       24.667        0.033      337.253        9.103      857.744
10/20/2014  07:57:00     -123.420      -31.822       -4.175       29.767       27.088       17.628      886.090      733.754      310.739        0.910        0.097      127.456       14.172        0.012      337.279        9.147      857.764
10/20/2014  07:58:00      -89.090      -22.949       -9.666       19.339       23.890       12.274      374.003      570.719      150.652        0.483        0.055       91.998        7.773        0.007      337.417        9.374      857.765
10/20/2014  07:59:00      -81.356      -17.604       -2.381       20.687       22.315       16.052      427.938      497.956      257.656        0.406        0.059       83.239       10.291        0.015      337.447        9.426      857.737
10/20/2014  08:00:00      -22.481      -26.487       14.275       34.729       32.006       20.071     1206.136     1024.392      402.840        0.202        0.132       34.741       20.980        0.365      337.670        9.800      857.739
10/20/2014  08:01:00      -21.773        9.030        4.785       28.579       20.323       16.212      816.778      413.031      262.817        0.104        0.075       23.571       13.929        0.349      337.848       10.099      857.770
10/20/2014  08:02:00      -26.570       -2.893        7.961       35.768       19.685       17.622     1279.373      387.494      310.526        0.138        0.099       26.727       17.886        0.448      337.943       10.259      857.839
10/20/2014  08:03:00       -5.873        7.559       32.484       12.001       14.116       10.179      144.020      199.257      103.622        0.080        0.022        9.573        6.812        0.506      338.236       10.751      857.892
10/20/2014  08:04:00       19.228      -12.282        4.022       42.746       27.507       22.417     1827.182      756.621      502.521        0.181        0.154       22.816       24.818        1.183      338.143       10.595      857.937
10/20/2014  08:05:00       15.790      -11.326       23.002       28.166       21.616       18.910      793.347      467.267      357.579        0.126        0.081       19.432       14.664        0.569      338.371       10.977      857.958
10/20/2014  08:06:00       -3.921       15.544        7.591       22.019       21.691       25.283      484.832      470.499      639.236        0.095        0.080       16.031       17.209        1.152      338.229       10.739      857.945
10/20/2014  08:07:00      -40.482        4.133      -11.282       28.758       11.183        7.500      827.041      125.057       56.251        0.140        0.050       40.692        2.487        0.004      338.117       10.552      857.930
10/20/2014  08:08:00      -74.670       -8.198      -11.962        7.777        6.314        5.214       60.484       39.869       27.184        0.296        0.006       75.119        2.496        0.001      338.102       10.527      857.925
10/20/2014  08:09:00      -52.371      -17.664       -3.798       10.506        7.905        8.021      110.377       62.489       64.343        0.165        0.012       55.269        6.185        0.013      338.103       10.527      857.927
10/20/2014  08:10:00      -63.036      -19.151       -4.425        7.676        9.003        6.386       58.928       81.060       40.776        0.227        0.009       65.881        5.131        0.006      338.152       10.610      857.943
10/20/2014  08:11:00      -22.947      -30.042        0.369       23.993        8.271        7.402      575.665       68.412       54.783        0.106        0.035       37.803        4.399        0.014      338.217       10.719      857.965
10/20/2014  08:12:00        2.957       -2.620        4.732        9.305       13.614       14.254       86.577      185.340      203.178        0.026        0.024        3.951       11.141        7.952      338.563       11.298      857.968
10/20/2014  08:13:00       29.428       -1.380        3.076       20.390       26.478       20.412      415.747      701.097      416.663        0.121        0.077       29.461       18.106        0.378      338.362       10.961      857.965
10/20/2014  08:14:00       45.403       27.449       -4.467       23.015       13.940       17.204      529.684      194.334      295.963        0.193        0.051       53.056       11.753        0.049      338.495       11.186      857.965
10/20/2014  08:15:00       50.462        5.951       -3.467       21.309       17.591       17.158      454.055      309.433      294.399        0.183        0.053       50.812       12.110        0.057      338.565       11.303      857.984
10/20/2014  08:16:00       -3.936      -11.848        5.245       16.808       14.541       17.335      282.521      211.440      300.499        0.049        0.040       12.485        7.566        0.367      338.747       11.608      858.013
10/20/2014  08:17:00      -14.163      -44.229        8.442       15.655       25.302       20.885      245.094      640.184      436.185        0.177        0.066       46.441        9.803        0.045      338.742       11.600      858.029
10/20/2014  08:18:00       -8.187        0.478       17.583       10.959       16.114       12.347      120.096      259.646      152.453        0.045        0.027        8.201        8.589        1.097      339.137       12.265      858.046
10/20/2014  08:19:00      -37.666       11.636       -0.842        9.405        7.604       10.393       88.455       57.827      108.019        0.090        0.013       39.422        7.495        0.036      338.759       11.627      858.061
10/20/2014  08:20:00      -16.857       12.973       -9.600       12.744        6.569        5.569      162.419       43.152       31.009        0.039        0.012       21.272        3.909        0.034      338.813       11.719      858.083
10/20/2014  08:21:00       -4.326       12.153        4.311        8.826        8.438        7.356       77.906       71.205       54.116        0.019        0.010       12.900        4.596        0.127      339.029       12.083      858.100
10/20/2014  08:22:00       19.238       17.675        6.495       14.974       10.859       18.748      224.211      117.927      351.495        0.071        0.035       26.125        6.775        0.067      338.947       11.945      858.099
10/20/2014  08:23:00       84.279       30.390       19.774       22.380       17.519       20.218      500.843      306.899      408.764        0.482        0.061       89.590        9.870        0.012      338.884       11.839      858.088
10/20/2014  08:24:00       82.288       39.270       11.396       24.916       27.159       28.288      620.812      737.592      800.225        0.530        0.108       91.178       13.915        0.023      338.950       11.951      858.089
10/20/2014  08:25:00       50.607       60.475       50.973       32.016       31.912       28.636     1025.049     1018.401      820.040        0.584        0.143       78.856       17.520        0.049      339.037       12.096      858.089
10/20/2014  08:26:00       82.457       69.782       43.890       41.237       28.604       29.677     1700.500      818.196      880.708        0.850        0.170      108.022       17.404        0.026      338.982       12.003      858.087
10/20/2014  08:27:00       93.001       62.157       20.719       39.265       36.822       39.982     1541.707     1355.887     1598.529        0.872        0.225      111.860       24.336        0.047      338.884       11.839      858.107
10/20/2014  08:28:00       37.648       27.116       20.707       40.863       33.546       21.071     1669.803     1125.351      444.007        0.291        0.162       46.396       18.817        0.164      338.965       11.975      858.151
10/20/2014  08:29:00       18.751       -7.883       18.707       42.423       31.833       23.717     1799.735     1013.340      562.488        0.207        0.169       20.341       20.256        0.992      338.928       11.913      858.183
10/20/2014  08:30:00       30.927       50.489       69.280       70.772       53.302       32.559     5008.719     2841.142     1060.118        0.861        0.445       59.208       25.046        0.179      338.934       11.924      858.197
10/20/2014  08:31:00       74.334      -21.159       36.734       48.578       57.184       47.590     2359.864     3269.977     2264.848        0.761        0.395       77.287       44.029        0.325      338.882       11.835      858.197
10/20/2014  08:32:00       92.779       68.969       43.689       56.762       39.627       27.900     3221.948     1570.325      778.407        1.042        0.279      115.605       16.054        0.019      338.737       11.592      858.193
10/20/2014  08:33:00       60.541       63.910        8.448       47.957       43.762       39.641     2299.869     1915.084     1571.382        0.680        0.289       88.033       32.700        0.138      338.761       11.631      858.169
10/20/2014  08:34:00       24.606       57.287       -3.211       37.842       34.052       25.317     1431.979     1159.563      640.953        0.356        0.162       62.348       16.518        0.070      338.895       11.857      858.152
10/20/2014  08:35:00      -32.045       39.619      -13.899       28.524       25.019       10.666      813.594      625.930      113.761        0.217        0.078       50.956       12.675        0.062      338.804       11.703      858.157
10/20/2014  08:36:00      -15.505        1.672        9.886       16.499       12.528       12.044      272.203      156.943      145.049        0.046        0.029       15.595        8.571        0.302      339.130       12.253      858.173
10/20/2014  08:37:00       46.028      -35.625       39.042       58.531       98.240       50.152     3425.916     9651.112     2515.242        1.025        0.780       58.204       63.009        1.172      339.232       12.424      858.195
10/20/2014  08:38:00       72.565     -113.230      -11.281       65.890       88.797       48.769     4341.555     7884.894     2378.440        1.641        0.730      134.487       48.944        0.132      339.091       12.186      858.219
10/20/2014  08:39:00       54.151      -59.962       15.711       46.057       79.624       31.757     2121.247     6340.024     1008.493        0.812        0.473       80.795       45.744        0.321      338.958       11.964      858.211
10/20/2014  08:40:00       37.635       32.110       11.055       28.221       21.635       17.316      796.452      468.092      299.859        0.207        0.078       49.472       14.386        0.085      338.917       11.895      858.182
10/20/2014  08:41:00       -3.908       13.332        0.017       26.942       18.969       19.043      725.857      359.817      362.635        0.082        0.072       13.893       13.945        1.007      339.188       12.350      858.174
10/20/2014  08:42:00      -43.692       32.055        3.910       28.566       22.134       21.561      815.993      489.913      464.865        0.236        0.089       54.190       19.923        0.135      339.231       12.423      858.187
10/20/2014  08:43:00      -20.132       48.321        0.161       27.532       27.631       20.254      758.000      763.487      410.232        0.234        0.097       52.347       16.399        0.098      339.319       12.571      858.193
10/20/2014  08:44:00      -10.778      -11.685        2.765       14.108       28.352       16.163      199.045      803.854      261.251        0.076        0.063       15.896       17.046        1.150      339.287       12.517      858.195
10/20/2014  08:45:00       33.599       13.982       31.934       33.167       27.368       30.778     1100.056      749.014      947.258        0.257        0.140       36.392       23.535        0.418      339.346       12.614      858.196
10/20/2014  08:46:00       53.803       99.620       94.538       54.570       51.862       35.195     2977.918     2689.654     1238.698        1.433        0.345      113.220       29.977        0.070      339.137       12.263      858.158
10/20/2014  08:47:00       71.383       84.845       68.300       60.067       54.071       38.095     3608.008     2923.620     1451.203        1.247        0.399      110.879       27.150        0.060      339.129       12.253      858.163
10/20/2014  08:48:00       83.917       70.257       45.366       47.713       33.011       39.174     2276.532     1089.747     1534.640        0.947        0.245      109.444       27.674        0.064      339.013       12.056      858.199
10/20/2014  08:49:00       78.311       64.244       31.100       40.892       32.182       38.202     1672.121     1035.709     1459.430        0.770        0.208      101.291       25.862        0.065      338.963       11.971      858.205
10/20/2014  08:50:00       32.658       32.702        0.479       39.043       22.419       14.520     1524.377      502.610      210.830        0.219        0.112       46.216       13.733        0.088      339.080       12.167      858.205
10/20/2014  08:51:00      -65.139        7.073      -12.077       24.761       16.342       14.480      613.083      267.069      209.658        0.276        0.054       65.522       10.418        0.025      339.141       12.270      858.192
10/20/2014  08:52:00      -76.582       -5.618      -11.930       27.552       21.110       17.544      759.124      445.637      307.783        0.378        0.076       76.787       16.937        0.049      339.208       12.383      858.178
10/20/2014  08:53:00      -30.814       -5.372       11.463       44.522       24.901       20.654     1982.224      620.059      426.599        0.207        0.151       31.279       23.289        0.554      339.342       12.610      858.188
10/20/2014  08:54:00       55.345       55.835       26.955       22.902       26.440       26.100      524.488      699.051      681.215        0.441        0.095       78.617       15.282        0.038      339.323       12.578      858.181
10/20/2014  08:55:00        1.649       55.101       72.719       25.459       35.948       20.644      648.186     1292.261      426.164        0.535        0.118       55.125       20.628        0.140      339.553       12.966      858.201
10/20/2014  08:56:00       14.624       75.966       89.859       35.685       35.247       28.403     1273.450     1242.383      806.728        0.869        0.166       77.361       21.622        0.078      339.440       12.774      858.219
10/20/2014  08:57:00       39.602       41.370       67.144       54.002       48.072       34.411     2916.187     2310.904     1184.122        0.710        0.321       57.269       34.238        0.357      339.315       12.564      858.233
10/20/2014  08:58:00       44.592       53.671       40.768       42.834       37.615       39.309     1834.718     1414.888     1545.172        0.566        0.240       69.778       30.457        0.191      339.451       12.793      858.247
10/20/2014  08:59:00       12.334       75.582       -9.557       23.727       27.620       17.892      562.980      762.847      320.133        0.380        0.082       76.582        6.419        0.007      339.388       12.686      858.252
10/20/2014  09:00:00       29.882       28.482       -3.900       11.790       14.245       17.854      139.009      202.929      318.764        0.119        0.033       41.282       11.762        0.081      339.395       12.699      858.261
10/20/2014  09:01:00       14.499       21.597       -6.889       19.954        9.278       14.301      398.173       86.076      204.523        0.071        0.034       26.012        9.818        0.142      339.437       12.770      858.282
10/20/2014  09:02:00       -1.479       -6.743        0.085       17.127       18.761       13.357      293.338      351.988      178.399        0.044        0.041        6.903        8.010        1.346      339.589       13.027      858.304
10/20/2014  09:03:00       20.221      -46.217       19.437       41.328       26.069       28.899     1708.041      679.605      835.171        0.307        0.161       50.447       22.269        0.195      339.402       12.712      858.318
10/20/2014  09:04:00       26.937      -11.085       16.592       45.045       38.004       36.740     2029.045     1444.312     1349.821        0.297        0.241       29.129       25.558        0.770      339.617       13.073      858.328
10/20/2014  09:05:00       18.202        4.794       36.352       33.054       38.457       32.381     1092.598     1478.923     1048.559        0.265        0.181       18.823       21.983        1.364      339.919       13.583      858.338
10/20/2014  09:06:00       10.867      -19.356       29.110       26.620       37.662       17.008      708.642     1418.439      289.260        0.188        0.121       22.198        5.089        0.053      339.744       13.288      858.321
10/20/2014  09:07:00       -9.541       42.754       -8.748       25.416       23.936       15.237      645.977      572.952      232.158        0.172        0.073       43.806        9.095        0.043      339.685       13.189      858.305
10/20/2014  09:08:00        4.023       78.335       -9.572       24.667       22.523       15.678      608.480      507.278      245.814        0.380        0.068       78.439        6.715        0.007      339.732       13.266      858.275
10/20/2014  09:09:00        3.463       30.628       10.198       18.671       29.905       23.861      348.618      894.335      569.325        0.143        0.091       30.823       24.220        0.617      340.139       13.953      858.262
10/20/2014  09:10:00      -27.551       41.299       -6.521       22.732       32.292       19.094      516.759     1042.781      364.590        0.222        0.096       49.645        9.655        0.038      339.925       13.591      858.273
10/20/2014  09:11:00      -41.793       -8.999        2.978       12.698       14.708        9.440      161.244      216.314       89.109        0.115        0.023       42.751        9.014        0.044      339.830       13.432      858.300
10/20/2014  09:12:00        2.596        8.023       13.210       26.881       12.402       17.241      722.579      153.811      297.245        0.071        0.059        8.432       16.646        3.897      340.260       14.158      858.316
10/20/2014  09:13:00        9.487      -11.347        7.750       20.339       16.016       13.036      413.664      256.528      169.930        0.056        0.042       14.791        5.637        0.145      340.155       13.980      858.318
10/20/2014  09:14:00       21.464      -14.063       25.642       25.759       24.717       26.097      663.531      610.938      681.063        0.164        0.098       25.661       22.085        0.741      340.255       14.150      858.301
10/20/2014  09:15:00       22.010       44.733       57.687       28.309       27.758       16.833      801.396      770.485      283.338        0.383        0.093       49.855       11.004        0.049      340.219       14.090      858.277
10/20/2014  09:16:00       28.681       57.085       46.938       33.592       34.552       18.441     1128.392     1193.857      340.053        0.447        0.133       63.885       11.997        0.035      340.331       14.279      858.273
10/20/2014  09:17:00        5.781       42.547       54.168       23.908       27.092       15.203      571.605      733.950      231.119        0.316        0.077       42.938       13.799        0.103      340.485       14.538      858.276
10/20/2014  09:18:00       12.094       14.191        2.261       20.942       20.882       20.929      438.571      436.052      438.025        0.083        0.066       18.645        9.676        0.269      340.300       14.226      858.296
10/20/2014  09:19:00      102.192       47.984       11.545       36.638       27.221       29.194     1342.316      740.996      852.297        0.791        0.147      112.897       15.996        0.020      340.040       13.788      858.300
10/20/2014  09:20:00       14.272       24.833       25.508       38.700       45.375       28.818     1497.703     2058.909      830.467        0.293        0.219       28.642       34.365        1.440      340.223       14.095      858.324
10/20/2014  09:21:00       67.019       18.063       10.796       42.308       41.263       20.351     1790.000     1702.670      414.157        0.442        0.195       69.411       11.270        0.026      340.224       14.097      858.336
10/20/2014  09:22:00       49.211       63.710       46.378       41.726       38.684       33.363     1741.032     1496.482     1113.092        0.649        0.218       80.502       31.417        0.152      340.512       14.585      858.321
10/20/2014  09:23:00       12.686       63.870       91.365       35.269       41.824       18.726     1243.927     1749.226      350.664        0.797        0.167       65.118       14.905        0.052      340.527       14.611      858.308
10/20/2014  09:24:00       29.977      -10.402       47.629       44.499       86.953       50.315     1980.189     7560.848     2531.628        0.767        0.604       31.731       61.035        3.700      340.561       14.666      858.303
10/20/2014  09:25:00       82.839       -2.083       50.405       69.702       96.153       59.756     4858.410     9245.416     3570.721        1.354        0.884       82.865       66.803        0.650      340.485       14.537      858.316
10/20/2014  09:26:00       92.250       81.148       54.559       53.563       57.433       60.529     2868.958     3298.526     3663.803        1.395        0.492      122.862       51.168        0.173      340.249       14.140      858.297
10/20/2014  09:27:00       79.100       21.610       30.753       74.695       76.426       41.514     5579.283     5840.964     1723.437        1.040        0.657       81.999       42.751        0.272      340.429       14.442      858.298
10/20/2014  09:28:00       34.364      -66.772       -5.754       44.012       55.976       38.522     1937.051     3133.281     1483.963        0.611        0.328       75.096       35.980        0.230      340.501       14.565      858.321
10/20/2014  09:29:00       43.429       -8.694       21.268       44.570       37.974       33.028     1986.440     1442.046     1090.854        0.347        0.226       44.290       29.132        0.433      340.784       15.044      858.313
10/20/2014  09:30:00       10.303      -15.662       29.651       29.161       42.509       32.493      850.336     1807.031     1055.778        0.247        0.186       18.747       23.159        1.526      340.891       15.224      858.318
10/20/2014  09:31:00       27.105       23.978       21.950       36.953       28.686       33.760     1365.495      822.871     1139.709        0.256        0.166       36.189       28.409        0.616      340.947       15.319      858.340
10/20/2014  09:32:00       -1.613        5.984        8.487       85.673       48.166       28.457     7339.843     2320.009      809.793        0.529        0.523        6.197       30.590       24.365      341.260       15.849      858.289
10/20/2014  09:33:00      -26.298      -17.939       26.850       37.757       47.570       19.266     1425.558     2262.927      371.189        0.290        0.203       31.834       14.792        0.216      341.767       16.707      858.280
10/20/2014  09:34:00      -75.657       25.925       -2.939       25.789       26.100       14.410      665.051      681.212      207.640        0.398        0.078       79.976        9.635        0.015      341.615       16.450      858.297
10/20/2014  09:35:00       -1.990       -4.220        8.615       24.288       20.387       21.895      589.894      415.639      479.391        0.079        0.074        4.665       21.850       21.934      341.820       16.799      858.301
10/20/2014  09:36:00       46.630       58.993        2.597       76.352       71.461       32.613     5829.559     5106.703     1063.592        0.883        0.600       75.196       20.524        0.074      341.572       16.379      858.271
10/20/2014  09:37:00       40.026       28.636       14.515       61.429       48.242       45.081     3773.574     2327.312     2032.285        0.538        0.407       49.215       33.057        0.451      341.777       16.726      858.255
10/20/2014  09:38:00      -90.361     -103.143      -14.212       56.042       69.312       31.929     3140.738     4804.197     1019.437        1.398        0.448      137.126       17.260        0.016      341.598       16.422      858.274
10/20/2014  09:39:00     -128.356      -70.809       -7.371       43.337       46.370       24.047     1878.136     2150.189      578.262        1.307        0.230      146.592       15.667        0.011      341.710       16.612      858.280
10/20/2014  09:40:00      -74.103     -112.339       -1.719       46.403       38.263       23.129     2153.195     1464.048      534.968        1.113        0.208      134.578       22.701        0.028      341.730       16.645      858.290
10/20/2014  09:41:00      -25.080      -25.084       13.956       47.719       35.069       26.512     2277.115     1229.868      702.894        0.283        0.210       35.471       27.350        0.595      342.157       17.370      858.284
10/20/2014  09:42:00      -32.990      -15.744       24.847       40.571       60.838       30.581     1646.022     3701.279      935.185        0.412        0.314       36.554        8.930        0.060      342.165       17.383      858.271
10/20/2014  09:43:00      -88.006      -94.088        2.733       68.771       70.791       43.929     4729.458     5011.323     1929.794        1.414        0.584      128.832       33.413        0.067      342.186       17.419      858.231
10/20/2014  09:44:00      -80.705      -72.713        4.104       47.940       68.100       27.434     2298.277     4637.565      752.609        0.975        0.384      108.630       19.190        0.031      342.191       17.428      858.236
10/20/2014  09:45:00      -60.759      -70.420       21.335       99.137       50.389       37.707     9828.047     2539.028     1421.812        1.145        0.689       93.009       41.602        0.200      342.294       17.603      858.308
10/20/2014  09:46:00      -34.660      -50.431       13.830       43.041       48.708       23.626     1852.497     2372.501      558.167        0.436        0.239       61.194       20.259        0.110      342.274       17.568      858.334
10/20/2014  09:47:00      -11.934      -19.040       24.236       30.584       57.845       27.908      935.358     3345.989      778.877        0.308        0.253       22.471       31.694        1.989      342.622       18.160      858.314
10/20/2014  09:48:00        6.016       22.205       34.039       19.057       19.761       18.314      363.156      390.507      335.409        0.139        0.054       23.006       11.910        0.268      342.547       18.033      858.291
10/20/2014  09:49:00       57.688      -39.173        3.057       27.121       42.762       28.893      735.533     1828.587      834.779        0.413        0.170       69.731       20.353        0.085      341.762       16.701      858.266
10/20/2014  09:50:00       31.532      -41.723       17.175       36.387       55.601       38.198     1324.008     3091.520     1459.073        0.445        0.294       52.298       29.274        0.313      342.142       17.345      858.269
10/20/2014  09:51:00       37.513       31.935       49.454       38.162       27.240       26.657     1456.332      741.992      710.592        0.389        0.145       49.265       17.961        0.133      342.236       17.504      858.279
10/20/2014  09:52:00     -113.742       57.111       -9.638      109.637       37.856       28.779    12020.227     1433.062      828.236        1.528        0.714      127.275       42.647        0.112      342.199       17.439      858.289
10/20/2014  09:53:00     -121.581      -30.961       -5.734       75.599       91.218       36.197     5715.204     8320.693     1310.226        1.556        0.767      125.461        8.514        0.005      342.516       17.979      858.302
10/20/2014  09:54:00     -106.698      -27.045       -6.671       64.515       48.291       35.178     4162.180     2331.977     1237.482        0.994        0.387      110.072       26.317        0.057      342.693       18.282      858.303
10/20/2014  09:55:00      -98.586     -102.187        7.821      140.998      100.934       60.297    19880.334    10187.584     3635.669        2.696        1.685      141.991       71.685        0.255      342.702       18.295      858.325
10/20/2014  09:56:00     -348.297      -55.974      -32.552      155.878      147.340       50.701    24298.047    21709.048     2570.543        8.703        2.429      352.766       63.459        0.032      342.595       18.110      858.318
10/20/2014  09:57:00     -159.999      -76.592       -8.987      110.190      110.100       56.263    12141.897    12122.001     3165.535        2.948        1.371      177.387       52.185        0.087      342.700       18.292      858.315
10/20/2014  09:58:00     -174.859      -60.294        4.755      109.545      127.050       62.746    12000.032    16141.624     3937.071        3.315        1.604      184.963       58.284        0.099      342.709       18.306      858.300
10/20/2014  09:59:00     -177.456     -167.247       15.267      130.326      161.677       76.935    16984.748    26139.540     5919.005        5.436        2.452      243.849       69.532        0.081      342.694       18.282      858.296
10/20/2014  10:00:00     -203.063     -128.994       -0.230      120.815      125.859       67.940    14596.263    15840.520     4615.859        4.646        1.753      240.570       65.249        0.074      342.653       18.210      858.294
10/20/2014  10:01:00     -186.525     -211.052       -7.537       70.525      101.893       48.949     4973.843    10382.129     2396.009        4.857        0.888      281.664       38.303        0.018      342.661       18.223      858.268
10/20/2014  10:02:00     -146.853     -160.559        2.987       85.699       87.725       53.218     7344.328     7695.707     2832.189        3.261        0.894      217.589       42.288        0.038      342.664       18.229      858.243
10/20/2014  10:03:00     -145.212     -138.837       11.609      101.654      122.909       44.713    10333.518    15106.649     1999.241        3.396        1.372      200.904       44.292        0.049      342.757       18.387      858.238
10/20/2014  10:04:00     -155.315     -167.088      -18.174      120.601       70.275       56.238    14544.619     4938.608     3162.671        3.750        1.132      228.125       52.673        0.053      342.787       18.440      858.248
10/20/2014  10:05:00     -274.598     -208.705       -3.803      169.133      124.123       58.114    28605.838    15406.412     3377.202        8.317        2.369      344.909       69.669        0.041      342.804       18.467      858.233
10/20/2014  10:06:00     -248.216     -180.712       -0.640      150.325      118.132       65.230    22597.587    13955.181     4254.895        6.753        2.040      307.031       57.028        0.034      342.825       18.503      858.220
10/20/2014  10:07:00     -229.260     -152.910        9.839      133.109      115.171       67.663    17717.892    13264.411     4578.222        5.579        1.778      275.575       72.381        0.069      342.927       18.676      858.217
10/20/2014  10:08:00     -163.618      -90.177       14.465      143.544      115.627       63.848    20604.931    13369.587     4076.559        3.658        1.903      186.823       66.884        0.128      342.948       18.714      858.235
10/20/2014  10:09:00     -177.583      -49.655        2.163      126.606      141.201       65.330    16029.063    19937.688     4267.951        3.711        2.012      184.394       67.223        0.133      342.933       18.687      858.239
10/20/2014  10:10:00     -119.676      -19.696        3.912      110.008       99.854       51.309    12101.798     9970.853     2632.648        1.971        1.235      121.286       46.001        0.144      343.094       18.962      858.248
10/20/2014  10:11:00     -150.811     -167.321        2.314      118.705       97.398       60.711    14090.794     9486.404     3685.838        3.900        1.363      225.256       63.533        0.080      342.906       18.643      858.239
10/20/2014  10:12:00     -173.741     -121.050       15.628      165.797      119.786       70.960    27488.610    14348.681     5035.281        4.597        2.344      211.752       93.278        0.194      343.091       18.957      858.228
10/20/2014  10:13:00     -241.279        3.519      -11.297      161.811      131.526       61.389    26182.835    17299.065     3768.616        5.280        2.363      241.304       76.257        0.100      342.971       18.751      858.196
10/20/2014  10:14:00     -345.334      -41.625       -7.886      151.291      115.748       77.302    22888.880    13397.635     5975.655        8.165        2.113      347.834       83.302        0.057      342.868       18.576      858.174
10/20/2014  10:15:00     -293.783      -17.708       -9.725      157.155       88.626       67.285    24697.562     7854.558     4527.303        6.189        1.854      294.316       76.492        0.068      342.998       18.798      858.161
10/20/2014  10:16:00     -107.181      -13.363        8.603       74.324       82.527       51.996     5524.028     6810.752     2703.573        1.339        0.752      108.011       45.443        0.177      343.170       19.092      858.162
10/20/2014  10:17:00     -102.667      -81.391        6.349      121.105       95.878       53.789    14666.518     9192.558     2893.211        2.197        1.338      131.015       44.333        0.115      343.085       18.948      858.142
10/20/2014  10:18:00     -136.850     -149.895       19.718      149.234      116.301       59.292    22270.706    13525.827     3515.532        4.044        1.966      202.969       73.111        0.130      343.054       18.894      858.118
10/20/2014  10:19:00     -171.145      -99.685        5.548       90.251      109.459       62.457     8145.307    11981.300     3900.880        3.164        1.201      198.060       61.337        0.096      342.978       18.764      858.112
10/20/2014  10:20:00     -149.414      -52.659        4.850      108.591       97.237       49.026    11792.041     9455.069     2403.557        2.438        1.183      158.422       44.219        0.078      343.071       18.921      858.105
10/20/2014  10:21:00     -185.006      -48.789       -5.534      161.388       86.368       53.719    26046.159     7459.396     2885.750        3.651        1.820      191.331       69.454        0.132      343.058       18.901      858.110
10/20/2014  10:22:00     -467.962     -177.644      -11.890      224.750      156.261       89.097    50512.479    24417.620     7938.270       16.676        4.143      500.545      104.259        0.043      342.960       18.731      858.092
10/20/2014  10:23:00     -307.441      -43.708       -3.642      243.489      116.738       77.846    59286.719    13627.796     6060.064        8.770        3.949      310.532      105.405        0.115      343.043       18.873      858.128
10/20/2014  10:24:00     -200.839      -85.470        2.957      163.825      145.381       58.685    26838.527    21135.518     3443.937        4.953        2.571      218.269       79.524        0.133      343.160       19.074      858.126
10/20/2014  10:25:00     -253.611     -182.253       -7.652      169.557      133.856       65.357    28749.537    17917.389     4271.538        7.426        2.547      312.305       70.441        0.051      343.029       18.850      858.144
10/20/2014  10:26:00     -137.913     -129.364       -4.960       71.798       74.474       39.278     5154.913     5546.328     1542.757        2.401        0.612      189.090       32.309        0.029      342.974       18.757      858.135
10/20/2014  10:27:00     -110.508      -98.050       -8.741       51.624       38.516       26.116     2665.083     1483.515      682.059        1.337        0.242      147.736       15.865        0.012      343.044       18.879      858.119
10/20/2014  10:28:00      -65.898     -136.655       -2.274       51.134       49.192       30.191     2614.708     2419.894      911.506        1.448        0.297      151.714       22.411        0.022      343.080       18.940      858.126
10/20/2014  10:29:00     -155.895      -84.349        4.884       69.690       57.547       36.582     4856.642     3311.709     1338.279        2.047        0.475      177.251       31.685        0.032      343.146       19.051      858.113
10/20/2014  10:30:00     -175.723     -120.129        5.023      132.202      107.733       73.317    17477.456    11606.310     5375.376        3.989        1.723      212.860       75.058        0.124      343.271       19.261      858.113
10/20/2014  10:31:00     -151.619     -184.293       16.146      127.509       93.827       69.756    16258.456     8803.526     4865.843        4.357        1.496      238.647       74.604        0.098      343.097       18.966      858.104
10/20/2014  10:32:00     -148.691     -126.166        9.467      107.112       66.103       47.692    11472.921     4369.564     2274.553        2.811        0.906      195.005       48.485        0.062      343.149       19.053      858.109
10/20/2014  10:33:00     -175.122      -91.865        1.411      110.644       75.516       47.430    12242.193     5702.742     2249.637        2.965        1.010      197.755       48.862        0.061      343.208       19.156      858.112
10/20/2014  10:34:00     -207.970     -136.293      -11.111       92.482      117.214       49.903     8553.004    13739.103     2490.260        4.336        1.239      248.650       50.188        0.041      343.159       19.070      858.060
10/20/2014  10:35:00     -183.013      -55.033      -12.392       90.020       94.902       49.727     8103.569     9006.331     2472.779        2.813        0.979      191.108       44.982        0.055      343.311       19.332      858.034
10/20/2014  10:36:00     -125.337      -43.796      -14.921      123.734      107.539       38.245    15309.993    11564.629     1462.664        2.309        1.417      132.768       50.394        0.144      343.409       19.498      858.026
10/20/2014  10:37:00      -27.993      -80.532        5.568       51.642       34.631       30.902     2666.862     1199.272      954.912        0.606        0.241       85.258       20.048        0.055      343.499       19.655      858.027
10/20/2014  10:38:00      -88.278     -189.167      -17.944      100.126      112.285       51.479    10025.229    12607.909     2650.054        3.459        1.264      208.751       55.043        0.070      343.482       19.623      858.036
10/20/2014  10:39:00      -64.387     -107.705       -3.092       88.316       85.686       45.588     7799.632     7342.124     2078.275        1.649        0.861      125.484       45.669        0.132      343.643       19.898      858.048
10/20/2014  10:40:00      -91.900      -79.678        4.244       97.659       77.629       43.312     9537.344     6026.277     1875.972        1.612        0.872      121.631       42.966        0.125      343.546       19.732      858.057
10/20/2014  10:41:00      -43.800      -66.702        6.724       66.509       49.042       34.326     4423.452     2405.092     1178.270        0.721        0.400       79.798       22.314        0.078      343.617       19.854      858.059
10/20/2014  10:42:00      -66.209     -158.637       16.536       78.928       71.667       38.698     6229.593     5136.193     1497.515        2.134        0.643      171.899       33.664        0.038      343.502       19.657      858.079
10/20/2014  10:43:00      -54.527     -241.268        2.437       72.376       85.549       40.790     5238.334     7318.627     1663.823        3.770        0.711      247.353       34.295        0.019      343.413       19.504      858.098
10/20/2014  10:44:00      -68.306     -158.802       -2.657      128.387       87.948       54.184    16483.131     7734.886     2935.865        2.852        1.358      172.870       34.403        0.040      343.584       19.797      858.116
10/20/2014  10:45:00      -51.633     -119.895      -19.494       63.699       66.725       43.427     4057.534     4452.260     1885.943        1.391        0.520      130.540       33.296        0.065      343.399       19.483      858.113
10/20/2014  10:46:00       72.855     -221.097      -38.284      121.649      115.740       62.893    14798.585    13395.679     3955.512        4.390        1.607      232.792       62.778        0.073      343.487       19.630      858.113
10/20/2014  10:47:00       -0.894     -154.596       -4.928      107.922       92.021       64.231    11647.123     8467.881     4125.608        2.408        1.212      154.598       50.443        0.106      343.564       19.762      858.112
10/20/2014  10:48:00      -30.417      -70.602       18.874       63.601       73.214       49.710     4045.114     5360.276     2471.097        0.907        0.594       76.876       32.191        0.175      343.716       20.023      858.105
10/20/2014  10:49:00      -11.490      -10.974       22.576       37.995       40.420       28.219     1443.586     1633.793      796.307        0.232        0.194       15.888       26.124        2.704      344.027       20.554      858.102
10/20/2014  10:50:00      -51.528      -32.978       12.039       65.505       64.437       46.466     4290.919     4152.072     2159.054        0.724        0.530       61.177       38.598        0.398      343.600       19.826      858.079
10/20/2014  10:51:00      -96.078     -133.057        5.272       98.752       82.135       51.942     9752.036     6746.101     2697.946        2.308        0.960      164.119       38.827        0.056      343.602       19.828      858.119
10/20/2014  10:52:00     -189.241     -126.702       -1.951      109.252       89.431       45.262    11935.967     7997.825     2048.652        3.692        1.099      227.740       36.276        0.025      343.346       19.390      858.122
10/20/2014  10:53:00       76.209        1.401       50.145       99.272      118.685       68.457     9855.001    14086.233     4686.323        1.847        1.431       76.222       81.866        1.154      343.534       19.712      858.040
10/20/2014  10:54:00      -15.548     -162.377        3.086       51.785       60.060       44.592     2681.703     3607.182     1988.408        1.745        0.414      163.120       23.165        0.020      343.350       19.399      858.012
10/20/2014  10:55:00       32.227      -80.542       33.468       69.721       91.631       57.480     4860.988     8396.215     3303.900        1.260        0.828       86.750       59.172        0.465      343.527       19.701      858.011
10/20/2014  10:56:00       74.575     -172.209      -27.387       67.518      109.428       43.282     4558.704    11974.555     1873.347        2.718        0.920      187.663       36.490        0.038      343.729       20.045      858.030
10/20/2014  10:57:00       62.097     -125.335      -25.945       76.570       72.372       42.726     5862.925     5237.737     1825.548        1.658        0.646      139.875       36.826        0.069      343.778       20.128      858.028
10/20/2014  10:58:00      -27.538      -48.424       13.761       39.299       62.524       44.940     1544.387     3909.195     2019.635        0.538        0.374       55.706       27.462        0.243      343.971       20.459      858.024
10/20/2014  10:59:00      -28.108      -49.775       19.507       74.025       58.876       53.337     5479.637     3466.367     2844.879        0.772        0.590       57.163       43.516        0.580      344.076       20.637      858.042
10/20/2014  11:00:00      -33.092      -59.698      -14.137       57.514       44.857       32.312     3307.822     2012.194     1044.057        0.561        0.318       68.257       22.270        0.106      343.850       20.253      858.040
10/20/2014  11:01:00        5.458     -199.095      -24.285      108.085      138.079       44.228    11682.368    19065.706     1956.158        3.648        1.635      199.170       44.450        0.050      343.674       19.950      858.035
10/20/2014  11:02:00      -51.468     -204.374       -8.031       66.703       90.991       45.717     4449.329     8279.319     2090.049        2.965        0.741      210.755       28.876        0.019      343.576       19.782      858.034
10/20/2014  11:03:00      -14.073      -49.549       11.731       76.159       59.595       44.428     5800.193     3551.526     1973.815        0.706        0.566       51.509       30.676        0.355      343.724       20.038      857.999
10/20/2014  11:04:00      106.135      -98.874       14.985       76.461      125.065       80.071     5846.302    15641.310     6411.329        2.458        1.395      145.054       90.137        0.386      343.833       20.220      857.969
10/20/2014  11:05:00      175.653     -129.169      -12.345       78.653      109.768       65.522     6186.352    12049.075     4293.147        3.511        1.126      218.034       68.479        0.099      343.591       19.808      857.935
10/20/2014  11:06:00       53.984       -6.208       62.668       85.818       89.074       69.814     7364.767     7934.215     4874.045        1.352        1.009       54.340       51.244        0.889      343.811       20.185      857.917
10/20/2014  11:07:00       62.468      -81.691       11.697       78.835       96.460       66.542     6214.996     9304.473     4427.821        1.533        0.997      102.838       62.985        0.375      343.938       20.404      857.913
10/20/2014  11:08:00      214.202     -225.453      -49.312       99.438      113.767       61.284     9887.931    12942.858     3755.736        6.286        1.329      310.985       39.568        0.016      343.716       20.021      857.894
10/20/2014  11:09:00      106.039     -227.890      -11.562      102.847      139.959       82.176    10577.533    19588.598     6752.922        5.011        1.846      251.353       76.386        0.092      343.620       19.857      857.947
10/20/2014  11:10:00       56.777     -112.863       -8.309       79.068       88.556       54.838     6251.736     7842.157     3007.232        1.656        0.855      126.340       42.233        0.112      343.757       20.092      857.977
10/20/2014  11:11:00        2.380      -99.914       -7.967       56.433       71.369       49.094     3184.717     5093.524     2410.248        1.037        0.534       99.942       42.985        0.185      343.797       20.161      857.960
10/20/2014  11:12:00      -46.937     -162.309       -1.651       46.390       75.285       28.035     2151.990     5667.781      785.955        1.858        0.430      168.960       19.043        0.013      343.488       19.634      857.968
10/20/2014  11:13:00      -70.370     -113.513        1.891       33.956       81.320       33.888     1152.999     6612.865     1148.424        1.338        0.446      133.555       41.178        0.095      343.538       19.722      857.946
10/20/2014  11:14:00      -37.611       -5.043        7.743       28.970       38.673       28.071      839.277     1495.631      787.955        0.231        0.156       37.948       19.950        0.276      343.730       20.047      857.941
10/20/2014  11:15:00        6.499      -71.796       -3.603       52.408       47.152       30.594     2746.643     2223.339      935.979        0.556        0.295       72.090       21.364        0.088      343.755       20.090      857.943
10/20/2014  11:16:00       83.819      -98.823       38.906      120.593      146.751       90.636    14542.631    21535.726     8214.801        3.129        2.215      129.582       92.261        0.507      343.893       20.323      857.915
10/20/2014  11:17:00       10.792       27.511      110.401       58.178      100.816       60.391     3384.690    10163.792     3647.015        1.513        0.860       29.552       41.827        2.003      344.042       20.580      857.924
10/20/2014  11:18:00       19.425      -47.079       26.942       44.674       57.873       44.081     1995.801     3349.245     1943.114        0.530        0.364       50.929       36.603        0.517      343.977       20.469      857.949
10/20/2014  11:19:00      132.160     -274.960      -16.940      117.728      137.253       88.661    13859.863    18838.504     7860.737        6.695        2.028      305.072       92.444        0.092      343.748       20.074      857.940
10/20/2014  11:20:00       80.526     -154.550       -7.723      108.264       99.127       66.756    11721.084     9826.181     4456.392        2.821        1.300      174.271       60.305        0.120      343.804       20.171      857.952
10/20/2014  11:21:00      -44.777     -170.189        4.396       76.395      119.931       50.195     5836.140    14383.436     2519.503        2.686        1.137      175.981       47.967        0.074      343.748       20.077      857.970
10/20/2014  11:22:00      -90.477     -105.514       13.861       75.806      131.581       42.480     5746.557    17313.464     1804.580        2.218        1.243      138.994       39.470        0.081      343.570       19.772      857.956
10/20/2014  11:23:00        7.260       19.704       21.016       31.298       26.982       26.071      979.552      728.038      679.720        0.163        0.119       20.999       18.894        0.810      343.900       20.339      857.930
10/20/2014  11:24:00      -21.863      -33.500       11.770       26.931       51.003       26.550      725.271     2601.265      704.887        0.288        0.202       40.003       19.101        0.228      344.068       20.625      857.877
10/20/2014  11:25:00       70.282     -124.900        2.009       77.171      124.711       49.424     5955.424    15552.918     2442.753        2.224        1.198      143.317       41.623        0.084      343.990       20.489      857.836
10/20/2014  11:26:00       64.766      -12.153       11.072       49.650       55.272       32.040     2465.116     3054.981     1026.584        0.550        0.327       65.896       26.069        0.157      343.875       20.296      857.806
10/20/2014  11:27:00       38.412        7.908       25.676       36.674       34.721       27.117     1344.956     1205.516      735.336        0.274        0.164       39.218       17.422        0.197      343.964       20.449      857.796
10/20/2014  11:28:00       48.570      -49.334       42.751       65.361      119.129       62.876     4272.059    14191.616     3953.336        1.452        1.121       69.231       80.169        1.341      343.940       20.405      857.786
10/20/2014  11:29:00      -12.996      -98.842        3.323       85.028      134.004       74.529     7229.808    17957.038     5554.529        2.034        1.537       99.693       78.449        0.619      344.132       20.733      857.720
10/20/2014  11:30:00     -204.489     -202.444        6.068      154.719      127.687       70.418    23938.084    16304.081     4958.643        6.401        2.260      287.748       79.226        0.076      343.777       20.125      857.734
10/20/2014  11:31:00     -231.634     -105.028       -9.174      120.701      108.028       49.353    14568.762    11670.006     2435.743        4.672        1.434      254.333       40.164        0.025      343.710       20.009      857.735
10/20/2014  11:32:00     -151.403     -124.799        2.125      149.873      106.840       55.247    22461.916    11414.779     3052.184        3.771        1.846      196.208       68.337        0.121      343.804       20.172      857.691
10/20/2014  11:33:00     -159.341     -189.941       -7.245      135.588      119.340       52.909    18384.220    14241.953     2799.319        4.847        1.771      247.926       37.975        0.023      343.727       20.039      857.678
10/20/2014  11:34:00       -7.498     -187.995       11.015      123.560      130.137       73.239    15267.055    16935.651     5363.892        3.654        1.878      188.144       53.849        0.082      344.059       20.607      857.685
10/20/2014  11:35:00     -104.185     -144.875        1.347      127.608      102.641       60.838    16283.889    10535.260     3701.274        3.118        1.526      178.447       53.826        0.091      344.100       20.679      857.714
10/20/2014  11:36:00     -155.127     -138.476       20.086      167.941      158.720       75.610    28204.209    25191.890     5716.889        5.137        2.956      207.942       69.114        0.110      343.933       20.390      857.701
10/20/2014  11:37:00      -83.570     -160.179       -5.940      126.569      161.180       66.170    16019.663    25978.906     4378.433        3.952        2.319      180.669       57.153        0.100      343.882       20.305      857.689
10/20/2014  11:38:00     -121.042     -273.258       21.042      115.135      179.642       88.010    13256.010    32271.256     7745.690        7.151        2.664      298.866       82.763        0.077      343.880       20.301      857.666
10/20/2014  11:39:00       13.564     -268.942      -16.823      116.094      145.512       72.753    13477.858    21173.880     5293.044        5.636        1.997      269.284       70.287        0.068      343.951       20.422      857.660
10/20/2014  11:40:00      111.392     -175.539       19.652      133.600      142.964       68.271    17848.892    20438.829     4660.956        4.327        2.147      207.899       52.939        0.065      344.137       20.740      857.638
10/20/2014  11:41:00       92.886     -217.870       37.746      202.752      263.910      132.446    41108.199    69648.609    17541.896        9.289        6.415      236.844      141.354        0.356      344.015       20.531      857.555
10/20/2014  11:42:00      -47.189     -190.525       17.846      126.576      153.198       83.939    16021.427    23469.512     7045.789        4.268        2.327      196.282       80.690        0.169      344.147       20.759      857.602
10/20/2014  11:43:00      116.983     -116.197       65.486      159.392      243.271      147.566    25405.696    59180.659    21775.751        6.890        5.318      164.884      170.443        1.069      344.057       20.604      857.562
10/20/2014  11:44:00      -65.903     -345.708        1.993      147.428      212.049       95.689    21735.012    44964.683     9156.448        9.985        3.793      351.933       81.929        0.054      344.007       20.517      857.539
10/20/2014  11:45:00      -88.724     -457.094        1.590      125.610      183.928       88.457    15777.942    33829.576     7824.606       13.711        2.872      465.625       75.202        0.026      343.819       20.196      857.616
10/20/2014  11:46:00      -88.056     -370.954      -18.802      105.684      162.353       66.888    11169.193    26358.399     4474.055        9.385        2.100      381.262       64.393        0.029      343.826       20.209      857.624
10/20/2014  11:47:00       85.408     -246.786        6.198      148.068      222.232      102.110    21924.055    49386.863    10426.371        7.497        4.087      261.147      115.544        0.196      343.850       20.249      857.602
10/20/2014  11:48:00       -5.932     -378.398        2.736      112.110      277.900       77.938    12568.682    77228.192     6074.396       11.953        4.794      378.445      102.477        0.073      343.858       20.263      857.560
10/20/2014  11:49:00       -2.551     -122.724       19.996       85.052      153.708       58.904     7233.817    23626.268     3469.727        2.489        1.716      122.750       59.138        0.232      344.064       20.616      857.517
10/20/2014  11:50:00      112.279     -133.710       33.070       90.224      122.450       70.288     8140.368    14994.065     4940.449        2.982        1.404      174.599       70.865        0.165      344.079       20.641      857.480
10/20/2014  11:51:00      -34.316     -351.597      -20.476      146.805      212.192       82.363    21551.763    45025.619     6783.699        9.928        3.668      353.267       66.070        0.035      343.948       20.416      857.520
10/20/2014  11:52:00      -16.650     -317.663       28.629      196.773      189.894      110.208    38719.775    36059.550    12145.787        9.445        4.346      318.099      106.515        0.112      343.937       20.397      857.530
10/20/2014  11:53:00       41.408     -212.232       -0.967      117.972      173.490       94.648    13917.439    30098.938     8958.157        4.986        2.649      216.234       65.639        0.092      343.965       20.446      857.486
10/20/2014  11:54:00      120.709     -283.750      -32.930      156.071      189.047       88.897    24358.251    35738.934     7902.666        8.207        3.400      308.358       83.481        0.073      343.992       20.492      857.417
10/20/2014  11:55:00       -7.847     -221.675        4.658      115.704      132.514       76.570    13387.433    17559.906     5862.960        4.301        1.841      221.814       70.744        0.102      344.102       20.679      857.394
10/20/2014  11:56:00       77.016     -279.385       16.696      183.776      208.934      117.574    33773.487    43653.220    13823.689        8.774        4.563      289.806      118.349        0.167      344.080       20.641      857.328
10/20/2014  11:57:00       34.003     -350.071      -14.457      252.880      195.671       95.144    63948.152    38287.035     9052.375       11.758        5.564      351.719       95.022        0.073      343.981       20.472      857.350
10/20/2014  11:58:00       75.949     -268.335       44.755      254.327      238.553      107.003    64682.130    56907.388    11449.696       10.638        6.652      278.876      105.769        0.144      343.861       20.269      857.335
10/20/2014  11:59:00       51.582     -332.385       -0.987      138.994      221.640       90.777    19319.242    49124.133     8240.444        9.490        3.834      336.363       84.544        0.063      343.949       20.419      857.329
10/20/2014  12:00:00       50.084     -171.642       35.194      150.893      138.576       83.601    22768.629    19203.441     6989.082        4.108        2.448      178.800       84.779        0.225      344.005       20.513      857.284
10/20/2014  12:01:00       70.203     -132.376       68.217      177.928      231.881      168.326    31658.241    53768.715    28333.555        7.041        5.688      149.840      170.515        1.295      344.028       20.554      857.268
10/20/2014  12:02:00       13.300     -362.800       14.445      202.780      273.890      121.051    41119.555    75015.959    14653.374       13.138        6.539      363.044      107.647        0.088      343.843       20.238      857.223
10/20/2014  12:03:00      -79.641     -267.207       13.725      210.221      251.693       93.499    44193.044    63349.439     8742.010        9.709        5.814      278.823       64.078        0.053      343.774       20.120      857.265
10/20/2014  12:04:00     -199.971     -150.293      -10.565      245.666      143.947       87.432    60351.947    20720.696     7644.270        7.569        4.436      250.153       69.083        0.076      343.928       20.382      857.194
10/20/2014  12:05:00      -93.309     -244.379      -32.989      166.036      104.961       70.557    27568.052    11016.865     4978.346        5.653        2.178      261.587       27.432        0.011      343.990       20.489      857.247
10/20/2014  12:06:00       70.544     -255.752      -31.146      165.483      153.491       76.387    27384.567    23559.387     5835.004        6.406        2.839      265.302       56.830        0.046      344.097       20.671      857.208
10/20/2014  12:07:00      -50.365     -257.102      -23.508      205.172      115.670       82.823    42095.653    13379.456     6859.630        6.575        3.117      261.988       60.920        0.054      343.975       20.462      857.224
10/20/2014  12:08:00      -12.545     -256.665       -0.587      141.313      195.978       85.661    19969.280    38407.512     7337.746        6.586        3.286      256.972       72.017        0.079      344.055       20.600      857.256
10/20/2014  12:09:00       32.215     -262.688       -8.532      108.116      135.246       82.030    11689.060    18291.405     6728.849        5.341        1.835      264.656       75.806        0.082      344.090       20.658      857.257
10/20/2014  12:10:00      -20.148      -95.496       11.539       93.282       66.504       52.728     8701.602     4422.810     2780.216        1.278        0.795       97.598       29.767        0.093      344.224       20.891      857.262
10/20/2014  12:11:00      -97.226      -42.736        2.731      101.560       78.304       47.911    10314.394     6131.445     2295.440        1.501        0.937      106.204       34.038        0.103      344.175       20.809      857.233
10/20/2014  12:12:00       55.442     -106.138       42.987      134.541      190.333       92.385    18101.290    36226.473     8534.987        3.951        3.143      119.746       97.465        0.662      344.259       20.947      857.203
10/20/2014  12:13:00       -5.764     -308.838       -1.395      166.184      180.971      102.611    27617.187    32750.329    10529.077        8.314        3.545      308.892       80.235        0.067      343.935       20.395      857.175
10/20/2014  12:14:00      -19.299     -330.999      -21.666      146.127      161.025      108.095    21353.231    25929.076    11684.556        8.467        2.948      331.561       62.677        0.036      344.011       20.524      857.236
10/20/2014  12:15:00       -4.562     -225.354       -8.720      115.909      191.444       82.759    13434.936    36650.847     6849.054        5.390        2.847      225.400       80.168        0.127      344.002       20.511      857.214
10/20/2014  12:16:00     -371.560     -407.106      -54.738      290.078      292.423       78.159    84145.118    85511.104     6108.785       24.125        8.788      551.173       63.068        0.013      343.658       19.923      857.231
10/20/2014  12:17:00     -120.285     -231.060        4.717      148.644      192.177       62.561    22095.149    36932.048     3913.857        6.540        3.147      260.494       59.802        0.053      343.859       20.265      857.164
10/20/2014  12:18:00       72.435     -170.768       28.119      241.881      206.926      123.509    58506.321    42818.353    15254.510        7.587        5.829      185.496      119.429        0.415      344.079       20.642      857.136
10/20/2014  12:19:00     -274.910     -251.174        6.104      152.112      236.598       67.299    23138.190    55978.481     4529.107       11.116        4.182      372.376       94.965        0.065      344.027       20.552      857.160
10/20/2014  12:20:00      -51.922     -167.527        4.338      109.894      171.187       71.241    12076.658    29305.099     5075.285        3.861        2.323      175.389       35.534        0.041      344.165       20.788      857.156
10/20/2014  12:21:00      -74.423     -346.129      -14.428      171.375      180.411       95.515    29369.465    32548.064     9123.121        9.828        3.552      354.040       69.945        0.039      344.026       20.549      857.171
10/20/2014  12:22:00        8.748     -212.442        4.271      127.705      148.721       69.458    16308.661    22118.054     4824.483        4.423        2.163      212.622       65.921        0.096      344.178       20.808      857.189
10/20/2014  12:23:00      -76.775     -214.949      -13.976      160.352      142.892       83.032    25712.679    20418.045     6894.366        5.265        2.651      228.249       82.466        0.131      344.100       20.677      857.142
10/20/2014  12:24:00       16.403     -300.055      -16.052      156.235      151.353       92.626    24409.229    22907.868     8579.540        7.322        2.795      300.503       72.284        0.058      343.940       20.404      857.169
10/20/2014  12:25:00       -1.615     -275.883      -12.210       89.017      122.490       65.214     7924.017    15003.897     4252.895        5.172        1.359      275.887       36.237        0.017      343.980       20.470      857.143
10/20/2014  12:26:00       57.812     -194.461       -9.454      120.646      125.283       93.452    14555.496    15695.737     8733.203        4.011        1.949      202.873       85.598        0.178      343.991       20.491      857.182
10/20/2014  12:27:00        2.588     -213.058        1.309      169.997      157.377       85.651    28898.840    24767.613     7336.044        5.319        3.050      213.074       86.772        0.166      344.050       20.591      857.125
10/20/2014  12:28:00       -4.765     -173.845        6.283      170.039      220.633      131.388    28913.426    48678.897    17262.807        6.255        4.743      173.910      140.512        0.653      344.099       20.676      857.123
10/20/2014  12:29:00      -73.339     -398.708      -22.126      155.890      184.399      109.889    24301.827    34002.966    12075.667       11.760        3.519      405.397       66.197        0.027      343.902       20.339      857.175
10/20/2014  12:30:00      -29.481     -375.103      -25.137      172.132      203.636       79.072    29629.262    41467.776     6252.433       10.976        3.867      376.260       59.836        0.025      343.956       20.430      857.204
10/20/2014  12:31:00      -17.044     -292.999       10.637      192.458      231.628       99.660    37040.145    53651.388     9932.197        9.342        5.031      293.494      113.351        0.149      343.921       20.370      857.214
10/20/2014  12:32:00      -73.749     -114.990       13.519       97.624      110.242       63.569     9530.504    12153.327     4040.968        2.228        1.286      136.607       73.150        0.287      344.134       20.735      857.174
10/20/2014  12:33:00      -31.271     -142.844       15.136      121.851      147.928       75.990    14847.575    21882.567     5774.474        3.205        2.125      146.227       72.144        0.243      344.300       21.019      857.141
10/20/2014  12:34:00       15.339     -137.888      -10.936      114.006       92.377       50.152    12997.276     8533.568     2515.244        2.170        1.202      138.739       39.278        0.080      344.133       20.732      857.148
10/20/2014  12:35:00       44.452     -224.468        1.557      134.238      153.335       84.114    18019.774    23511.674     7075.088        5.048        2.430      228.827       82.275        0.129      344.120       20.710      857.145
10/20/2014  12:36:00      109.734     -242.338       -5.805      146.074      184.761      112.040    21337.592    34136.699    12552.939        6.940        3.401      266.025      109.869        0.171      344.182       20.816      857.152
10/20/2014  12:37:00       21.659      -32.937       34.729       62.198      101.928       51.760     3868.588    10389.306     2679.055        0.985        0.847       39.421       39.676        1.013      344.382       21.162      857.120
10/20/2014  12:38:00       86.331      -41.114       62.904      107.974      131.975       81.124    11658.320    17417.309     6581.106        2.437        1.783       95.621       87.824        0.844      344.269       20.967      857.057
10/20/2014  12:39:00     -143.362     -310.664      -13.583      155.563      197.731       73.593    24199.867    39097.614     5415.867        9.297        3.436      342.147       76.869        0.050      344.311       21.037      857.111
10/20/2014  12:40:00      -52.772     -284.593      -18.506      100.443      168.082       76.982    10088.711    28251.723     5926.158        6.419        2.213      289.444       59.641        0.042      344.207       20.858      857.138
10/20/2014  12:41:00       55.009     -347.857      -22.552      168.632      185.036       88.078    28436.712    34238.321     7757.816        9.747        3.522      352.180       91.394        0.067      344.121       20.711      857.153
10/20/2014  12:42:00        1.753     -227.863        3.123      103.726      158.205       74.528    10759.073    25028.958     5554.496        4.663        2.067      227.869       74.392        0.107      344.093       20.665      857.165
10/20/2014  12:43:00      -46.256     -183.771        9.301      103.246      115.377       53.009    10659.787    13311.791     2809.980        3.139        1.339      189.503       32.880        0.030      344.020       20.540      857.138
10/20/2014  12:44:00     -223.742     -235.343       -9.759      144.042      112.477       49.283    20748.099    12650.977     2428.786        7.068        1.791      324.726       51.907        0.026      343.839       20.230      857.049
10/20/2014  12:45:00     -119.289     -105.612        8.732       98.911       84.309       52.622     9783.440     7107.950     2769.069        2.256        0.983      159.322       51.775        0.106      343.954       20.427      857.016
10/20/2014  12:46:00      -33.687      -35.447       29.885       56.659       67.938       45.676     3210.215     4615.533     2086.328        0.660        0.496       48.901       26.719        0.299      344.180       20.815      856.962
10/20/2014  12:47:00      -46.887        8.462        0.998      106.104       90.621       40.750    11258.065     8212.098     1660.571        1.170        1.057       47.645       46.634        0.958      344.004       20.515      856.944
10/20/2014  12:48:00     -191.365     -249.709      -11.038      171.445      117.565       73.617    29393.517    13821.586     5419.471        7.386        2.432      314.603       31.982        0.010      344.276       20.976      856.951
10/20/2014  12:49:00     -271.274     -156.337        8.246      174.436      139.624       69.830    30427.775    19494.953     4876.261        7.644        2.740      313.099       81.218        0.067      344.142       20.748      856.995
10/20/2014  12:50:00     -275.995     -187.716        0.576      120.738      100.163       60.679    14577.779    10032.724     3681.916        6.985        1.415      333.782       60.402        0.033      343.972       20.456      856.966
10/20/2014  12:51:00     -175.233     -103.875        5.019      137.529       89.479       47.725    18914.097     8006.443     2277.691        3.536        1.460      203.707       54.570        0.072      344.063       20.614      856.954
10/20/2014  12:52:00      -16.157     -203.890       13.450      149.247      124.177       75.715    22274.733    15419.817     5732.768        4.271        2.171      204.529       79.614        0.152      344.203       20.852      857.015
10/20/2014  12:53:00       51.908     -283.700      -14.243      139.815      198.953       72.362    19548.338    39582.433     5236.189        7.386        3.218      288.409       70.424        0.060      343.980       20.473      857.013
10/20/2014  12:54:00       66.576     -213.139       11.429      108.109      121.268       76.405    11687.513    14706.005     5837.683        4.111        1.612      223.295       54.397        0.059      344.021       20.543      856.970
10/20/2014  12:55:00       23.819     -185.064      -11.106      128.233       92.350       64.275    16443.628     8528.471     4131.266        3.202        1.455      186.590       41.536        0.050      344.073       20.631      856.948
10/20/2014  12:56:00     -118.566     -159.349       -5.531      127.061      111.729       49.536    16144.393    12483.327     2453.819        3.528        1.554      198.620       53.367        0.072      344.185       20.824      856.924
10/20/2014  12:57:00       41.875     -190.688       -4.827      112.394      122.243       59.223    12632.339    14943.421     3507.331        3.461        1.554      195.232       62.335        0.102      344.053       20.596      856.898
10/20/2014  12:58:00     -236.456     -110.013       -2.165      137.104      105.636       56.750    18797.533    11159.066     3220.605        5.059        1.659      260.795       46.136        0.031      344.226       20.892      856.875
10/20/2014  12:59:00     -141.453     -251.054      -22.306      129.039      126.695       59.457    16651.008    16051.620     3535.173        5.988        1.812      288.162       55.575        0.037      344.218       20.877      856.828
10/20/2014  13:00:00      -16.885      -86.797       21.666       89.289      100.435       77.323     7972.516    10087.225     5978.869        1.616        1.202       88.424       68.388        0.598      344.532       21.416      856.808
10/20/2014  13:01:00       -6.436     -228.448      -18.144      114.848      172.407       74.763    13190.132    29724.109     5589.545        5.052        2.425      228.539       66.125        0.084      344.465       21.300      856.842
10/20/2014  13:02:00       37.361     -248.513       -0.756      113.673      146.849       77.130    12921.553    21564.553     5949.075        5.179        2.022      251.305       72.423        0.083      344.134       20.736      856.856
10/20/2014  13:03:00       80.275     -127.197       20.029      100.660      137.507       63.749    10132.400    18908.265     4063.907        2.806        1.655      150.410       78.100        0.270      344.234       20.907      856.807
10/20/2014  13:04:00       53.312     -104.239       35.107      124.863      127.761       80.440    15590.771    16322.941     6470.555        2.666        1.919      117.081       79.711        0.464      344.353       21.110      856.790
10/20/2014  13:05:00       -7.040     -217.361      -40.108      148.194       84.273       60.899    21961.433     7101.993     3708.723        4.083        1.639      217.475       54.928        0.064      344.253       20.938      856.807
10/20/2014  13:06:00      -47.494     -189.904      -11.313      137.537      130.357       70.599    18916.558    16992.995     4984.228        3.966        2.045      195.753       73.386        0.141      344.269       20.966      856.836
10/20/2014  13:07:00      -13.159     -110.582       22.651       93.447      140.415       90.582     8732.269    19716.433     8205.103        2.478        1.833      111.362       88.658        0.634      344.426       21.234      856.788
10/20/2014  13:08:00       62.295     -243.736      -18.481      136.700      153.306       79.958    18686.972    23502.789     6393.348        5.610        2.429      251.571       67.246        0.071      344.193       20.834      856.722
10/20/2014  13:09:00      174.551     -244.803       -5.654      151.824      174.168       97.595    23050.601    30334.444     9524.825        7.666        3.145      300.660      116.646        0.151      344.128       20.723      856.664
10/20/2014  13:10:00      -35.266     -255.149       12.960      124.413      136.311       73.374    15478.584    18580.825     5383.728        5.297        1.972      257.575       59.670        0.054      344.230       20.899      856.677
10/20/2014  13:11:00       10.207     -189.086      -11.213       91.306      114.108       57.644     8336.813    13020.652     3322.820        3.033        1.234      189.361       47.626        0.063      344.379       21.153      856.668
10/20/2014  13:12:00       63.360     -147.665      -19.213      122.995      115.474       73.064    15127.738    13334.253     5338.302        2.999        1.690      160.684       63.604        0.157      344.333       21.075      856.667
10/20/2014  13:13:00       90.642     -326.126      -24.430      171.895      218.593       83.056    29547.752    47782.796     6898.299        9.969        4.211      338.488       72.611        0.046      344.177       20.808      856.651
10/20/2014  13:14:00      -33.776     -291.837       -1.403      147.714      192.078       75.795    21819.400    36893.788     5744.917        7.537        3.223      293.785       69.214        0.056      344.144       20.753      856.695
10/20/2014  13:15:00      -32.948     -187.681      -31.735      134.824       90.075       63.949    18177.508     8113.490     4089.432        3.384        1.519      190.551       36.841        0.037      344.221       20.884      856.676
10/20/2014  13:16:00      -28.479     -168.606       15.602      115.679       98.556       63.250    13381.716     9713.253     4000.535        2.828        1.355      170.994       45.437        0.071      344.332       21.075      856.681
10/20/2014  13:17:00      -36.787      -96.428       10.556       85.586      101.685       58.045     7325.013    10339.759     3369.167        1.590        1.052      103.207       44.027        0.182      344.462       21.299      856.641
10/20/2014  13:18:00     -178.451      -91.737        3.861      111.153       59.722       46.783    12355.068     3566.753     2188.670        2.919        0.906      200.650       36.829        0.034      344.498       21.355      856.653
10/20/2014  13:19:00     -343.714     -117.390       -1.070      170.353      115.442       80.625    29020.248    13326.958     6500.348        9.038        2.442      363.207       78.463        0.047      344.132       20.729      856.617
10/20/2014  13:20:00     -263.355     -249.842        8.698      197.149      134.350       79.366    38867.640    18050.023     6298.892        9.752        3.161      363.011       90.590        0.062      344.239       20.913      856.616
10/20/2014  13:21:00     -241.698     -288.391      -19.086      140.833      171.236       78.897    19833.908    29321.680     6224.787        9.866        2.769      376.281       87.183        0.054      344.072       20.628      856.619
10/20/2014  13:22:00     -338.151     -225.921       -7.445      141.928      108.526       70.361    20143.483    11777.919     4950.660       10.115        1.844      406.677       70.089        0.030      344.084       20.649      856.554
10/20/2014  13:23:00     -232.573     -283.079       -8.986      122.638      153.685       66.004    15040.027    23619.065     4356.538        8.865        2.151      366.366       64.223        0.031      344.261       20.951      856.553
10/20/2014  13:24:00     -295.870     -139.620       -7.199      161.596      114.634       68.885    26113.226    13140.881     4745.109        7.553        2.200      327.159       65.416        0.040      344.244       20.924      856.536
10/20/2014  13:25:00     -183.418     -105.556       16.010      169.523      108.991       63.735    28738.122    11879.103     4062.115        4.485        2.234      211.623       67.670        0.102      344.327       21.064      856.524
10/20/2014  13:26:00     -105.813     -101.244       14.702      109.267       71.290       45.130    11939.170     5082.252     2036.725        2.036        0.953      146.447       49.842        0.116      344.467       21.304      856.546
10/20/2014  13:27:00      -83.056     -120.328       -0.729      133.186      127.042       70.265    17738.555    16139.626     4937.108        3.009        1.941      146.210       75.556        0.267      344.410       21.206      856.569
10/20/2014  13:28:00      -35.981     -307.215      -28.076      107.509      112.438       79.940    11558.204    12642.275     6390.349        6.352        1.530      309.315       54.507        0.031      344.351       21.105      856.559
10/20/2014  13:29:00        2.784     -366.782      -14.033      126.734      136.237       69.588    16061.467    18560.430     4842.524        8.709        1.973      366.792       26.735        0.005      344.188       20.825      856.589
10/20/2014  13:30:00     -181.293     -170.923        4.620      190.346      110.467       76.515    36231.420    12203.028     5854.599        5.819        2.714      249.162       66.402        0.071      344.195       20.839      856.568
10/20/2014  13:31:00     -179.037     -163.511       -2.398      116.217       89.520       59.364    13506.316     8013.781     3524.129        4.192        1.252      242.467       57.223        0.056      344.055       20.600      856.526
10/20/2014  13:32:00     -243.182     -203.358      -15.911      107.139      108.901       53.641    11478.723    11859.508     2877.342        6.348        1.311      317.005       47.691        0.023      344.046       20.585      856.492
10/20/2014  13:33:00     -288.813     -117.223       -3.748      195.671      132.730       71.084    38287.204    17617.127     5052.932        7.905        3.048      311.696       77.975        0.063      344.181       20.815      856.505
10/20/2014  13:34:00     -405.961     -135.038      -29.329      163.055      133.767       68.796    26586.893    17893.520     4732.922       11.655        2.461      427.831       78.504        0.034      344.101       20.677      856.453
10/20/2014  13:35:00     -326.590     -123.204       -1.063      203.059      156.419       73.723    41232.796    24467.026     5435.095        9.648        3.557      349.056       86.471        0.061      344.261       20.951      856.462
10/20/2014  13:36:00     -224.345      -94.111       -8.371      102.374      104.399       58.033    10480.418    10899.093     3367.848        4.200        1.237      243.285       39.586        0.026      344.220       20.880      856.457
10/20/2014  13:37:00     -259.470     -224.028      -14.452      131.766      127.008       69.353    17362.205    16131.045     4809.903        7.801        1.915      342.802       55.330        0.026      344.253       20.938      856.481
10/20/2014  13:38:00     -227.172     -188.852        0.069      158.045      138.269       67.152    24978.111    19118.258     4509.444        6.793        2.430      295.419       60.411        0.042      344.258       20.945      856.474
10/20/2014  13:39:00     -171.058     -225.276        3.602      146.417      115.399       67.060    21437.838    13316.916     4497.021        5.963        1.963      282.860       45.553        0.026      344.306       21.028      856.505
10/20/2014  13:40:00     -267.691     -239.826      -27.065      139.555      168.157       71.659    19475.585    28276.752     5135.033        9.139        2.644      359.409       61.980        0.030      344.161       20.780      856.523
10/20/2014  13:41:00     -147.509      -23.637       15.503      123.645       68.691       47.309    15287.994     4718.441     2238.121        2.240        1.112      149.391       51.755        0.120      344.268       20.963      856.445
10/20/2014  13:42:00      -27.598      -86.497       17.536       94.641       80.484       63.045     8956.857     6477.695     3974.702        1.398        0.970       90.794       60.375        0.442      344.469       21.309      856.435
10/20/2014  13:43:00     -161.281     -125.880        0.739      137.572      102.434       55.426    18925.932    10492.762     3072.078        3.717        1.625      204.591       56.106        0.075      344.404       21.197      856.446
10/20/2014  13:44:00     -290.009     -203.892      -10.781      121.859      107.897       57.004    14849.580    11641.767     3249.407        7.776        1.487      354.510       60.662        0.029      344.305       21.028      856.462
10/20/2014  13:45:00     -388.092     -220.154      -26.554      158.216      144.166       69.797    25032.210    20783.922     4871.683       12.523        2.534      446.188       72.116        0.026      344.228       20.893      856.480
10/20/2014  13:46:00     -307.455     -143.117      -11.105      205.138      146.826       72.894    42081.779    21557.800     5313.599        9.203        3.448      339.132       85.789        0.064      344.196       20.840      856.487
10/20/2014  13:47:00     -316.903     -170.439        3.464      174.215      131.757       81.365    30350.986    17359.828     6620.270        9.190        2.717      359.829       91.075        0.064      344.110       20.694      856.431
10/20/2014  13:48:00     -212.578     -204.228       -6.377      117.179      135.845       66.443    13730.956    18453.778     4414.611        6.176        1.830      294.786       71.470        0.059      344.195       20.838      856.460
10/20/2014  13:49:00     -161.502     -230.255      -18.202       84.175      116.417       54.899     7085.395    13552.851     3013.939        5.154        1.183      281.248       49.591        0.031      344.205       20.854      856.461
10/20/2014  13:50:00     -124.713     -107.628        6.723       86.547       71.152       47.657     7490.317     5062.598     2271.175        2.100        0.741      164.734       46.043        0.078      344.314       21.044      856.458
10/20/2014  13:51:00      -43.012      -81.731        9.211       86.696       55.333       48.696     7516.200     3061.795     2371.252        1.078        0.647       92.358       57.201        0.384      344.457       21.289      856.460
10/20/2014  13:52:00     -124.162      -63.225        5.745      104.726       79.126       40.311    10967.437     6260.989     1624.965        1.915        0.943      139.332       31.718        0.052      344.512       21.380      856.455
10/20/2014  13:53:00     -146.560     -214.830       -7.172      129.597      126.158       45.860    16795.449    15915.898     2103.151        5.124        1.741      260.061       49.483        0.036      344.229       20.896      856.482
10/20/2014  13:54:00     -160.852     -207.640       -8.539      122.134      118.310       51.576    14916.710    13997.176     2660.129        5.031        1.579      262.655       54.741        0.043      344.154       20.770      856.501
10/20/2014  13:55:00     -394.635     -327.432       -8.090      191.667      153.784       96.491    36736.318    23649.506     9310.584       16.634        3.485      512.786      116.505        0.052      343.960       20.437      856.466
10/20/2014  13:56:00     -331.870     -135.284       -8.413      204.385      128.159       74.335    41773.230    16424.830     5525.765        9.611        3.186      358.384       81.396        0.052      344.095       20.667      856.416
10/20/2014  13:57:00     -193.515     -115.392        6.388      145.611       92.477       59.101    21202.670     8552.087     3492.953        4.202        1.662      225.308       69.763        0.096      344.320       21.052      856.419
10/20/2014  13:58:00      -94.792     -120.308       14.314       79.649      161.809       53.632     6343.902    26182.076     2876.393        2.953        1.770      153.166       67.028        0.192      344.401       21.191      856.418
10/20/2014  13:59:00     -216.382     -219.091       -0.225      171.757      180.612       67.236    29500.319    32620.828     4520.707        8.072        3.332      307.932       71.182        0.053      344.169       20.793      856.406
10/20/2014  14:00:00     -488.387     -183.615      -27.437      218.787      174.738       84.283    47867.800    30533.472     7103.642       17.923        4.275      521.762       81.164        0.024      344.106       20.686      856.404
10/20/2014  14:01:00     -244.273      -96.077        6.897      169.372      147.681       83.088    28686.792    21809.561     6903.618        6.316        2.870      262.488       86.572        0.109      344.194       20.837      856.399
10/20/2014  14:02:00     -330.194     -221.104      -11.190      210.380      167.129       86.337    44259.614    27931.936     7454.145       11.883        3.982      397.386       97.585        0.060      344.085       20.651      856.378
10/20/2014  14:03:00     -319.687     -233.466       -1.870      198.618      186.954       88.639    39449.295    34951.735     7856.904       11.947        4.113      395.861      107.349        0.074      344.011       20.525      856.362
10/20/2014  14:04:00     -493.957     -221.047       -7.932      232.472      191.243       93.066    54043.016    36574.009     8661.234       19.608        4.964      541.161       95.871        0.031      344.001       20.507      856.363
10/20/2014  14:05:00     -411.132     -196.132       -7.621      219.480      148.529       93.128    48171.602    22060.928     8672.799       14.322        3.945      455.519       99.536        0.048      344.103       20.680      856.372
10/20/2014  14:06:00     -281.098     -146.111       13.471      234.025      157.020       98.488    54767.615    24655.143     9699.969        9.482        4.456      316.804      118.671        0.140      344.169       20.793      856.356
10/20/2014  14:07:00     -350.022     -215.286       -2.239      195.950      158.381       81.971    38396.488    25084.439     6719.242       11.952        3.510      410.930       81.411        0.039      343.844       20.237      856.348
10/20/2014  14:08:00     -269.826     -175.592       -7.088      174.566      154.972       73.587    30473.248    24016.386     5415.010        8.179        2.995      321.930       84.822        0.069      344.067       20.619      856.338
10/20/2014  14:09:00     -380.179     -257.116       -7.526      168.550      144.568       79.713    28409.088    20899.948     6354.132       13.317        2.783      458.961       78.980        0.030      344.154       20.768      856.347
10/20/2014  14:10:00     -373.989      -83.237      -13.388      128.998      145.348       57.345    16640.413    21125.915     3288.452        9.401        2.053      383.140       40.659        0.011      344.166       20.788      856.380
10/20/2014  14:11:00     -240.665     -221.777       -2.684      132.014      111.328       76.707    17427.637    12393.937     5883.896        7.140        1.785      327.269       79.817        0.059      344.109       20.691      856.370
10/20/2014  14:12:00     -247.595     -174.949       -1.211      154.213       99.464       68.990    23781.785     9893.010     4759.553        6.517        1.922      303.167       63.552        0.044      344.203       20.852      856.340
10/20/2014  14:13:00     -347.052     -181.098      -14.877      180.490      184.014       96.178    32576.800    33861.143     9250.251       11.456        3.784      391.461      103.329        0.070      344.133       20.733      856.282
10/20/2014  14:14:00     -387.663     -165.653      -17.130      165.751      112.905       77.937    27473.385    12747.611     6074.155       11.215        2.315      421.572       85.114        0.041      344.203       20.852      856.287
10/20/2014  14:15:00     -330.619     -254.242       -6.554      182.788      180.511       87.686    33411.545    32584.122     7688.781       12.383        3.684      417.071       81.728        0.038      344.234       20.904      856.274
10/20/2014  14:16:00     -205.490     -247.999       11.754      131.233      143.661       71.797    17222.043    20638.531     5154.768        7.343        2.151      322.070       56.856        0.031      344.338       21.083      856.375
10/20/2014  14:17:00     -260.983     -314.808      -17.161      132.753      129.699       78.615    17623.422    16821.960     6180.301       10.406        2.031      408.921       82.672        0.041      344.339       21.085      856.416
10/20/2014  14:18:00     -208.801     -131.861      -18.981      109.283       97.816       57.931    11942.839     9567.902     3355.986        4.310        1.243      246.951       57.737        0.055      344.062       20.611      856.408
10/20/2014  14:19:00     -138.337      -80.669        4.453      115.039      104.217       50.156    13234.064    10861.171     2515.662        2.613        1.331      160.140       53.161        0.110      344.239       20.914      856.372
10/20/2014  14:20:00     -263.517      -66.253       -4.018      104.712       97.100       55.367    10964.668     9428.330     3065.469        4.865        1.173      271.718       37.989        0.020      344.283       20.988      856.347
10/20/2014  14:21:00     -432.294      -12.626        8.898      230.882      223.902       87.865    53306.492    50132.022     7720.180       14.912        5.558      432.478       85.152        0.039      344.219       20.878      856.295
10/20/2014  14:22:00     -438.172     -102.338       -6.602      237.500      155.671       95.150    56406.439    24233.511     9053.596       14.609        4.485      449.964       82.490        0.034      344.161       20.780      856.248
10/20/2014  14:23:00     -313.383      -68.974      -10.296      193.781      142.083       83.006    37551.126    20187.662     6890.011        8.384        3.231      320.883       92.768        0.084      344.275       20.975      856.321
10/20/2014  14:24:00     -181.237     -291.351       20.061      125.589      205.246       70.615    15772.626    42125.999     4986.507        9.050        3.144      343.121       54.105        0.025      344.131       20.730      856.352
10/20/2014  14:25:00     -360.177     -213.508       -8.409      229.200      192.710       95.447    52532.743    37137.110     9110.091       13.707        4.939      418.704      104.108        0.062      343.962       20.440      856.340
10/20/2014  14:26:00     -212.375      -75.450        1.424      154.005      134.302       71.255    23717.624    18037.067     5077.257        4.881        2.342      225.379       80.578        0.128      343.983       20.477      856.333
10/20/2014  14:27:00     -334.143     -218.187       -7.388      142.083      198.569       72.091    20187.549    39429.699     5197.075       11.205        3.241      399.070       76.651        0.037      343.780       20.130      856.308
10/20/2014  14:28:00     -394.557     -223.145      -16.921      200.482      189.643       99.770    40192.858    35964.518     9954.048       14.592        4.306      453.286      109.132        0.058      343.706       20.004      856.293
10/20/2014  14:29:00     -226.977     -228.419       43.769      229.812      180.898      125.995    52813.408    32724.066    15874.708       10.349        5.071      322.015      147.742        0.211      343.710       20.010      856.274
10/20/2014  14:30:00     -289.290     -144.518      -20.859      158.078      137.815       81.501    24988.756    18992.841     6642.410        7.781        2.531      323.379       88.384        0.075      343.698       19.990      856.311
10/20/2014  14:31:00     -239.640     -157.043       -0.671      126.227       92.001       60.037    15933.296     8464.216     3604.399        5.504        1.400      286.513       57.986        0.041      343.781       20.132      856.329
10/20/2014  14:32:00     -233.745     -108.172       11.657      163.232      125.848       74.656    26644.613    15837.807     5573.459        5.726        2.403      257.562       84.576        0.108      343.839       20.232      856.336
10/20/2014  14:33:00     -333.229     -184.314       -2.198      217.746      158.275       84.863    47413.420    25051.103     7201.791       11.233        3.983      380.806      102.125        0.072      343.847       20.245      856.313
10/20/2014  14:34:00     -355.251     -228.470      -15.755      198.404      201.825       85.614    39364.214    40733.159     7329.779       13.302        4.371      422.376       98.741        0.055      343.966       20.448      856.290
10/20/2014  14:35:00     -262.957     -187.672        4.766      172.092      169.848       92.566    29615.564    28848.221     8568.376        8.570        3.352      323.059       90.368        0.078      344.211       20.865      856.308
10/20/2014  14:36:00     -140.280     -146.920        1.954      165.832      127.570       69.921    27500.185    16274.134     4888.890        4.496        2.433      203.135       71.032        0.122      344.413       21.209      856.370
10/20/2014  14:37:00     -207.139     -116.471       -0.724      114.699       71.765       55.061    13155.754     5150.247     3031.763        3.890        1.067      237.638       51.015        0.046      344.416       21.215      856.328
10/20/2014  14:38:00     -146.234      -95.203       -1.882       75.638       54.556       36.770     5721.125     2976.308     1352.050        2.025        0.502      174.493       41.336        0.056      344.293       21.007      856.300
10/20/2014  14:39:00      -90.981     -171.876       19.947      102.533      136.939       47.732    10512.980    18752.160     2278.333        3.487        1.577      194.471       51.490        0.070      344.088       20.657      856.326
10/20/2014  14:40:00     -123.190     -212.986      -19.501      124.636      106.189       66.327    15534.078    11276.039     4399.307        4.606        1.560      246.046       41.477        0.028      344.158       20.775      856.378
10/20/2014  14:41:00     -427.225     -317.237      -12.438      257.838      202.661      101.765    66480.297    41071.385    10356.139       20.059        5.895      532.128       92.282        0.030      344.280       20.985      856.308
10/20/2014  14:42:00     -269.795     -113.995        0.089      160.191      145.919       68.322    25661.158    21292.292     4667.923        6.869        2.581      292.890       75.688        0.067      344.168       20.793      856.414
10/20/2014  14:43:00     -105.940      -49.569      -10.023       92.280       56.550       42.208     8515.598     3197.919     1781.537        1.364        0.675      116.963       31.952        0.075      343.977       20.467      856.407
10/20/2014  14:44:00     -226.306      -54.594        5.934      137.176      128.286       71.367    18817.365    16457.389     5093.245        4.729        2.018      232.799       65.776        0.080      343.985       20.479      856.333
10/20/2014  14:45:00     -410.476     -187.820      -17.796      168.715      120.833       92.502    28464.907    14600.577     8556.578       12.784        2.581      451.406       94.642        0.044      343.990       20.486      856.322
10/20/2014  14:46:00     -170.778     -239.165       -3.317      188.995      155.784       79.048    35718.931    24268.646     6248.611        7.630        3.312      293.880       63.347        0.046      344.098       20.672      856.313
10/20/2014  14:47:00     -362.148     -151.198      -21.099      155.577      119.750       71.247    24204.056    14340.147     5076.206        9.903        2.181      392.443       68.527        0.030      344.202       20.851      856.344
10/20/2014  14:48:00     -398.404      -22.825       -5.296      173.926      131.360       81.070    30250.178    17255.440     6572.421       10.667        2.704      399.057       93.838        0.055      343.974       20.461      856.293
10/20/2014  14:49:00     -441.345     -287.222       -0.040      282.610      203.650      112.187    79868.286    41473.375    12585.901       20.558        6.696      526.576      139.155        0.070      343.828       20.212      856.312
10/20/2014  14:50:00     -339.314     -124.800        9.549      230.475      209.996      120.598    53118.513    44098.242    14543.888       12.126        5.588      361.538      142.046        0.154      343.873       20.287      856.300
10/20/2014  14:51:00     -458.878     -275.200        3.197      257.335      188.681      110.577    66221.165    35600.618    12227.231       20.016        5.702      535.074      130.478        0.059      343.715       20.018      856.295
10/20/2014  14:52:00     -396.558     -215.767       -5.151      243.753      198.909       92.731    59415.399    39564.741     8599.108       15.569        5.379      451.457      108.427        0.058      343.865       20.274      856.280
10/20/2014  14:53:00     -358.582     -202.435       -8.502      293.465      215.272       95.762    86121.422    46342.080     9170.425       15.561        7.082      411.778      127.393        0.096      343.847       20.244      856.257
10/20/2014  14:54:00     -287.773      -94.711        7.824      242.775      138.725      100.317    58939.712    19244.588    10063.500        9.003        4.412      302.957      119.511        0.156      344.058       20.604      856.248
10/20/2014  14:55:00     -428.324     -297.378        5.527      290.366      171.183      116.970    84312.552    29303.614    13682.074       19.959        6.365      521.436      137.889        0.070      343.908       20.347      856.298
10/20/2014  14:56:00     -405.969     -329.933      -15.642      176.809      177.074       93.032    31261.524    31355.252     8654.992       17.258        3.564      523.132       67.754        0.017      343.884       20.307      856.305
10/20/2014  14:57:00     -540.584     -321.714      -34.435      276.465      190.160      124.933    76433.142    36160.872    15608.186       26.254        6.410      629.071      129.762        0.043      343.797       20.159      856.258
10/20/2014  14:58:00     -526.276     -193.469      -14.020      251.316      204.670      118.664    63159.797    41889.854    14081.164       21.684        5.957      560.711      141.842        0.064      343.709       20.009      856.258
10/20/2014  14:59:00     -516.411     -139.310      -30.287      198.806      206.307       86.868    39523.739    42562.707     7546.098       18.830        4.482      534.871       80.392        0.023      343.792       20.149      856.244
10/20/2014  15:00:00     -425.523     -330.301       -8.033      223.152      200.705      105.214    49796.714    40282.462    11069.926       19.567        5.057      538.673      127.650        0.056      343.817       20.193      856.273
10/20/2014  15:01:00     -375.430     -268.562       -6.008      183.834      146.641       80.514    33795.098    21503.672     6482.507       13.743        3.089      461.598       87.307        0.036      343.874       20.291      856.285
10/20/2014  15:02:00     -239.881     -159.779      -22.306      134.107      110.364       65.533    17984.656    12180.128     4294.543        5.901        1.723      288.223       46.973        0.027      344.019       20.539      856.281
10/20/2014  15:03:00     -447.593     -271.040      -14.960      243.508      157.907       97.837    59296.371    24934.464     9572.100       18.390        4.690      523.261      107.474        0.042      343.868       20.280      856.251
10/20/2014  15:04:00     -524.680     -320.433      -32.587      260.645      212.948      105.622    67935.922    45346.760    11156.027       25.171        6.222      614.790      119.355        0.038      343.762       20.098      856.276
10/20/2014  15:05:00     -306.741     -163.463       18.251      225.196      201.739      103.759    50713.459    40698.576    10765.939       11.164        5.109      347.578      124.980        0.129      343.816       20.191      856.230
10/20/2014  15:06:00     -448.676     -240.294      -16.851      221.456      210.053       92.672    49042.826    44122.154     8588.024       18.053        5.088      508.971       90.471        0.032      343.785       20.138      856.286
10/20/2014  15:07:00     -635.387     -421.375        1.978      314.455      244.573      135.999    98882.140    59815.842    18495.836       37.921        8.860      762.413      166.023        0.047      343.664       19.929      856.262
10/20/2014  15:08:00     -592.641     -386.342      -32.885      243.910      236.635      106.504    59492.302    55995.993    11343.014       31.418        6.342      707.449       93.937        0.018      343.729       20.041      856.250
10/20/2014  15:09:00     -350.958     -231.260       26.394      246.753      196.553      108.165    60887.230    38633.234    11699.679       14.427        5.561      420.300      115.671        0.076      343.779       20.127      856.273
10/20/2014  15:10:00     -701.896     -369.078      -40.583      295.833      216.959      119.118    87517.397    47071.315    14189.018       38.963        7.439      793.018      135.061        0.029      343.723       20.033      856.245
10/20/2014  15:11:00     -501.723     -278.006        3.189      282.872      193.008      118.603    80016.773    37252.188    14066.611       23.016        6.567      573.596      127.601        0.049      343.737       20.056      856.268
10/20/2014  15:12:00     -481.366     -311.659      -10.836      267.570      247.395      116.437    71593.462    61204.152    13557.648       23.763        7.318      573.450      134.604        0.055      343.736       20.055      856.278
10/20/2014  15:13:00     -577.540     -394.835      -50.649      255.842      220.554      115.464    65455.354    48643.997    13331.882       30.970        6.372      699.605      128.651        0.034      343.631       19.874      856.282
10/20/2014  15:14:00     -592.732     -427.230        0.718      294.884      270.501      129.012    86956.429    73170.727    16643.967       35.528        8.839      730.655      142.430        0.038      343.583       19.792      856.263
10/20/2014  15:15:00     -542.118     -333.840      -20.377      319.555      260.761      129.406   102115.366    67996.441    16745.797       29.628        9.343      636.664      171.587        0.073      343.626       19.867      856.307
10/20/2014  15:16:00     -466.124     -216.181       -2.949      256.533      197.443      100.071    65809.121    38983.918    10014.142       18.939        5.740      513.815      111.735        0.047      343.748       20.074      856.320
10/20/2014  15:17:00     -512.097     -337.633      -14.260      222.265      191.839      104.398    49401.617    36802.168    10898.896       23.676        4.855      613.383      104.810        0.029      343.701       19.995      856.311
10/20/2014  15:18:00     -503.931     -321.819      -19.422      239.434      184.120      106.018    57328.568    33900.330    11239.856       23.016        5.123      597.924      118.665        0.039      343.512       19.672      856.308
10/20/2014  15:19:00     -349.454     -267.884        1.147      248.131      195.891       95.713    61568.988    38373.285     9161.051       15.147        5.455      440.317      116.398        0.070      343.514       19.677      856.279
10/20/2014  15:20:00     -319.312     -247.561        5.450      308.759      187.150       98.868    95332.260    35025.120     9774.926       15.168        7.007      404.037      128.903        0.102      343.652       19.911      856.280
10/20/2014  15:21:00     -579.765     -300.066      -12.302      274.959      214.456      121.551    75602.461    45991.311    14774.596       28.132        6.818      652.814      133.524        0.042      343.507       19.664      856.263
10/20/2014  15:22:00     -400.567     -287.268      -33.849      222.831      165.458      108.283    49653.537    27376.476    11725.199       16.642        4.438      492.927      121.939        0.061      343.590       19.805      856.261
10/20/2014  15:23:00     -273.015      -60.313       10.834      152.768      110.081       83.856    23338.075    12117.917     7031.749        6.038        2.124      279.598       77.397        0.077      343.785       20.137      856.278
10/20/2014  15:24:00     -365.669     -149.678       11.590      269.865      179.248      109.300    72827.019    32129.874    11946.455       13.656        5.845      395.117      141.323        0.128      343.840       20.231      856.307
10/20/2014  15:25:00     -309.313     -153.006       -0.822      206.854      138.231       95.422    42788.715    19107.901     9105.425        9.503        3.550      345.088      101.294        0.086      343.777       20.124      856.316
10/20/2014  15:26:00     -277.615     -123.705      -11.839      187.026      140.629       84.606    34978.666    19776.627     7158.146        7.720        3.096      303.929       74.381        0.060      343.891       20.318      856.302
10/20/2014  15:27:00     -571.718     -103.575      -38.495      224.033      196.948       89.777    50190.665    38788.447     8059.983       21.804        4.852      581.025       89.778        0.024      343.704       19.999      856.318
10/20/2014  15:28:00     -258.750     -149.594        4.427      145.923      103.144       68.431    21293.444    10638.716     4682.749        6.298        1.831      298.881       62.957        0.044      343.827       20.209      856.360
10/20/2014  15:29:00     -286.344     -129.953      -10.768      143.062      135.183       79.781    20466.624    18274.416     6365.043        7.204        2.255      314.453       82.444        0.069      343.727       20.039      856.371
10/20/2014  15:30:00     -319.123        0.153        2.263      140.920      136.154       88.940    19858.322    18538.020     7910.267        7.407        2.315      319.123       82.509        0.067      343.630       19.873      856.344
10/20/2014  15:31:00     -367.898      -91.143       -3.208      202.497      149.574       85.841    41004.889    22372.278     7368.648       10.719        3.537      379.020      100.056        0.070      343.685       19.967      856.338
10/20/2014  15:32:00     -400.124     -242.130      -14.050      255.027      160.110       99.432    65039.001    25635.195     9886.720       15.973        5.028      467.681      110.278        0.056      343.695       19.985      856.371
10/20/2014  15:33:00     -418.017     -108.433      -26.356      218.104      186.909       84.938    47569.298    34934.995     7214.422       13.844        4.486      431.852       90.397        0.044      343.678       19.954      856.343
10/20/2014  15:34:00     -367.079     -281.180      -19.950      279.894      168.103      104.290    78340.923    28258.706    10876.387       16.582        5.874      462.395      125.853        0.074      343.642       19.892      856.289
10/20/2014  15:35:00     -565.249     -197.465      -19.574      245.772      189.374      105.442    60403.903    35862.388    11117.954       23.312        5.369      598.748      103.860        0.030      343.523       19.691      856.247
10/20/2014  15:36:00     -523.344     -404.243      -22.324      219.859      212.311      117.052    48337.870    45075.846    13701.092       27.244        5.356      661.288      126.530        0.037      343.422       19.519      856.216
10/20/2014  15:37:00     -361.196     -203.223      -14.967      212.413      141.648       87.488    45119.116    20064.030     7654.169       12.240        3.642      414.442      107.998        0.068      343.539       19.718      856.246
10/20/2014  15:38:00     -508.945     -306.820      -11.447      251.110      155.016      110.313    63056.358    24030.032    12168.910       22.626        4.963      594.276      125.063        0.044      343.568       19.768      856.234
10/20/2014  15:39:00     -397.487     -225.021      -11.632      250.119      203.629      102.147    62559.319    41464.651    10433.984       16.159        5.723      456.761      130.626        0.082      343.673       19.950      856.198
10/20/2014  15:40:00     -594.311     -319.223      -14.640      259.393      210.099      113.088    67284.817    44141.734    12788.997       28.975        6.211      674.617      124.876        0.034      343.616       19.849      856.178
10/20/2014  15:41:00     -534.248     -358.845       -4.769      242.157      168.749      105.672    58640.048    28476.353    11166.515       25.623        4.914      643.577      115.843        0.032      343.591       19.807      856.165
10/20/2014  15:42:00     -310.380     -320.519      -13.351      196.348      151.831       90.918    38552.389    23052.584     8266.138       13.455        3.494      446.171       79.145        0.031      343.596       19.815      856.234
10/20/2014  15:43:00     -368.735     -230.565       -5.604      233.216      189.059      101.970    54389.754    35743.309    10397.825       14.483        5.027      434.886      115.935        0.071      343.665       19.933      856.250
10/20/2014  15:44:00     -327.855     -215.598      -12.841      203.770      190.598       89.959    41522.241    36327.585     8092.544       12.002        4.297      392.391       97.481        0.062      343.722       20.030      856.285
10/20/2014  15:45:00     -420.448     -285.507      -14.836      213.707      157.492       98.925    45670.583    24803.834     9786.153       16.937        4.013      508.223      112.834        0.049      343.590       19.805      856.250
10/20/2014  15:46:00     -423.847     -265.158      -11.894      204.858      194.346      103.918    41966.997    37770.476    10798.861       17.030        4.527      499.955      108.996        0.048      343.666       19.935      856.203
10/20/2014  15:47:00     -422.642     -289.745        3.345      261.443      241.756      106.079    68352.289    58445.804    11252.672       20.030        6.903      512.425      125.767        0.060      343.686       19.969      856.237
10/20/2014  15:48:00     -292.559     -234.414      -12.891      161.919      167.018       80.599    26217.841    27894.868     6496.238       10.065        3.030      374.888       82.899        0.049      343.623       19.861      856.224
10/20/2014  15:49:00     -315.689     -138.991        6.327      245.208      161.652      111.189    60127.016    26131.345    12363.060       10.880        4.931      344.932      129.465        0.141      343.674       19.949      856.175
10/20/2014  15:50:00     -491.460     -183.726       -3.063      196.957      189.837       96.305    38792.163    36038.145     9274.624       17.969        4.205      524.679      105.592        0.041      343.658       19.921      856.134
10/20/2014  15:51:00     -375.665     -169.945      -29.796      199.164      171.695       95.867    39666.105    29479.291     9190.469       12.460        3.917      412.317       95.472        0.054      343.805       20.171      856.049
10/20/2014  15:52:00     -468.022      -77.551      -21.002      257.643      181.403       87.565    66380.133    32906.906     7667.567       16.621        5.348      474.404       99.294        0.044      343.862       20.268      856.072
10/20/2014  15:53:00     -382.591     -117.760       -3.565      203.604      217.514       99.236    41454.537    47312.348     9847.803       12.942        4.931      400.304      107.691        0.072      343.805       20.172      856.080
10/20/2014  15:54:00     -490.714     -190.599       -6.126      263.472      178.938      119.393    69417.751    32018.668    14254.643       19.641        5.785      526.430      135.100        0.066      343.685       19.969      856.038
10/20/2014  15:55:00     -478.521     -208.683      -21.412      283.438      205.857       93.370    80336.962    42377.161     8717.882       20.219        6.572      522.045      118.155        0.051      343.650       19.906      856.089
10/20/2014  15:56:00     -300.761     -190.218        1.312      170.726      169.309       86.454    29147.318    28665.563     7474.337        9.595        3.264      355.866       86.957        0.060      343.612       19.843      856.127
10/20/2014  15:57:00     -289.959     -155.790      -16.893      160.958      108.207       66.918    25907.394    11708.844     4477.968        7.536        2.105      329.161       67.960        0.043      343.563       19.760      856.113
10/20/2014  15:58:00     -245.315     -217.292        1.429      158.293      220.748       75.202    25056.576    48729.885     5655.269        9.341        3.972      327.712       70.942        0.047      343.642       19.894      856.075
10/20/2014  15:59:00     -319.877      -14.984       -9.218      175.357      155.128       73.828    30750.225    24064.691     5450.559        8.144        3.013      320.228       72.589        0.051      343.781       20.130      856.057
10/20/2014  16:00:00     -279.025      -84.138       -7.216      284.788      157.262       66.587    81104.369    24731.234     4433.865        9.761        5.513      291.435       94.007        0.104      343.955       20.430      856.038
10/20/2014  16:01:00     -242.916      -88.676        2.271      166.660      136.293       77.272    27775.514    18575.703     5971.030        5.959        2.616      258.595       87.280        0.114      343.928       20.383      856.031
10/20/2014  16:02:00     -391.371     -256.228      -28.195      171.639      161.904       84.481    29459.961    26213.032     7137.035       14.120        3.141      467.786       66.431        0.020      343.680       19.959      856.037
10/20/2014  16:03:00     -409.474     -294.398      -22.001      198.908      143.728       82.788    39564.426    20657.697     6853.828       16.094        3.354      504.321       89.342        0.031      343.518       19.682      856.029
10/20/2014  16:04:00     -195.663     -232.047       -7.305      163.396      177.490       71.627    26698.415    31502.718     5130.485        7.775        3.167      303.528       74.375        0.060      343.533       19.710      856.006
10/20/2014  16:05:00     -165.841      -98.655      -28.300      112.710       78.984       40.908    12703.449     6238.521     1673.448        2.932        1.031      192.966       36.923        0.037      343.691       19.977      855.961
10/20/2014  16:06:00     -134.108     -131.904        8.221      152.169      114.715       55.841    23155.313    13159.569     3118.168        3.744        1.972      188.105       44.030        0.055      343.748       20.077      855.947
10/20/2014  16:07:00     -368.305     -263.900      -12.601      163.714      130.203       69.796    26802.216    16952.716     4871.488       12.703        2.431      453.091       69.883        0.024      343.708       20.007      856.013
10/20/2014  16:08:00     -324.719     -217.246      -19.332      179.375      112.177       53.921    32175.387    12583.753     2907.456       10.033        2.383      390.689       52.590        0.018      343.685       19.967      856.061
10/20/2014  16:09:00     -309.753     -116.059       -4.894      119.284      100.441       59.632    14228.616    10088.494     3555.941        6.865        1.394      330.782       52.378        0.025      343.667       19.937      856.051
10/20/2014  16:10:00     -175.681      -53.673      -20.969      110.109       63.953       38.758    12123.890     4089.997     1502.185        2.595        0.886      183.698       39.656        0.047      343.741       20.063      856.013
10/20/2014  16:11:00     -145.640     -128.209       -3.016       98.368       90.824       42.367     9676.222     8249.050     1794.930        2.869        0.986      194.033       44.782        0.053      343.755       20.088      855.980
10/20/2014  16:12:00     -251.933     -241.508      -12.987      179.432       95.969       56.436    32195.702     9210.034     3185.011        8.327        2.230      348.994       48.188        0.019      343.909       20.348      856.038
10/20/2014  16:13:00     -347.093     -315.126      -19.579      174.481      114.939       78.347    30443.752    13210.977     6138.232       13.497        2.490      468.805       80.633        0.030      343.571       19.773      856.044
10/20/2014  16:14:00     -314.812     -174.354        9.516      195.286      129.859       83.149    38136.487    16863.425     6913.763        9.574        3.096      359.869       96.547        0.072      343.728       20.041      856.008
10/20/2014  16:15:00     -158.791     -125.364      -21.551      121.221      108.425       53.947    14694.453    11755.884     2910.289        3.537        1.468      202.314       35.706        0.031      343.793       20.151      856.003
10/20/2014  16:16:00     -171.557     -112.129       10.536      115.485       83.970       58.188    13336.688     7050.952     3385.875        3.294        1.189      204.951       57.310        0.078      343.927       20.380      855.976
10/20/2014  16:17:00     -321.755      -89.752       -7.558      168.384      121.723       62.713    28353.223    14816.499     3932.944        7.936        2.355      334.039       71.469        0.046      343.624       19.863      855.977
10/20/2014  16:18:00     -148.533      -63.154        2.739      152.935       90.757       55.830    23389.078     8236.885     3116.958        3.039        1.737      161.401       62.833        0.152      343.580       19.790      855.934
10/20/2014  16:19:00     -263.802      -13.722      -17.881      133.148      138.390       54.923    17728.270    19151.897     3016.588        5.499        1.995      264.159       51.561        0.038      343.566       19.764      855.854
10/20/2014  16:20:00     -312.915      -96.680      -39.713      202.087      140.347       71.538    40839.057    19697.259     5117.646        8.724        3.283      327.510       76.029        0.054      343.649       19.905      855.752
10/20/2014  16:21:00      140.803     -192.355      -33.181      136.753      194.228       99.759    18701.352    37724.520     9951.833        6.214        3.319      238.382       98.760        0.172      343.783       20.134      855.672
10/20/2014  16:22:00      -98.240     -213.581        3.530       96.426       80.608       62.594     9298.047     6497.582     3918.026        3.749        0.986      235.092       22.562        0.009      343.854       20.255      855.853
10/20/2014  16:23:00      -94.686     -156.403        4.303       92.507      130.571       46.803     8557.596    17048.768     2190.499        3.062        1.390      182.831       56.745        0.096      343.959       20.437      855.893
10/20/2014  16:24:00     -110.100     -160.485        3.591      179.341      124.706       61.806    32163.092    15551.642     3820.008        4.470        2.577      194.621       51.121        0.069      343.765       20.104      855.887
10/20/2014  16:25:00      -17.483     -116.308      -15.548       55.482       83.303       51.311     3078.277     6939.334     2632.800        1.336        0.633      117.615       32.766        0.078      343.947       20.417      855.874
10/20/2014  16:26:00     -156.528     -148.248        7.491      109.359      133.031       48.222    11959.425    17697.232     2325.402        3.925        1.599      215.589       37.397        0.030      343.895       20.326      855.879
10/20/2014  16:27:00     -259.457     -173.900      -12.326      140.829      131.130       57.543    19832.668    17194.993     3311.223        6.902        2.017      312.345       51.297        0.027      343.833       20.220      855.873
10/20/2014  16:28:00     -337.283     -217.269       -2.384      150.726      145.433       81.119    22718.403    21150.774     6580.300       10.570        2.522      401.205       65.797        0.027      343.776       20.123      855.870
10/20/2014  16:29:00     -290.177     -168.240        5.216      148.512      103.437       67.573    22055.681    10699.226     4566.053        7.492        1.866      335.421       63.446        0.036      343.817       20.192      855.886
10/20/2014  16:30:00     -246.675     -129.912      -14.546      113.284      126.562       58.494    12833.187    16018.010     3421.511        5.510        1.614      278.793       62.072        0.050      343.737       20.059      855.907
10/20/2014  16:31:00     -125.569      -96.738       13.336       91.946       77.816       50.436     8454.058     6055.359     2543.799        2.118        0.853      158.512       48.594        0.094      343.981       20.474      855.906
10/20/2014  16:32:00     -141.613      -78.794       12.027      117.811      115.199       54.643    13879.529    13270.903     2985.870        2.827        1.507      162.058       70.318        0.188      343.781       20.132      855.897
10/20/2014  16:33:00     -253.525     -194.852       -6.885      133.835       97.024       66.242    17911.821     9413.599     4387.976        6.700        1.586      319.754       58.386        0.033      343.650       19.906      855.910
10/20/2014  16:34:00     -279.919     -187.022       -8.771      102.706      117.350       71.068    10548.559    13771.033     5050.597        7.138        1.469      336.648       49.640        0.022      343.560       19.754      855.887
10/20/2014  16:35:00     -195.996       50.171       -6.371      155.400      115.838       61.314    24149.296    13418.422     3759.468        4.114        2.066      202.316       67.478        0.111      343.669       19.940      855.877
10/20/2014  16:36:00     -118.287       42.031       12.657      127.686      105.771       53.271    16303.715    11187.565     2837.820        2.312        1.516      125.533       61.325        0.239      343.714       20.019      855.796
10/20/2014  16:37:00     -656.708       -6.312      -51.654      242.308      188.640      104.871    58713.177    35585.172    10997.935       26.962        5.265      656.738      110.967        0.029      343.645       19.898      855.709
10/20/2014  16:38:00     -457.754     -159.381        0.323      257.170      178.046      100.912    66136.264    31700.508    10183.298       17.146        5.401      484.708      112.932        0.054      343.707       20.004      855.585
10/20/2014  16:39:00     -191.223     -336.591       -7.802      136.785      139.049       74.763    18710.173    19334.610     5589.458        9.677        2.182      387.117       63.197        0.027      343.607       19.834      855.769
10/20/2014  16:40:00     -136.004     -184.660       -4.577       83.136      125.678       48.887     6911.637    15794.967     2389.914        3.885        1.255      229.340       55.899        0.059      343.630       19.873      855.807
10/20/2014  16:41:00     -141.456      -18.667       13.491      120.798       71.278       50.294    14592.099     5080.524     2529.443        2.137        1.110      142.682       57.331        0.161      343.785       20.139      855.764
10/20/2014  16:42:00      -62.195     -156.725       -8.247       70.666       59.708       52.657     4993.649     3565.057     2772.805        1.991        0.567      168.614       34.654        0.042      343.833       20.221      855.751
10/20/2014  16:43:00     -139.348     -116.266       -0.665       91.772       70.333       52.314     8422.155     4946.780     2736.806        2.452        0.805      181.482       46.171        0.065      343.854       20.257      855.790
10/20/2014  16:44:00     -130.428     -142.604        6.537       87.984       83.843       50.319     7741.140     7029.610     2531.997        2.734        0.865      193.255       40.078        0.043      343.695       19.986      855.785
10/20/2014  16:45:00     -124.413     -138.779        1.101       88.008       62.661       51.484     7745.494     3926.368     2650.556        2.453        0.716      186.382       52.485        0.079      343.717       20.022      855.766
10/20/2014  16:46:00     -180.140     -233.853        8.736      142.605      130.703       61.023    20336.128    17083.340     3723.755        6.417        2.057      295.191       60.931        0.043      343.710       20.010      855.764
10/20/2014  16:47:00     -252.652     -333.998        9.431      218.552      177.907       93.929    47764.784    31650.919     8822.619       13.184        4.412      418.793       92.990        0.049      343.439       19.548      855.714
10/20/2014  16:48:00      -67.808     -108.720        7.924      121.323       83.561       62.695    14719.341     6982.407     3930.706        2.105        1.282      128.133       59.476        0.215      343.653       19.915      855.677
10/20/2014  16:49:00      116.899      -89.247       12.987       83.964      149.993       80.362     7049.990    22497.966     6458.128        2.890        1.800      147.073       95.018        0.417      343.589       19.805      855.622
10/20/2014  16:50:00       28.012     -148.595      -23.342       86.516       54.076       53.368     7485.095     2924.197     2848.186        1.833        0.663      151.212       40.856        0.073      343.659       19.926      855.655
10/20/2014  16:51:00      -70.082      -85.567        7.799      123.981       54.238       42.751    15371.259     2941.721     1827.632        1.621        1.007      110.604       38.385        0.120      343.801       20.169      855.720
10/20/2014  16:52:00     -224.634     -202.153      -19.375      158.279      123.878       70.298    25052.393    15345.682     4941.789        6.851        2.267      302.203       59.583        0.039      343.523       19.690      855.731
10/20/2014  16:53:00     -176.409     -205.816      -11.206      100.883       92.455       62.562    10177.396     8547.970     3914.041        4.812        1.132      271.073       50.653        0.035      343.467       19.595      855.723
10/20/2014  16:54:00     -124.180     -137.893       12.404      107.814      130.829       58.228    11623.959    17116.231     3390.521        3.335        1.607      185.567       73.737        0.158      343.518       19.684      855.700
10/20/2014  16:55:00     -121.490     -116.367       -0.534      119.159      133.618       43.273    14198.962    17853.650     1872.539        3.111        1.696      168.229       37.256        0.049      343.642       19.895      855.673
10/20/2014  16:56:00     -159.984     -166.048       -2.777       90.352      138.523       67.451     8163.508    19188.686     4549.652        4.253        1.595      230.579       48.933        0.045      343.650       19.908      855.691
10/20/2014  16:57:00     -194.998     -234.752       -8.751      154.441      150.353       73.884    23852.147    22606.088     5458.839        7.255        2.596      305.177       82.961        0.074      343.485       19.627      855.700
10/20/2014  16:58:00     -165.411     -229.161       24.248      125.898      154.938       70.667    15850.265    24005.780     4993.781        6.265        2.242      282.623       66.065        0.055      343.547       19.733      855.712
10/20/2014  16:59:00     -216.047     -292.096       -3.706      177.598      118.272       67.572    31541.202    13988.221     4565.987        9.104        2.505      363.313       56.676        0.024      343.274       19.267      855.672
10/20/2014  17:00:00     -359.446     -226.693       -0.097      221.674      170.446       96.422    49139.498    29051.680     9297.145       13.403        4.374      424.961      103.878        0.060      343.187       19.117      855.677
10/20/2014  17:01:00     -394.577     -130.154      -27.667      205.570      160.014       80.753    42259.050    25604.592     6521.064       12.388        3.719      415.489       96.269        0.054      343.082       18.939      855.690
10/20/2014  17:02:00     -192.112      -98.391        2.549      147.324      112.156       65.391    21704.442    12579.070     4275.958        4.257        1.928      215.842       43.138        0.040      343.284       19.284      855.659
10/20/2014  17:03:00     -313.143     -216.278       -1.258      197.552      135.043       90.177    39026.803    18236.715     8131.879       10.511        3.270      380.572       94.833        0.062      343.173       19.094      855.617
10/20/2014  17:04:00     -327.675     -132.057       -2.048      166.440      161.893       74.238    27702.427    26209.378     5511.240        9.211        2.971      353.285       78.898        0.050      343.265       19.251      855.606
10/20/2014  17:05:00     -229.403      -82.938        7.303      141.681      151.227       67.395    20073.646    22869.612     4542.119        5.351        2.374      243.936       66.120        0.073      343.293       19.300      855.611
10/20/2014  17:06:00     -240.624      -23.251       10.299      106.716      133.687       53.028    11388.356    17872.213     2812.002        4.530        1.604      241.745       40.152        0.028      343.386       19.457      855.571
10/20/2014  17:07:00     -253.452      -87.591       10.760      152.438      157.645       89.055    23237.367    24852.066     7930.833        6.401        2.801      268.161       94.029        0.123      343.373       19.436      855.554
10/20/2014  17:08:00     -319.097     -185.633       -8.402      189.046      105.023       74.440    35738.301    11029.876     5541.256        9.432        2.615      369.165       85.487        0.054      343.309       19.327      855.571
10/20/2014  17:09:00     -393.594     -103.524        3.215      178.677      153.311       88.255    31925.608    23504.136     7789.030       11.442        3.161      406.981      100.360        0.061      343.358       19.409      855.554
10/20/2014  17:10:00     -359.178     -132.957       -2.893      172.074      189.999       83.134    29609.441    36099.485     6911.229       10.965        3.631      382.997       96.489        0.063      343.259       19.240      855.559
10/20/2014  17:11:00     -265.772     -178.384       -2.771      150.570      140.755       70.547    22671.328    19812.077     4976.921        7.495        2.373      320.087       72.287        0.051      343.223       19.179      855.613
10/20/2014  17:12:00     -311.950     -171.198       -0.529      148.444      103.960       66.619    22035.685    10807.756     4438.158        8.195        1.864      355.839       74.962        0.044      343.203       19.144      855.628
10/20/2014  17:13:00     -296.728      -77.295      -14.635       88.675       81.930       48.877     7863.175     6712.481     2388.958        5.560        0.848      306.630       42.082        0.019      343.215       19.166      855.660
10/20/2014  17:14:00     -273.136     -111.803      -21.570      124.003       94.156       51.885    15376.638     8865.378     2692.103        5.725        1.347      295.132       54.516        0.034      343.247       19.221      855.698
10/20/2014  17:15:00     -339.226     -180.359       -6.714      198.822      137.475       85.153    39530.069    18899.457     7251.004       10.665        3.284      384.192       92.899        0.058      343.130       19.022      855.724
10/20/2014  17:16:00     -256.686     -292.246        1.784      211.298      182.557       84.389    44646.926    33326.974     7121.533       11.818        4.255      388.968       79.271        0.042      342.991       18.785      855.715
10/20/2014  17:17:00     -223.438     -172.495       17.251      146.394      119.133       67.385    21431.145    14192.574     4540.766        6.006        2.008      282.275       59.372        0.044      343.016       18.828      855.723
10/20/2014  17:18:00     -299.769     -155.774       -7.464      145.729      129.930       75.458    21236.979    16881.723     5693.912        7.899        2.191      337.826       68.328        0.041      343.031       18.853      855.720
10/20/2014  17:19:00     -237.018     -151.795      -12.467      144.532       90.401       58.138    20889.482     8172.397     3380.042        5.590        1.622      281.460       59.397        0.045      343.111       18.989      855.739
10/20/2014  17:20:00     -196.669     -108.395       14.928      132.275      111.057       57.788    17496.755    12333.668     3339.487        4.191        1.658      224.563       61.912        0.076      343.197       19.135      855.738
10/20/2014  17:21:00     -255.970     -206.284        6.003      234.596      169.607       92.292    55035.356    28766.679     8517.863       10.020        4.616      328.746      126.318        0.148      343.172       19.093      855.702
10/20/2014  17:22:00     -401.624     -219.969       -9.457      185.877      163.687       84.946    34550.428    26793.464     7215.861       13.916        3.428      457.917       72.889        0.025      343.202       19.144      855.717
10/20/2014  17:23:00     -318.656      -92.883       -8.003      146.577      122.157       64.315    21484.936    14922.418     4136.447        7.538        2.027      331.917       63.731        0.037      343.173       19.093      855.746
10/20/2014  17:24:00     -199.453      -98.302       -9.896       83.284      102.908       49.186     6936.202    10590.054     2419.225        3.474        0.997      222.362       40.416        0.033      343.126       19.013      855.749
10/20/2014  17:25:00     -131.912      -31.961        9.585       80.072       83.917       45.957     6411.602     7042.065     2112.067        1.704        0.778      135.729       37.541        0.077      343.163       19.080      855.728
10/20/2014  17:26:00     -204.435      -37.741       -9.699       79.528       91.231       36.796     6324.710     8323.056     1353.976        2.965        0.800      207.889       35.261        0.029      342.996       18.795      855.701
10/20/2014  17:27:00     -185.580      -38.294      -11.178      173.007       58.803       40.842    29931.405     3457.807     1668.086        3.554        1.753      189.490       59.205        0.098      343.041       18.870      855.680
10/20/2014  17:28:00     -136.223      -73.916        1.212       91.274       51.532       45.893     8330.903     2655.592     2106.173        1.856        0.655      154.985       26.953        0.030      342.918       18.663      855.685
10/20/2014  17:29:00     -113.942      -39.445       10.280      108.853       87.136       45.276    11849.079     7592.672     2049.883        1.806        1.075      120.576       61.835        0.263      343.093       18.962      855.689
10/20/2014  17:30:00     -423.903     -130.435      -13.070      115.329      107.068       64.426    13300.711    11463.565     4150.772       11.289        1.446      443.516       54.398        0.015      342.974       18.755      855.692
10/20/2014  17:31:00     -427.374     -159.995      -30.465      128.278      124.996       67.819    16455.260    15624.120     4599.410       12.292        1.834      456.341       62.656        0.019      343.069       18.918      855.730
10/20/2014  17:32:00     -298.418     -124.000       -0.107      100.556       76.492       42.560    10111.584     5851.007     1811.349        6.110        0.889      323.155       49.317        0.023      343.071       18.921      855.799
10/20/2014  17:33:00     -242.367      -89.725       -8.324      112.091       98.294       56.969    12564.489     9661.701     3245.459        4.616        1.274      258.443       57.673        0.050      343.125       19.014      855.810
10/20/2014  17:34:00     -198.958     -125.351       -3.859      112.339       98.640       58.638    12620.079     9729.871     3438.391        4.055        1.289      235.154       66.396        0.080      343.114       18.995      855.826
10/20/2014  17:35:00     -297.703     -120.848        3.591      133.183      109.174       57.904    17737.751    11918.889     3352.833        6.812        1.650      321.297       68.463        0.045      343.144       19.045      855.841
10/20/2014  17:36:00     -341.011     -145.860      -12.701      189.387      186.213       86.203    35867.290    34675.191     7430.919       10.784        3.899      370.896       95.126        0.066      343.020       18.834      855.832
10/20/2014  17:37:00     -336.677     -251.450       -4.755      170.207      124.745       81.911    28970.262    15561.306     6709.436       11.391        2.562      420.212       97.506        0.054      342.892       18.616      855.831
10/20/2014  17:38:00     -280.197     -206.655      -16.132      117.838       90.682       69.859    13885.900     8223.217     4880.270        7.423        1.349      348.161       56.138        0.026      342.879       18.594      855.839
10/20/2014  17:39:00     -310.339      -91.313       -1.320      147.751       86.234       57.580    21830.415     7436.332     3315.479        6.861        1.629      323.494       66.311        0.042      342.921       18.666      855.823
10/20/2014  17:40:00     -398.206      -87.753      -14.330      180.933      143.059       65.824    32736.622    20465.939     4332.764       11.200        2.877      407.760       71.886        0.031      342.922       18.668      855.813
10/20/2014  17:41:00     -439.626     -117.432       -3.588      231.362      142.713       84.121    53528.296    20367.055     7076.396       14.401        4.049      455.040       97.965        0.046      342.748       18.371      855.809
10/20/2014  17:42:00     -336.661     -102.112      -10.484      124.269      124.016       62.943    15442.744    15379.863     3961.813        7.933        1.739      351.806       62.003        0.031      342.709       18.306      855.833
10/20/2014  17:43:00     -250.011      -23.112        3.090      147.658      137.397       73.994    21802.860    18877.980     5475.174        5.459        2.308      251.077       69.216        0.076      342.699       18.287      855.829
10/20/2014  17:44:00     -276.252     -121.233       -3.350      134.431       96.980       61.470    18071.806     9405.033     3778.586        6.113        1.563      301.683       63.920        0.045      342.613       18.142      855.815
10/20/2014  17:45:00     -256.877      -64.800       -4.022      196.882      114.239       70.356    38762.685    13050.575     4949.959        6.347        2.838      264.924       93.601        0.125      342.625       18.163      855.827
10/20/2014  17:46:00     -630.513     -161.111      -27.943      239.049      206.458      112.138    57144.660    42624.770    12574.995       26.830        5.617      650.771      116.210        0.032      342.539       18.017      855.776
10/20/2014  17:47:00     -414.741     -105.901       -2.826      183.298      169.120       94.833    33598.116    28601.644     8993.251       12.720        3.560      428.048      102.253        0.057      342.556       18.044      855.824
10/20/2014  17:48:00     -282.588     -165.340       -0.767      187.016      167.758       83.859    34974.829    28142.772     7032.364        8.866        3.507      327.404       80.636        0.061      342.606       18.131      855.857
10/20/2014  17:49:00     -370.710      -64.107       -0.622      197.120      110.502       83.415    38856.387    12210.693     6958.095        9.977        2.901      376.212       96.129        0.065      342.600       18.120      855.872
10/20/2014  17:50:00     -489.058     -139.733      -21.494      134.318      133.372       74.355    18041.356    17787.999     5528.650       15.025        2.068      508.628       56.336        0.012      342.558       18.049      855.853
10/20/2014  17:51:00     -375.662     -158.432      -12.156      149.696      142.988       74.863    22408.953    20445.495     5604.523       10.741        2.423      407.704       76.546        0.035      342.562       18.056      855.864
10/20/2014  17:52:00     -388.312     -173.591        2.394      256.370      217.837       93.489    65725.341    47452.943     8740.260       15.140        6.096      425.347      103.350        0.059      342.460       17.882      855.849
10/20/2014  17:53:00     -549.302     -239.695      -33.725      143.647      145.595       80.743    20634.512    21197.956     6519.407       20.433        2.418      599.321       70.037        0.014      342.383       17.750      855.923
10/20/2014  17:54:00     -355.438     -247.906       -2.933      196.969      148.476       96.929    38796.983    22045.002     9395.200       12.901        3.512      433.352       94.428        0.047      342.377       17.740      855.960
10/20/2014  17:55:00     -399.362     -244.355      -13.274      218.360      187.336       99.816    47680.983    35094.952     9963.296       15.604        4.637      468.187      106.839        0.052      342.354       17.701      855.939
10/20/2014  17:56:00     -500.387     -121.406      -37.709      198.255      195.441       81.462    39305.023    38197.271     6636.006       17.533        4.207      514.904       86.342        0.028      342.299       17.607      855.942
10/20/2014  17:57:00     -481.557      -84.472        0.920      169.090      143.669       82.898    28591.549    20640.706     6872.151       14.756        2.805      488.910       94.210        0.037      342.277       17.572      855.937
10/20/2014  17:58:00     -794.320     -199.983      -44.941      327.906      172.456       95.451   107522.026    29741.194     9110.848       40.964        7.319      819.108      132.461        0.026      342.262       17.546      855.861
10/20/2014  17:59:00     -531.087     -171.894      -35.214      209.788      219.995      104.546    44010.870    48397.761    10929.874       20.807        5.167      558.213      101.805        0.033      342.290       17.593      855.954
10/20/2014  18:00:00     -399.616     -108.847      -11.080      178.278      168.324       92.070    31783.114    28333.044     8476.957       12.012        3.430      414.175       91.398        0.049      342.354       17.703      856.015
10/20/2014  18:01:00     -408.928     -151.167       -2.888      233.801      154.033       91.901    54662.758    23726.068     8445.870       13.844        4.342      435.974      109.395        0.063      342.313       17.633      856.027
10/20/2014  18:02:00     -420.174      -89.397       -0.261      232.321      137.436       90.823    53973.099    18888.547     8248.757       13.281        4.056      429.579      113.840        0.070      342.274       17.565      856.038
10/20/2014  18:03:00     -291.320     -147.951       -5.208      168.895      125.747       70.255    28525.675    15812.394     4935.778        7.802        2.464      326.736       79.026        0.058      342.272       17.563      856.027
10/20/2014  18:04:00     -254.715      -61.956        0.170      175.984      104.105       62.844    30970.243    10837.893     3949.324        5.723        2.288      262.142       81.124        0.096      342.247       17.520      856.031
10/20/2014  18:05:00     -174.117      -37.579       13.443      130.954       93.687       63.674    17149.022     8777.338     4054.377        3.094        1.499      178.126       69.742        0.153      342.243       17.515      856.066
10/20/2014  18:06:00     -178.316     -160.567        4.822      103.666       95.655       60.173    10746.715     9149.817     3620.839        4.056        1.176      239.955       57.634        0.058      342.240       17.509      856.088
10/20/2014  18:07:00     -190.730     -156.225       -9.583       94.301       82.768       57.460     8892.654     6850.563     3301.631        3.996        0.952      246.544       55.327        0.050      342.238       17.504      856.097
10/20/2014  18:08:00     -257.475     -198.091       -5.519      101.468       91.047       63.132    10295.847     8289.638     3985.602        6.406        1.129      324.859       57.317        0.031      342.232       17.493      856.143
10/20/2014  18:09:00     -322.525     -202.849       -2.901      182.361      162.862       79.682    33255.409    26523.962     6349.209       10.564        3.306      381.012       85.571        0.050      342.197       17.435      856.204
10/20/2014  18:10:00     -221.908     -123.887        4.988      151.031      114.564       71.382    22810.389    13124.964     5095.385        5.282        2.052      254.148       70.170        0.076      342.189       17.420      856.193
10/20/2014  18:11:00     -340.213      -64.425      -18.783      149.813      104.750       58.690    22443.895    10972.548     3444.513        7.855        1.843      346.259       71.141        0.042      342.177       17.400      856.155
10/20/2014  18:12:00     -235.803       -6.952       -0.105      133.225       95.779       58.674    17748.927     9173.654     3442.675        4.300        1.518      235.905       70.357        0.089      342.198       17.437      856.108
10/20/2014  18:13:00     -254.306      -69.948      -12.458      117.623       92.014       55.603    13835.118     8466.582     3091.707        4.755        1.270      263.750       61.267        0.054      342.169       17.387      856.060
10/20/2014  18:14:00     -285.157     -122.962       14.695      168.936      112.778       64.460    28539.235    12718.768     4155.141        7.102        2.271      310.539       79.562        0.066      342.137       17.333      856.044
10/20/2014  18:15:00     -373.168      -70.869      -16.799      132.840      100.304       55.460    17646.342    10060.823     3075.802        8.767        1.539      379.838       56.470        0.022      342.107       17.282      856.032
10/20/2014  18:16:00     -355.401     -189.329        1.099      155.819      131.872       78.683    24279.628    17390.193     6190.991       10.500        2.393      402.685       85.047        0.045      342.076       17.229      856.041
10/20/2014  18:17:00     -242.303     -108.404       -5.160      195.842       83.352       58.075    38354.248     6947.611     3372.763        5.957        2.434      265.447       73.676        0.077      342.013       17.125      856.052
10/20/2014  18:18:00     -193.425      -71.963      -15.199       75.505       91.961       39.530     5700.953     8456.754     1562.634        2.927        0.786      206.378       28.760        0.019      342.023       17.140      856.024
10/20/2014  18:19:00     -129.779      -80.050        8.694      111.066       71.392       49.351    12335.614     5096.836     2435.536        2.159        0.993      152.481       56.850        0.139      342.080       17.236      856.022
10/20/2014  18:20:00     -145.143      -10.798       -3.560       90.036       81.393       36.598     8106.564     6624.806     1339.428        1.863        0.804      145.544       41.553        0.082      342.089       17.252      856.003
10/20/2014  18:21:00     -239.669       -5.242      -18.620       88.562       70.551       42.665     7843.313     4977.486     1820.281        3.623        0.732      239.726       48.249        0.041      342.229       17.489      855.971
10/20/2014  18:22:00     -370.733     -129.564      -19.812      119.942      109.730       66.251    14386.030    12040.574     4389.129        9.271        1.541      392.721       54.587        0.019      342.057       17.197      855.930
10/20/2014  18:23:00     -317.635      -89.124       -3.012      141.581       95.868       44.675    20045.104     9190.678     1995.839        7.003        1.562      329.902       53.319        0.026      342.014       17.124      855.917
10/20/2014  18:24:00     -216.123      -19.071       -6.511       84.706       66.009       47.666     7175.117     4357.228     2272.040        3.046        0.690      216.963       42.357        0.038      342.168       17.386      855.909
10/20/2014  18:25:00     -232.960       -7.009      -12.932       86.238       87.074       40.198     7437.040     7581.796     1615.879        3.556        0.832      233.066       33.666        0.021      342.142       17.341      855.881
10/20/2014  18:26:00     -159.329       21.657      -13.844       56.178       57.531       34.109     3156.007     3309.827     1163.395        1.684        0.381      160.794       21.149        0.017      342.142       17.342      855.839
10/20/2014  18:27:00      -69.013       19.531       -5.775       50.353       69.506       33.741     2535.396     4831.017     1138.454        0.684        0.425       71.723       24.866        0.120      342.101       17.273      855.804
10/20/2014  18:28:00     -139.499      -52.681       -1.659       73.743       66.488       33.122     5438.047     4420.664     1097.048        1.660        0.548      149.115       42.707        0.082      342.067       17.215      855.783
10/20/2014  18:29:00     -252.320      -58.160      -27.353       73.242       83.039       41.494     5364.447     6895.449     1721.719        4.089        0.699      258.936       38.388        0.022      342.086       17.246      855.788
10/20/2014  18:30:00     -255.541     -101.386      -12.415       91.501       66.400       39.774     8372.496     4408.982     1581.993        4.505        0.718      274.919       43.750        0.025      341.935       16.989      855.801
10/20/2014  18:31:00     -246.231      -43.383       -8.817      101.521       79.888       51.748    10306.613     6382.167     2677.884        4.097        0.968      250.024       51.675        0.043      341.973       17.053      855.782
10/20/2014  18:32:00     -310.315     -103.173      -22.706       94.199       98.665       50.452     8873.448     9734.754     2545.425        6.430        1.058      327.017       39.975        0.015      341.937       16.992      855.766
10/20/2014  18:33:00     -352.432     -119.788      -28.964       86.802       80.126       49.861     7534.655     6420.104     2486.130        7.792        0.822      372.233       33.375        0.008      341.908       16.942      855.747
10/20/2014  18:34:00     -360.965      -96.409      -12.827      137.555       97.698       59.377    18921.481     9544.967     3525.641        8.587        1.600      373.618       66.435        0.032      341.868       16.875      855.736
10/20/2014  18:35:00     -302.421      -91.124       -6.287      101.893       91.706       58.585    10382.131     8409.953     3432.158        6.101        1.111      315.851       60.625        0.037      341.857       16.856      855.759
10/20/2014  18:36:00     -220.425      -76.559      -14.320       75.194       57.667       37.812     5654.101     3325.490     1429.758        3.253        0.520      233.342       31.857        0.019      341.915       16.956      855.785
10/20/2014  18:37:00     -208.649      -69.257      -13.879      113.371       70.231       58.215    12852.905     4932.457     3389.026        3.485        1.059      219.843       67.979        0.096      341.849       16.845      855.808
10/20/2014  18:38:00     -143.005      -11.633       -5.212       68.583       56.385       38.504     4703.627     3179.245     1482.588        1.499        0.468      143.477       37.202        0.067      341.972       17.054      855.799
10/20/2014  18:39:00      -88.284       14.035        3.004       52.748       74.978       36.564     2782.316     5621.737     1336.918        0.887        0.487       89.393       32.022        0.128      341.940       17.001      855.789
10/20/2014  18:40:00     -165.863       16.658      -14.905       58.104       61.103       36.380     3376.073     3733.608     1323.505        1.822        0.422      166.698       36.100        0.047      342.001       17.103      855.745
10/20/2014  18:41:00     -153.031      -74.738      -13.629       74.685       60.712       34.376     5577.907     3685.926     1181.687        1.982        0.522      170.306       25.640        0.023      341.878       16.894      855.731
10/20/2014  18:42:00      -82.733      -33.772        3.482       47.087       50.932       34.182     2217.194     2594.110     1168.401        0.699        0.299       89.360       31.424        0.124      341.962       17.039      855.714
10/20/2014  18:43:00     -116.675       59.689      -14.108       50.212       43.678       37.110     2521.198     1907.787     1377.168        1.159        0.290      131.057       34.941        0.071      341.848       16.846      855.694
10/20/2014  18:44:00     -193.132        6.871      -13.327       77.377       69.111       43.413     5987.212     4776.364     1884.700        2.508        0.632      193.254       40.388        0.044      341.984       17.074      855.664
10/20/2014  18:45:00     -262.019      -47.075      -10.008      118.616      100.324       64.744    14069.854    10064.824     4191.810        4.964        1.416      266.214       66.376        0.062      341.873       16.884      855.668
10/20/2014  18:46:00     -188.280      -81.690        2.065      102.802       70.917       47.249    10568.321     5029.277     2232.440        2.998        0.892      205.238       53.399        0.068      341.847       16.842      855.664
10/20/2014  18:47:00     -252.793     -105.069      -15.557       89.630       64.229       44.866     8033.544     4125.361     2012.979        4.468        0.709      273.759       43.944        0.026      341.766       16.702      855.662
10/20/2014  18:48:00     -215.218      -70.303       -3.204       74.532       83.479       43.665     5555.023     6968.815     1906.616        3.285        0.722      226.410       38.578        0.029      341.732       16.644      855.658
10/20/2014  18:49:00     -193.673      -46.126      -11.728      110.331       84.775       40.269    12172.825     7186.729     1621.593        3.037        1.049      199.090       46.084        0.054      341.778       16.725      855.655
10/20/2014  18:50:00     -209.081      -49.789      -20.523       58.750       78.111       40.015     3451.563     6101.350     1601.240        2.888        0.558      214.928       27.423        0.016      341.750       16.677      855.646
10/20/2014  18:51:00     -190.970      -63.123      -29.866       94.707       47.913       33.394     8969.490     2295.701     1115.127        2.686        0.619      201.132       36.129        0.032      341.695       16.583      855.648
10/20/2014  18:52:00     -171.383      -54.662      -12.455       63.576       68.299       33.419     4041.901     4664.805     1116.842        2.117        0.491      179.889       24.573        0.019      341.674       16.548      855.643
10/20/2014  18:53:00     -146.676      -70.785      -16.343       56.539       52.477       29.195     3196.678     2753.791      852.326        1.680        0.340      162.864       23.432        0.021      341.680       16.561      855.622
10/20/2014  18:54:00     -155.000      -35.904      -13.968       41.428       38.219       24.984     1716.301     1460.675      624.218        1.465        0.190      159.104       14.393        0.008      341.629       16.471      855.602
10/20/2014  18:55:00      -76.385      -25.685      -15.669       40.930       30.143       19.446     1675.230      908.620      378.147        0.485        0.148       80.588       13.644        0.029      341.660       16.528      855.598
10/20/2014  18:56:00      -21.800      -39.022        0.276       30.507       27.211       18.218      930.690      740.447      331.879        0.200        0.100       44.698       19.101        0.183      341.649       16.508      855.581
10/20/2014  18:57:00       17.302      -12.254        0.379       16.041       28.997       19.060      257.319      840.840      363.271        0.096        0.073       21.202        3.241        0.023      341.661       16.528      855.572
10/20/2014  18:58:00      -50.547      -60.025      -12.403       69.505       48.042       25.183     4830.947     2308.056      634.195        0.704        0.389       78.473       27.284        0.121      341.658       16.524      855.602
10/20/2014  18:59:00     -167.139      -27.554      -10.454       70.344       49.717       34.200     4948.346     2471.759     1169.620        1.870        0.429      169.395       31.196        0.034      341.528       16.302      855.644
10/20/2014  19:00:00      -86.255      -37.169       -5.242       56.732       50.095       21.897     3218.557     2509.517      479.494        0.753        0.310       93.922       22.064        0.055      341.531       16.309      855.685
10/20/2014  19:01:00      -11.904      -86.049       -1.843       30.343       26.548       28.162      920.692      704.815      793.113        0.498        0.121       86.868       17.282        0.040      341.646       16.504      855.684
10/20/2014  19:02:00        4.780      -57.215        6.396       51.697       62.209       35.053     2672.591     3869.903     1228.699        0.555        0.389       57.414       35.257        0.377      341.687       16.572      855.653
10/20/2014  19:03:00      -21.349        9.049       -1.529       31.282       23.303       19.178      978.533      543.033      367.811        0.121        0.094       23.188       14.820        0.408      341.808       16.777      855.631
10/20/2014  19:04:00       10.826       34.021       53.949       37.656       37.658       30.446     1418.004     1418.110      926.986        0.397        0.188       35.702       29.097        0.664      341.715       16.621      855.605
10/20/2014  19:05:00      104.132       34.533       30.205       43.116       31.756       34.268     1858.977     1008.460     1174.266        0.849        0.202      109.709       23.302        0.045      341.679       16.560      855.609
10/20/2014  19:06:00       35.140       58.556       77.592       47.225       47.834       34.507     2230.200     2288.096     1190.731        0.820        0.285       68.291       36.184        0.281      341.659       16.526      855.622
10/20/2014  19:07:00       90.572      -93.292        2.524       53.893       55.734       30.317     2904.483     3106.308      919.103        1.192        0.346      130.026       33.826        0.068      341.745       16.671      855.624
10/20/2014  19:08:00       60.606      -59.592        9.881       63.941       82.469       49.401     4088.487     6801.145     2440.483        1.032        0.667       84.996       62.585        0.542      341.791       16.749      855.609
10/20/2014  19:09:00     -111.675      -38.761        3.800       66.318       51.622       24.488     4398.039     2664.868      599.681        1.082        0.383      118.210       32.755        0.077      341.683       16.566      855.596
10/20/2014  19:10:00     -110.480      -98.914       -9.047       60.692       41.956       30.274     3683.535     1760.282      916.532        1.421        0.318      148.290       27.594        0.035      341.701       16.596      855.564
10/20/2014  19:11:00      -91.177      -72.108       10.772       87.503       52.518       41.768     7656.763     2758.114     1744.555        1.289        0.608      116.244       30.215        0.068      341.696       16.589      855.556
10/20/2014  19:12:00       -4.817      -33.848      -14.201       25.456       42.560       24.908      647.999     1811.389      620.429        0.222        0.154       34.189       12.735        0.139      341.698       16.592      855.576
10/20/2014  19:13:00      -41.515      -15.067       -1.164       27.557       34.540       22.486      759.399     1193.035      505.626        0.220        0.123       44.165       17.287        0.153      341.657       16.523      855.592
10/20/2014  19:14:00       39.330      -61.832       11.208       56.994       45.420       37.789     3248.309     2062.979     1427.996        0.612        0.337       73.280       27.027        0.136      341.798       16.760      855.623
10/20/2014  19:15:00       60.637     -108.436        3.210       58.172       73.367       53.971     3384.015     5382.739     2912.914        1.356        0.584      124.239       48.679        0.154      341.812       16.784      855.654
10/20/2014  19:16:00       -6.135     -117.366      -24.521       71.592       69.914       41.182     5125.484     4887.982     1695.924        1.306        0.585      117.526       34.642        0.087      341.849       16.847      855.664
10/20/2014  19:17:00     -122.954      -71.508       -4.858       83.415       61.904       37.244     6957.995     3832.086     1387.147        1.621        0.609      142.236       32.664        0.053      341.698       16.591      855.657
10/20/2014  19:18:00      -36.502      -93.207       -2.935       69.699       80.694       46.205     4857.968     6511.483     2134.880        1.176        0.675      100.100       41.258        0.170      341.712       16.614      855.664
10/20/2014  19:19:00     -119.322     -134.611      -12.927      101.096       62.123       44.056    10220.394     3859.263     1940.938        2.427        0.801      179.883       22.289        0.015      341.712       16.614      855.678
10/20/2014  19:20:00       67.510      -53.876       24.291       90.477       77.975       45.048     8186.123     6080.157     2029.295        1.217        0.815       86.373       49.143        0.324      341.653       16.514      855.652
10/20/2014  19:21:00       49.490     -121.575        0.409      115.577       90.567       58.873    13358.004     8202.309     3466.013        2.112        1.251      131.262       52.656        0.161      341.703       16.598      855.644
10/20/2014  19:22:00       36.144      -53.565       55.290       68.459      133.608       87.523     4686.576    17851.101     7660.278        1.871        1.510       64.619       94.292        2.129      341.626       16.469      855.625
10/20/2014  19:23:00       14.688     -101.204      -11.415      153.124      109.906       54.008    23447.030    12079.389     2916.830        2.451        1.922      102.265       60.546        0.351      341.645       16.499      855.638
10/20/2014  19:24:00      -92.913        7.185        9.980       80.409       58.242       53.985     6465.678     3392.117     2914.413        1.078        0.639       93.191       46.020        0.244      341.558       16.355      855.614
10/20/2014  19:25:00      -90.976      -61.773        8.996       85.171       59.419       36.730     7254.116     3530.610     1349.124        1.215        0.607      109.966       52.533        0.228      341.569       16.370      855.618
10/20/2014  19:26:00      -24.942       17.126       29.904       63.812       55.001       29.519     4071.926     3025.147      871.350        0.489        0.398       30.256       39.928        1.742      341.599       16.422      855.636
10/20/2014  19:27:00       74.346      -79.093       25.380       52.182       87.262       40.684     2722.937     7614.697     1655.169        1.221        0.600      108.550       49.949        0.212      341.606       16.434      855.650
10/20/2014  19:28:00      -13.334      -13.204       46.724       49.332       67.897       44.262     2433.653     4609.960     1959.107        0.577        0.450       18.765       36.170        3.715      341.539       16.322      855.638
10/20/2014  19:29:00       24.860      -16.880       25.359       93.338       54.743       38.760     8711.966     2996.791     1502.338        0.738        0.661       30.049       30.129        1.005      341.553       16.346      855.647
10/20/2014  19:30:00       -0.456      -28.378       48.483       52.613       89.628       57.222     2768.090     8033.142     3274.381        0.861        0.704       28.382       65.760        5.368      341.532       16.309      855.622
10/20/2014  19:31:00      -12.193     -151.042        2.571      176.938      108.868       58.769    31306.986    11852.318     3453.739        3.478        2.331      151.534       57.133        0.142      341.654       16.515      855.601
10/20/2014  19:32:00       93.373     -220.082      -21.549      119.939      109.952       80.950    14385.375    12089.335     6552.961        4.532        1.651      239.071       64.991        0.074      341.623       16.460      855.598
10/20/2014  19:33:00      -79.124     -223.744       -9.386      104.469      113.811       50.988    10913.830    12952.933     2599.741        4.143        1.323      237.323       46.243        0.038      341.635       16.482      855.629
10/20/2014  19:34:00     -155.581     -114.011       -3.047      143.555       79.515       51.042    20608.067     6322.588     2605.311        3.337        1.477      192.883       52.689        0.075      341.593       16.412      855.600
10/20/2014  19:35:00      -93.748     -239.080       -6.085      135.316      128.214       70.352    18310.396    16438.790     4949.372        5.284        1.985      256.803       73.598        0.082      341.573       16.376      855.619
10/20/2014  19:36:00      -25.475     -231.636       -8.423      123.467       98.281       54.134    15244.191     9659.103     2930.453        4.110        1.392      233.032       41.794        0.032      341.645       16.500      855.631
10/20/2014  19:37:00      103.235     -221.409       -3.780      111.733      139.779       79.255    12484.297    19538.159     6281.376        4.899        1.915      244.294       74.348        0.093      341.576       16.381      855.586
10/20/2014  19:38:00     -122.061     -203.406      -16.478      115.938      117.435       55.683    13441.610    13790.975     3100.572        4.343        1.517      237.219       44.042        0.034      341.546       16.329      855.566
10/20/2014  19:39:00      -43.207     -124.784       13.030       64.410       58.158       41.909     4148.627     3382.395     1756.349        1.345        0.464      132.053       30.757        0.054      341.551       16.341      855.544
10/20/2014  19:40:00      -42.959      -17.663        0.411       44.756       44.394       26.849     2003.077     1970.844      720.873        0.343        0.235       46.449       23.486        0.256      341.484       16.228      855.539
10/20/2014  19:41:00       17.155       13.851       57.539       41.054       88.437       63.534     1685.420     7821.159     4036.607        0.867        0.677       22.049       69.506        9.937      341.516       16.283      855.557
10/20/2014  19:42:00       13.662      -74.300       20.109      136.459      100.720       55.659    18621.082    10144.419     3097.885        1.898        1.593       75.546       59.687        0.624      341.448       16.168      855.564
10/20/2014  19:43:00      -82.860     -147.879        3.149      122.281      107.839       46.128    14952.682    11629.238     2127.795        2.872        1.435      169.511       32.454        0.037      341.455       16.176      855.636
10/20/2014  19:44:00       59.442      -62.822      118.844      121.066      276.362      174.730    14657.022    76375.793    30530.511        7.156        6.078       86.487      201.675        5.438      341.424       16.124      855.579
10/20/2014  19:45:00      155.687     -240.025        1.941      131.433      178.351       79.357    17274.589    31809.198     6297.598        6.861        2.769      286.095      100.918        0.124      341.436       16.146      855.619
10/20/2014  19:46:00      -19.176     -137.082       15.290       92.661      149.071       54.969     8586.074    22222.027     3021.633        2.661        1.691      138.417       52.200        0.142      341.431       16.136      855.658
10/20/2014  19:47:00      104.682     -105.753       22.317      155.094      139.355       79.307    24054.160    19419.728     6289.527        3.619        2.488      148.802       77.491        0.271      341.499       16.251      855.657
10/20/2014  19:48:00     -272.992     -272.238      -35.231      172.566      164.633       72.308    29779.053    27103.934     5228.496       10.598        3.106      385.536       73.671        0.037      341.434       16.139      855.674
10/20/2014  19:49:00     -125.169      -79.600       22.009      161.394      142.214       72.658    26048.024    20224.876     5279.139        3.701        2.578      148.336       79.967        0.291      341.361       16.018      855.664
10/20/2014  19:50:00     -217.825     -165.795        6.077      198.350      124.004       90.645    39342.696    15376.931     8216.484        6.894        3.147      273.744       87.112        0.101      341.373       16.037      855.695
10/20/2014  19:51:00      -73.428     -166.241      -16.719       87.607       92.091       46.696     7675.012     8480.756     2180.472        2.582        0.917      181.735       39.925        0.048      341.428       16.130      855.739
10/20/2014  19:52:00     -222.119     -182.358       10.914      139.320      196.343       64.744    19410.134    38550.493     4191.777        7.242        3.108      287.387       71.976        0.063      341.354       16.005      855.757
10/20/2014  19:53:00     -194.879     -182.483       -4.096      155.010      124.235       84.363    24028.225    15434.249     7117.062        5.893        2.329      266.979       68.822        0.066      341.352       16.002      855.770
10/20/2014  19:54:00     -176.971     -121.991       -0.926      172.985       97.993       66.180    29923.854     9602.691     4379.772        4.505        2.195      214.943       61.687        0.082      341.337       15.976      855.731
10/20/2014  19:55:00      -31.782     -156.812       -8.690       82.995       82.697       41.995     6888.221     6838.867     1763.579        2.058        0.775      160.001       49.649        0.096      341.400       16.082      855.753
10/20/2014  19:56:00       15.215      -95.448      -12.758       83.335      116.440       51.208     6944.678    13558.357     2622.285        1.631        1.156       96.653       63.849        0.436      341.366       16.027      855.824
10/20/2014  19:57:00      -91.460     -121.749       28.733      163.919      109.047       83.384    26869.471    11891.189     6952.810        3.486        2.286      152.276       83.313        0.299      341.402       16.087      855.871
10/20/2014  19:58:00      -22.605      -84.013        2.846       74.913       81.931       49.711     5611.887     6712.666     2471.173        1.118        0.740       87.001       37.423        0.185      341.343       15.990      855.915
10/20/2014  19:59:00       -5.910      -94.874       18.837      172.859      121.159       81.388    29880.193    14679.584     6624.061        3.028        2.559       95.058       80.864        0.724      341.359       16.015      855.997
10/20/2014  20:00:00     -105.701     -106.155       11.883      115.328      131.453       65.936    13300.452    17280.009     4347.570        2.875        1.746      149.805       81.672        0.297      341.335       15.975      856.068
10/20/2014  20:01:00      -34.305      -68.791       20.790      139.323      114.976       70.327    19410.776    13219.497     4945.936        2.195        1.879       76.870       49.453        0.414      341.322       15.953      856.024
10/20/2014  20:02:00     -145.060      -79.767      -19.746      139.148      128.393       54.854    19362.038    16484.700     3008.998        3.332        1.943      165.545       68.627        0.172      341.340       15.982      856.074
10/20/2014  20:03:00     -242.130       17.444      -17.838      102.984      117.302       66.058    10605.728    13759.856     4363.717        4.398        1.436      242.758       69.179        0.081      341.335       15.973      856.038
10/20/2014  20:04:00     -165.269      -37.998       -7.055      195.721      101.061       40.406    38306.836    10213.329     1632.665        3.947        2.508      169.581       55.044        0.105      341.307       15.927      856.009
10/20/2014  20:05:00       23.665      -97.321      -27.797       59.652       58.864       41.042     3558.361     3464.938     1684.434        0.975        0.435      100.157       19.695        0.039      341.435       16.145      856.138
10/20/2014  20:06:00     -203.013      -40.677      -13.287      112.842       46.608       36.830    12733.274     2172.324     1356.438        2.965        0.813      207.048       47.636        0.053      341.277       15.876      856.227
10/20/2014  20:07:00     -209.316      -48.893      -19.370       71.399       52.735       32.757     5097.848     2781.027     1073.026        2.776        0.448      214.951       27.634        0.017      341.239       15.810      856.283
10/20/2014  20:08:00     -111.707       47.273       -1.452       65.719       54.938       33.935     4319.028     3018.202     1151.580        1.160        0.424      121.298       33.894        0.078      341.151       15.666      856.287
10/20/2014  20:09:00     -187.390       -3.111      -12.378       80.681       78.069       35.411     6509.352     6094.734     1253.963        2.457        0.693      187.416       30.142        0.026      341.158       15.673      856.305
10/20/2014  20:10:00     -306.494      -87.463        6.645      142.073      115.903       63.105    20184.830    13433.468     3982.303        6.961        1.880      318.729       64.781        0.041      341.185       15.719      856.363
10/20/2014  20:11:00     -417.250     -164.342        1.598      159.494      114.918       71.798    25438.437    13206.053     5154.894       12.245        2.190      448.449       73.831        0.027      341.211       15.762      856.276
10/20/2014  20:12:00     -264.643     -108.914      -12.582      129.265      149.053       63.589    16709.439    22216.862     4043.596        6.251        2.148      286.178       61.683        0.046      341.183       15.715      856.297
10/20/2014  20:13:00     -312.956      -39.191      -48.326      119.745       84.400       58.297    14338.901     7123.320     3398.597        6.333        1.243      315.400       56.488        0.032      341.212       15.765      856.361
10/20/2014  20:14:00     -222.527       11.173      -14.389       76.418       66.892       30.252     5839.660     4474.480      915.195        3.054        0.561      222.807       30.817        0.019      341.154       15.667      856.468
10/20/2014  20:15:00     -213.137      169.800      -41.567       73.000       74.069       48.162     5328.997     5486.250     2319.595        4.456        0.657      272.505       45.739        0.028      341.025       15.448      856.329
10/20/2014  20:16:00     -336.021       84.507      -40.278      145.479      115.511       51.101    21164.100    13342.808     2611.342        7.939        1.856      346.485       33.560        0.009      340.973       15.359      856.287
10/20/2014  20:17:00     -374.391      -79.448       -4.550      162.102      126.418       74.826    26277.011    15981.439     5598.950        9.717        2.393      382.728       85.008        0.049      340.942       15.307      856.345
10/20/2014  20:18:00     -317.872      -65.545      -36.951      155.564      130.815       61.654    24200.287    17112.518     3801.189        7.590        2.256      324.559       58.636        0.033      340.954       15.327      856.291
10/20/2014  20:19:00     -294.119      -62.377      -21.090      225.681      197.580       71.952    50932.052    39037.753     5177.023        9.298        4.757      300.660       82.711        0.076      340.912       15.257      856.197
10/20/2014  20:20:00     -377.624      -54.964      -19.591      213.227      109.395       77.164    45465.912    11967.329     5954.215       10.469        3.169      381.603      101.427        0.071      340.985       15.381      856.257
10/20/2014  20:21:00     -417.237     -141.310      -29.291       89.496       98.597       55.308     8009.567     9721.374     3058.977       10.785        1.039      440.517       42.779        0.009      341.003       15.411      856.324
10/20/2014  20:22:00     -276.204      -96.951      -17.389       84.368       80.759       41.012     7117.946     6522.067     1681.966        5.065        0.766      292.725       40.079        0.019      340.976       15.365      856.386
10/20/2014  20:23:00     -242.521      -72.587        1.524       96.591       72.325       42.568     9329.787     5230.934     1812.064        4.023        0.819      253.151       52.606        0.043      340.906       15.246      856.466
10/20/2014  20:24:00     -210.002      -86.942       -4.587       70.883       88.330       38.667     5024.330     7802.138     1495.142        3.300        0.716      227.288       35.720        0.025      340.910       15.254      856.498
10/20/2014  20:25:00     -259.928      152.579      -46.691       82.592      131.246       46.034     6821.484    17225.406     2119.097        5.959        1.308      301.401       56.280        0.035      340.902       15.240      856.331
10/20/2014  20:26:00     -171.831      114.748      -33.305       71.535      136.535       50.323     5117.188    18641.898     2532.355        3.504        1.315      206.623       50.352        0.059      341.008       15.421      856.259
10/20/2014  20:27:00      -97.838       10.749       -4.744       43.058       40.040       26.499     1853.961     1603.164      702.179        0.693        0.208       98.426       13.510        0.019      340.942       15.312      856.310
10/20/2014  20:28:00     -246.731     -100.714       -3.241      107.233       70.411       42.472    11498.869     4957.694     1803.912        4.464        0.913      266.495       41.454        0.024      340.931       15.288      856.333
10/20/2014  20:29:00     -215.526      -41.196        4.306      177.332       98.046       61.479    31446.755     9613.086     3779.685        4.650        2.242      219.428       71.839        0.107      340.993       15.393      856.307
10/20/2014  20:30:00     -243.402      -72.571        1.566      127.088       85.067       54.655    16151.388     7236.359     2987.115        4.544        1.319      253.990       53.520        0.044      340.971       15.357      856.414
10/20/2014  20:31:00     -206.075      -33.158        0.608      141.719      131.516       65.782    20084.166    17296.386     4327.304        4.263        2.085      208.725       54.993        0.069      341.065       15.516      856.500
10/20/2014  20:32:00     -169.497      -43.070        6.560      202.824       87.516      102.024    41137.628     7659.039    10408.965        4.491        2.960      174.884      123.464        0.498      341.147       15.655      856.554
10/20/2014  20:33:00     -336.902      -27.980      -24.302      155.626      116.341       66.355    24219.391    13535.182     4402.946        7.851        2.108      338.062       59.210        0.031      341.093       15.563      856.590
10/20/2014  20:34:00     -418.970      -18.884      -34.559      191.849      121.726       78.040    36806.102    14817.179     6090.168       11.739        2.886      419.395       92.025        0.048      341.039       15.473      856.632
10/20/2014  20:35:00     -237.638      -14.345      -29.913      204.075      113.074       57.224    41646.487    12785.730     3274.586        5.763        2.885      238.070       67.540        0.080      341.045       15.483      856.714
10/20/2014  20:36:00     -149.640       81.329       -1.553      141.579      142.536       66.944    20044.648    20316.455     4481.496        3.692        2.242      170.313       56.853        0.111      341.007       15.418      856.675
10/20/2014  20:37:00     -254.860     -219.586       23.702      209.471      137.551       76.869    43878.301    18920.344     5908.865        9.121        3.435      336.410       91.646        0.074      340.958       15.335      856.758
10/20/2014  20:38:00     -348.118     -370.436      -12.011      246.261      152.340       81.832    60644.286    23207.456     6696.497       17.454        4.527      508.340       90.863        0.032      340.897       15.232      856.790
10/20/2014  20:39:00     -390.253     -257.610      -19.203      241.084      174.298       98.760    58121.307    30379.718     9753.632       15.863        4.913      467.611      117.090        0.063      340.705       14.906      856.833
10/20/2014  20:40:00     -579.482     -124.664      -24.233      304.068      197.949      101.293    92457.058    39183.920    10260.243       24.689        7.095      592.739      102.706        0.030      340.472       14.512      856.846
10/20/2014  20:41:00     -674.470     -182.634      -33.574      254.814      166.470       94.446    64930.196    27712.198     8920.108       29.546        5.078      698.759      100.104        0.021      340.228       14.100      856.834
10/20/2014  20:42:00     -455.528     -248.233       -2.471      230.313      189.676      103.511    53043.971    35976.866    10714.479       18.442        4.987      518.773      115.642        0.050      340.160       13.985      856.908
10/20/2014  20:43:00     -145.637     -132.690       27.275      248.784      197.724      106.023    61893.380    39094.636    11240.979        7.588        5.611      197.020      138.014        0.491      340.111       13.903      856.952
10/20/2014  20:44:00     -358.239      -12.716      -13.919      253.686      131.004       86.499    64356.513    17162.034     7482.151       10.883        4.450      358.464      102.472        0.082      339.931       13.601      857.041
10/20/2014  20:45:00     -461.992     -218.308       -8.717      261.055      248.364      112.493    68149.871    61684.526    12654.611       20.181        7.124      510.975      120.288        0.055      339.571       12.993      857.172
10/20/2014  20:46:00     -451.177     -171.783       -4.600      239.518      206.483      116.563    57369.037    42635.160    13586.852       17.332        5.680      482.773      128.626        0.071      339.353       12.623      857.239
10/20/2014  20:47:00     -450.632      -44.181      -11.016      303.889      200.571      120.059    92348.825    40228.780    14414.069       17.604        7.350      452.792      140.413        0.096      339.215       12.393      857.314
10/20/2014  20:48:00     -355.373      -39.361        7.595      309.389      239.318      114.899    95721.671    57273.266    13201.892       14.702        8.310      357.546      148.671        0.173      339.094       12.189      857.351
10/20/2014  20:49:00     -575.148      -19.810      -21.379      299.412      215.721      102.139    89647.829    46535.723    10432.321       23.911        7.331      575.489      132.763        0.053      338.909       11.878      857.419
10/20/2014  20:50:00     -289.845      -60.787       -8.929      194.709      141.058       90.341    37911.612    19897.488     8161.428        7.687        3.299      296.151      105.889        0.128      338.916       11.889      857.451
10/20/2014  20:51:00     -325.753      -80.582       -4.718      194.622      142.069       76.584    37877.569    20183.525     5865.153        8.827        3.196      335.572       84.355        0.063      338.758       11.623      857.448
10/20/2014  20:52:00     -464.666      -58.281      -21.151      223.624      171.176      100.605    50007.827    29301.308    10121.455       15.458        4.472      468.307       94.854        0.041      338.605       11.368      857.448
10/20/2014  20:53:00     -498.031     -116.185      -19.148      301.973      238.309      103.098    91187.497    56791.207    10629.236       21.023        7.930      511.404      122.985        0.058      338.538       11.254      857.460
10/20/2014  20:54:00     -353.282     -159.978       -0.344      240.589      170.985       97.112    57883.204    29235.852     9430.704       12.346        4.827      387.816      121.730        0.099      338.509       11.205      857.511
10/20/2014  20:55:00     -577.030     -138.593      -34.457      192.375      161.272       94.817    37008.016    26008.604     8990.181       21.267        3.600      593.440      104.369        0.031      338.400       11.023      857.547
10/20/2014  20:56:00     -381.620     -117.117      -21.285      188.649      127.646       79.235    35588.393    16293.526     6278.156       10.897        2.908      399.187       88.118        0.049      338.443       11.094      857.576
10/20/2014  20:57:00     -119.780     -118.903       16.291      131.123      146.807       67.470    17193.242    21552.203     4552.140        3.602        2.165      168.775       70.924        0.177      338.490       11.174      857.570
10/20/2014  20:58:00     -119.639      -29.760        6.599      152.370       82.752       51.801    23216.503     6847.969     2683.328        2.399        1.637      123.285       77.962        0.400      338.525       11.235      857.613
10/20/2014  20:59:00     -250.789      -44.777      -14.099      110.949       83.336       62.610    12309.651     6944.837     3919.980        4.413        1.159      254.755       60.817        0.057      338.439       11.088      857.640
10/20/2014  21:00:00     -177.945      -45.978      -14.717       86.691       75.070       40.754     7515.411     5635.434     1660.850        2.440        0.741      183.789       31.545        0.029      338.420       11.057      857.655
10/20/2014  21:01:00      -38.830       67.463        0.032       32.551       57.595       35.568     1059.583     3317.194     1265.088        0.585        0.282       77.840       33.442        0.185      338.461       11.129      857.670
10/20/2014  21:02:00       -6.102      -45.853        1.897       71.461      103.775       38.857     5106.699    10769.317     1509.900        0.976        0.869       46.258       47.254        1.044      338.533       11.250      857.679
10/20/2014  21:03:00        0.302        4.718       53.253       61.083       72.006       33.131     3731.119     5184.897     1097.660        0.643        0.501        4.727       30.805       42.462      338.482       11.163      857.649
10/20/2014  21:04:00       81.722       73.586        0.349       49.220       55.843       50.475     2422.608     3118.494     2547.718        1.009        0.404      109.970       27.833        0.064      338.432       11.080      857.565
10/20/2014  21:05:00       -5.886      123.394       -5.404       57.770       94.109       35.151     3337.318     8856.433     1235.570        1.436        0.671      123.535       41.340        0.112      338.444       11.097      857.509
10/20/2014  21:06:00      -19.606      171.201      -10.473       41.755       58.728       40.729     1743.491     3449.012     1658.837        1.833        0.343      172.320       34.462        0.040      338.491       11.178      857.471
10/20/2014  21:07:00     -101.512      103.668      -15.998       50.310       66.640       36.902     2531.130     4440.893     1361.788        1.482        0.417      145.092       27.748        0.037      338.516       11.219      857.432
10/20/2014  21:08:00     -180.159       92.233      -28.530       51.629       64.467       31.235     2665.561     4155.942      975.651        2.479        0.390      202.396       27.677        0.019      338.534       11.248      857.432
10/20/2014  21:09:00     -224.492       46.217      -29.416       40.532       42.575       24.222     1642.837     1812.638      586.713        2.872        0.202      229.200       16.732        0.005      338.488       11.168      857.450
10/20/2014  21:10:00     -318.415       66.318      -43.124       69.706       80.895       39.420     4858.866     6544.070     1553.928        6.030        0.648      325.248       35.649        0.012      338.519       11.221      857.463
10/20/2014  21:11:00     -162.833       68.541      -18.532       58.116       48.539       33.536     3377.466     2356.033     1124.653        1.921        0.343      176.671       25.450        0.021      338.558       11.291      857.451
10/20/2014  21:12:00     -159.848      162.551      -35.708       53.618       66.699       34.772     2874.900     4448.779     1209.079        3.089        0.427      227.978       19.504        0.007      338.559       11.290      857.381
10/20/2014  21:13:00     -218.134      200.252      -53.349       67.977       78.105       54.677     4620.933     6100.313     2989.609        5.212        0.686      296.114       46.210        0.024      338.571       11.310      857.298
10/20/2014  21:14:00     -274.381      178.541      -54.872       91.268       88.842       58.993     8329.800     7892.848     3480.186        6.493        0.985      327.356       50.808        0.024      338.602       11.361      857.203
10/20/2014  21:15:00     -350.475      -32.375      -43.652      212.438      232.728       97.153    45129.718    54162.384     9438.756       11.724        5.437      351.967      108.916        0.096      338.695       11.517      857.080
10/20/2014  21:16:00     -385.726       68.565      -38.681      188.228      249.021       72.578    35429.795    62011.344     5267.602       12.883        5.135      391.772       78.148        0.040      338.690       11.510      857.049
10/20/2014  21:17:00     -330.892      175.790      -57.778      188.592      187.230       78.780    35566.851    35055.011     6206.324       11.027        3.841      374.688       60.022        0.026      338.671       11.476      857.030
10/20/2014  21:18:00     -394.120       61.819      -42.769      189.328      168.553       86.331    35844.967    28410.082     7453.066       11.633        3.585      398.939       92.052        0.053      338.679       11.491      856.917
10/20/2014  21:19:00     -129.724      140.090      -10.349      111.800      159.278       74.002    12499.252    25369.370     5476.230        3.995        2.167      190.928       70.659        0.137      338.689       11.509      856.977
10/20/2014  21:20:00     -109.358      116.743      -16.384      192.040      131.896       94.258    36879.503    17396.515     8884.485        4.450        3.158      159.963       95.846        0.359      338.711       11.544      857.042
10/20/2014  21:21:00     -172.238      139.820      -46.340      117.865      149.032       71.132    13892.104    22210.650     5059.757        4.626        2.058      221.846       76.042        0.117      338.786       11.672      857.129
10/20/2014  21:22:00     -217.943       21.007      -44.024      123.762       98.762       79.715    15317.061     9753.852     6354.466        4.065        1.571      218.953       62.998        0.083      338.809       11.710      857.215
10/20/2014  21:23:00      -65.700       67.155       20.919       83.802      100.433       62.566     7022.743    10086.771     3914.514        1.514        1.051       93.949       62.083        0.437      338.970       11.985      857.247
10/20/2014  21:24:00      -55.521       63.201       17.929       74.993       87.150       52.137     5623.929     7595.143     2718.246        1.167        0.797       84.125       51.657        0.377      338.947       11.944      857.249
10/20/2014  21:25:00      -57.864       87.261      -11.169       50.747       67.996       47.317     2575.294     4623.420     2238.893        1.026        0.472      104.703       37.992        0.132      338.917       11.894      857.211
10/20/2014  21:26:00     -199.002      -52.561       -8.414       57.522      101.251       47.105     3308.739    10251.832     2218.880        2.910        0.789      205.827       22.726        0.012      338.992       12.017      857.149
10/20/2014  21:27:00     -301.755      -85.089        5.575      169.525      129.795       59.834    28738.770    16846.718     3580.141        7.374        2.458      313.522       72.621        0.054      339.228       12.415      857.107
10/20/2014  21:28:00     -480.567      -48.969      -17.696      155.249      101.872       68.470    24102.185    10377.994     4688.089       13.641        1.958      483.055       75.426        0.024      339.522       12.909      857.136
10/20/2014  21:29:00     -409.467     -140.116      -32.631      159.351      142.277       69.822    25392.863    20242.764     4875.146       11.943        2.526      432.776       53.034        0.015      339.526       12.915      857.072
10/20/2014  21:30:00     -568.556      -79.874      -33.150      192.355      136.499       90.635    37000.419    18631.930     8214.724       19.728        3.192      574.140       93.734        0.027      339.281       12.503      857.140
10/20/2014  21:31:00     -574.327      -57.633      -57.490      146.110      150.010       58.136    21348.006    22502.923     3379.791       19.185        2.362      577.212       66.197        0.013      339.201       12.369      857.192
10/20/2014  21:32:00     -232.636     -117.478       -8.324      165.239      115.173       69.605    27303.834    13264.870     4844.839        5.669        2.271      260.616       75.585        0.084      339.212       12.389      857.269
10/20/2014  21:33:00     -425.492     -120.779      -33.509      139.283      101.198       63.602    19399.822    10240.950     4045.241       11.521        1.684      442.302       61.889        0.020      339.285       12.509      857.272
10/20/2014  21:34:00     -309.924      -50.049      -17.442      192.323      110.055       72.930    36988.285    12112.093     5318.768        7.663        2.721      313.939       78.875        0.063      339.331       12.588      857.294
10/20/2014  21:35:00     -406.394     -138.556       -9.472      152.378      154.521       71.981    23219.086    23876.875     5181.211       11.835        2.614      429.364       73.440        0.029      339.366       12.647      857.324
10/20/2014  21:36:00     -377.495      -75.475      -13.332      223.096      140.836       79.019    49771.822    19834.803     6244.039       11.210        3.793      384.966       88.056        0.052      339.336       12.596      857.427
10/20/2014  21:37:00     -288.628      -78.844        0.770      245.604      212.538       78.507    60321.237    45172.320     6163.384       10.057        5.583      299.203       86.758        0.084      339.305       12.544      857.528
10/20/2014  21:38:00     -302.696      -95.778       -2.579      235.445      143.695       83.699    55434.387    20648.172     7005.565        9.193        4.154      317.488      100.909        0.101      339.284       12.508      857.600
10/20/2014  21:39:00     -367.446     -100.189      -17.253      218.823      153.362       91.678    47883.655    23519.883     8404.846       11.257        3.990      380.860      107.946        0.080      339.299       12.533      857.642
10/20/2014  21:40:00     -371.249      -47.956      -17.290      155.427      140.001       69.114    24157.460    19600.233     4776.811        9.447        2.427      374.333       71.771        0.037      339.344       12.609      857.640
10/20/2014  21:41:00     -528.221     -150.182      -27.912      211.741      184.281       94.802    44834.251    33959.404     8987.382       19.505        4.389      549.156       86.887        0.025      339.341       12.603      857.564
10/20/2014  21:42:00     -495.879      -90.687       -0.753      243.589      240.159      118.008    59335.763    57676.196    13925.835       19.251        6.547      504.104      126.976        0.063      339.245       12.443      857.551
10/20/2014  21:43:00     -614.839     -126.143       -8.845      229.184      148.793      104.880    52525.377    22139.403    10999.857       23.983        4.283      627.646      112.431        0.032      339.104       12.205      857.587
10/20/2014  21:44:00     -485.927     -130.585      -19.909      176.398      147.922       87.733    31116.418    21880.826     7697.085       15.712        3.035      503.167       96.689        0.037      339.150       12.284      857.630
10/20/2014  21:45:00     -333.323      -58.154      -15.804      151.785      143.148       73.640    23038.711    20491.425     5422.884        8.184        2.448      338.358       75.433        0.050      339.141       12.267      857.699
10/20/2014  21:46:00     -416.278      -99.567      -18.750      151.901      144.258       69.777    23073.917    20810.474     4868.801       11.614        2.438      428.020       58.329        0.019      339.094       12.189      857.724
10/20/2014  21:47:00     -400.238      -73.303      -22.070      161.550      111.463       72.589    26098.389    12423.951     5269.151       10.491        2.190      406.895       78.313        0.037      339.125       12.242      857.732
10/20/2014  21:48:00     -305.453      -80.144       -7.019      193.338      118.601       74.523    37379.679    14066.285     5553.626        7.838        2.850      315.792       81.973        0.067      339.169       12.315      857.766
10/20/2014  21:49:00     -226.585      -22.774       -2.539      173.585       86.872       61.204    30131.647     7546.736     3745.966        4.664        2.071      227.727       72.238        0.101      339.113       12.222      857.823
10/20/2014  21:50:00     -296.326        5.564      -22.418      107.347       85.111       49.640    11523.385     7243.869     2464.174        5.478        1.062      296.379       50.501        0.029      339.025       12.073      857.819
10/20/2014  21:51:00     -358.402     -146.469       -7.558      114.014       96.750       71.061    12999.289     9360.585     5049.613        8.868        1.370      387.175       68.732        0.032      338.995       12.023      857.802
10/20/2014  21:52:00     -247.573      -69.502       -3.832      133.987       86.268       50.979    17952.613     7442.176     2598.842        4.706        1.400      257.144       56.418        0.048      339.031       12.083      857.867
10/20/2014  21:53:00     -239.385      -22.225        4.385      173.713       71.776       40.309    30176.201     5151.848     1624.828        4.738        1.848      240.414       62.932        0.069      338.962       11.967      857.882
10/20/2014  21:54:00     -324.483      -75.035      -22.142      153.229      109.405       62.907    23479.027    11969.459     3957.294        7.540        1.970      333.046       80.461        0.058      338.977       11.994      857.853
10/20/2014  21:55:00     -252.038      -35.417        5.682      144.464      140.005       72.354    20869.730    19601.414     5235.162        5.525        2.285      254.514       71.227        0.078      338.944       11.939      857.812
10/20/2014  21:56:00     -374.775       32.957      -31.993      113.809      118.287       60.229    12952.436    13991.832     3627.500        8.656        1.529      376.221       55.100        0.021      338.863       11.802      857.765
10/20/2014  21:57:00     -249.767      -69.276      -19.183      120.812       72.543       45.668    14595.483     5262.523     2085.608        4.474        1.097      259.196       55.299        0.046      338.871       11.813      857.699
10/20/2014  21:58:00     -221.035      -73.379       -5.168       88.662       74.328       35.910     7860.987     5524.671     1289.535        3.447        0.734      232.897       29.873        0.016      338.916       11.891      857.700
10/20/2014  21:59:00     -244.795      -59.651      -28.034       80.582       71.484       51.094     6493.426     5109.937     2610.629        3.924        0.711      251.958       35.078        0.019      338.912       11.882      857.674
10/20/2014  22:00:00     -308.544     -148.400       -8.222      139.794      117.457       69.868    19542.436    13796.203     4881.553        7.775        1.911      342.377       74.367        0.047      338.861       11.797      857.638
10/20/2014  22:01:00     -251.120      -60.740      -11.495      120.755      123.337       58.164    14581.799    15211.939     3383.016        5.002        1.659      258.362       48.473        0.035      338.877       11.824      857.710
10/20/2014  22:02:00     -249.739      -32.981       -4.131      168.548      134.065       58.061    28408.405    17973.402     3371.031        5.661        2.488      251.908       74.061        0.086      338.864       11.803      857.736
10/20/2014  22:03:00     -166.851     -125.592        4.058      185.103       95.825       66.794    34263.160     9182.488     4461.398        4.576        2.395      208.836       92.589        0.197      338.888       11.844      857.806
10/20/2014  22:04:00     -201.381      -97.641        3.646      118.857       98.910       54.729    14127.009     9783.173     2995.242        3.850        1.345      223.803       66.886        0.089      338.832       11.749      857.886
10/20/2014  22:05:00      -72.029      -34.093       10.178       88.479       81.484       54.538     7828.608     6639.628     2974.412        1.195        0.872       79.691       44.207        0.308      338.793       11.685      857.933
10/20/2014  22:06:00     -136.953     -103.397       20.484      118.215       94.607       45.844    13974.728     8950.544     2101.658        2.744        1.251      171.601       59.266        0.119      338.774       11.652      858.037
10/20/2014  22:07:00      -77.337      -65.291        6.449       50.407       40.083       32.954     2540.833     1606.680     1085.953        0.776        0.262      101.212       25.216        0.062      338.791       11.683      858.146
10/20/2014  22:08:00     -282.492       45.219      -23.854      111.593       75.116       56.992    12453.054     5642.449     3248.118        5.188        1.067      286.088       51.118        0.032      338.687       11.504      858.220
10/20/2014  22:09:00     -298.484     -180.128       -2.192      173.109      130.305       74.333    29966.627    16979.288     5525.361        8.700        2.624      348.624       83.035        0.057      338.618       11.389      858.227
10/20/2014  22:10:00     -261.396     -151.373       -5.129      152.531      139.050       73.932    23265.681    19335.006     5466.006        6.966        2.403      302.062       84.999        0.079      338.561       11.293      858.290
10/20/2014  22:11:00     -309.300      -92.367      -22.204      102.338      149.549       56.197    10473.168    22364.902     3158.061        7.034        1.800      322.798       44.682        0.019      338.548       11.271      858.329
10/20/2014  22:12:00     -160.762      -91.362       -1.652      107.551      128.483       50.676    11567.181    16507.931     2568.028        3.241        1.532      184.909       49.104        0.071      338.535       11.251      858.392
10/20/2014  22:13:00     -253.917     -206.696        7.195      168.038       97.915       83.463    28236.866     9587.303     6966.011        7.601        2.240      327.409       84.314        0.066      338.467       11.133      858.409
10/20/2014  22:14:00     -185.999     -123.911       -3.862      126.533       87.732       70.029    16010.532     7696.903     4904.072        3.928        1.431      223.494       68.837        0.095      338.471       11.141      858.486
10/20/2014  22:15:00      -85.889       37.468       13.398      138.500       78.930       60.505    19182.140     6229.942     3660.824        1.901        1.454       93.706       65.997        0.496      338.465       11.133      858.542
10/20/2014  22:16:00     -232.753       36.673      -16.659      103.189       70.318       40.555    10647.949     4944.670     1644.679        3.651        0.862      235.624       36.618        0.024      338.352       10.943      858.593
10/20/2014  22:17:00      -98.545      -72.787       12.054       91.294       92.540       59.979     8334.563     8563.641     3597.483        1.782        1.025      122.511       60.489        0.244      338.411       11.041      858.627
10/20/2014  22:18:00      -13.113        7.572       31.850       59.209       73.365       34.501     3505.663     5382.441     1190.350        0.566        0.504       15.142       20.769        1.881      338.415       11.050      858.610
10/20/2014  22:19:00      -41.929       34.347        6.291       92.082       57.576       37.402     8479.038     3314.951     1398.913        0.808        0.660       54.201       44.418        0.672      338.356       10.952      858.525
10/20/2014  22:20:00     -201.237      -26.246      -18.715       83.018      118.309       32.100     6891.977    13996.928     1030.432        3.172        1.096      202.941       13.654        0.005      338.321       10.892      858.530
10/20/2014  22:21:00     -235.287     -191.554        0.962      162.396      106.601       81.202    26372.516    11363.753     6593.747        6.818        2.217      303.403       98.164        0.105      338.262       10.792      858.556
10/20/2014  22:22:00     -246.811     -114.183      -22.087      106.807       99.447       51.194    11407.774     9889.629     2620.858        4.918        1.196      271.944       30.966        0.013      338.244       10.761      858.523
10/20/2014  22:23:00     -242.202      -80.251       -7.494      122.864      109.497       45.820    15095.523    11989.500     2099.486        4.717        1.459      255.151       48.387        0.036      338.261       10.791      858.686
10/20/2014  22:24:00     -288.449        6.942      -11.207      133.810       84.704       63.449    17905.128     7174.743     4025.746        5.624        1.455      288.532       66.595        0.053      338.190       10.670      858.716
10/20/2014  22:25:00     -136.466      -55.827        9.834      101.481      101.925       47.603    10298.427    10388.793     2266.005        2.239        1.148      147.443       49.802        0.114      338.236       10.747      858.656
10/20/2014  22:26:00     -276.974       -6.859       -5.358      143.964      128.933       63.772    20725.694    16623.794     4066.841        5.910        2.071      277.059       65.199        0.055      338.123       10.559      858.649
10/20/2014  22:27:00     -418.638     -193.927      -21.504      162.328      151.878       82.561    26350.266    23067.034     6816.375       13.477        2.812      461.373       83.471        0.033      338.070       10.469      858.541
10/20/2014  22:28:00     -260.181       10.504       -1.600      147.604      114.098       80.192    21786.945    13018.403     6430.696        5.451        2.062      260.393       70.757        0.074      338.055       10.444      858.501
10/20/2014  22:29:00     -104.083      -77.095        5.740      102.419       86.514       48.592    10489.552     7484.679     2361.155        1.857        1.017      129.526       44.921        0.120      338.038       10.416      858.474
10/20/2014  22:30:00     -217.937     -105.575       16.651      112.278      162.527       69.990    12606.283    26414.980     4898.569        5.141        2.196      242.162       56.089        0.054      337.973       10.306      858.424
10/20/2014  22:31:00     -225.951     -186.269       -3.284      136.726      128.860       72.648    18693.973    16604.852     5277.779        6.316        2.029      292.831       67.444        0.053      337.937       10.244      858.388
10/20/2014  22:32:00     -240.089     -141.466      -33.308      155.823      119.257       64.835    24280.925    14222.198     4203.529        6.073        2.135      278.667       38.826        0.019      337.918       10.213      858.398
10/20/2014  22:33:00     -168.734     -126.928        8.531      145.855      159.938       83.457    21273.561    25580.262     6964.997        4.923        2.691      211.144       83.282        0.156      337.869       10.131      858.456
10/20/2014  22:34:00     -114.248     -134.480       24.779      131.144      120.708       74.191    17198.793    14570.452     5504.246        3.451        1.864      176.459       79.853        0.205      337.882       10.153      858.579
10/20/2014  22:35:00     -227.652     -152.416       -2.612      148.723      115.426       69.598    22118.395    13323.253     4843.900        5.767        2.014      273.964       74.212        0.073      337.830       10.065      858.646
10/20/2014  22:36:00     -207.705     -111.305        5.516      211.376      158.684       89.345    44679.940    25180.623     7982.570        6.669        3.892      235.648      119.413        0.257      337.825       10.058      858.684
10/20/2014  22:37:00     -318.357     -205.286       -5.050      176.245      123.716       75.508    31062.469    15305.605     5701.413        9.779        2.603      378.806       61.993        0.027      337.802       10.018      858.757
10/20/2014  22:38:00     -378.748      -72.147      -13.260      205.267      191.444       92.557    42134.528    36650.618     8566.887       11.808        4.368      385.559       89.939        0.054      337.794       10.005      858.772
10/20/2014  22:39:00     -294.242     -164.878      -11.426      131.198      151.787       72.918    17213.010    23039.395     5316.976        7.972        2.278      337.288       63.910        0.036      337.806       10.025      858.805
10/20/2014  22:40:00     -261.186      -18.456       -8.954      155.025      102.828       69.770    24032.622    10573.641     4867.905        5.405        1.974      261.837       76.912        0.086      337.761        9.950      858.816
10/20/2014  22:41:00     -252.114       22.073       -8.523      127.342      116.781       59.465    16215.891    13637.904     3536.098        4.875        1.669      253.079       61.295        0.059      337.730        9.899      858.839
10/20/2014  22:42:00     -253.548      -46.848      -16.547      130.492       86.204       57.108    17028.208     7431.052     3261.348        4.723        1.386      257.840       64.246        0.062      337.724        9.890      858.862
10/20/2014  22:43:00     -152.534       30.430        3.803      101.875       68.817       49.269    10378.483     4735.729     2427.458        2.087        0.877      155.540       54.168        0.121      337.729        9.897      858.903
10/20/2014  22:44:00     -282.290      -91.066      -13.951      106.634       95.446       53.153    11370.852     9109.980     2825.249        5.574        1.165      296.615       52.830        0.032      337.717        9.877      858.933
10/20/2014  22:45:00     -230.424      -56.443        9.127      155.062       92.760       56.010    24044.228     8604.357     3137.112        4.607        1.789      237.237       66.701        0.079      337.700        9.848      858.967
10/20/2014  22:46:00     -152.320      -20.969       -4.460       66.304       82.713       35.897     4396.201     6841.428     1288.603        1.809        0.626      153.757       30.734        0.040      337.718        9.881      858.994
10/20/2014  22:47:00     -213.278      -20.123      -13.346       64.439       85.999       34.706     4152.349     7395.794     1204.492        2.941        0.638      214.226       33.318        0.024      337.725        9.890      859.046
10/20/2014  22:48:00     -129.669      -52.498      -13.113       92.527       52.284       35.619     8561.279     2733.652     1268.696        1.615        0.628      139.893       50.600        0.131      337.746        9.926      859.054
10/20/2014  22:49:00      -42.904      -21.408        1.541       96.139       52.517       39.893     9242.714     2758.071     1591.440        0.794        0.680       47.948       46.208        0.929      337.743        9.921      859.053
10/20/2014  22:50:00     -160.155       36.118      -12.318       81.752       41.268       29.791     6683.345     1703.024      887.475        1.819        0.464      164.177       33.942        0.043      337.651        9.769      859.022
10/20/2014  22:51:00     -284.650     -123.726       -9.375      110.484       98.531       46.317    12206.808     9708.405     2145.287        6.024        1.203      310.377       39.392        0.016      337.659        9.778      858.976
10/20/2014  22:52:00     -290.526      -46.150       -7.504      279.745      121.368       74.746    78257.090    14730.083     5587.008        9.257        4.929      294.169      118.274        0.162      337.668        9.796      858.958
10/20/2014  22:53:00     -382.595     -109.894      -18.946      161.531      136.699       65.929    26092.323    18686.621     4346.691       10.396        2.456      398.064       71.837        0.033      337.616        9.706      858.927
10/20/2014  22:54:00      -85.661      -31.518        7.998       85.619       80.189       55.850     7330.622     6430.197     3119.219        1.263        0.844       91.275       52.042        0.325      337.633        9.738      858.898
10/20/2014  22:55:00     -186.275     -119.348       -3.941      137.705      121.963       73.070    18962.596    14875.077     5339.206        4.406        1.959      221.229       62.296        0.079      337.598        9.679      858.879
10/20/2014  22:56:00     -206.080      -66.725        4.284      145.805      116.679       69.046    21259.168    13613.888     4767.395        4.328        1.982      216.613       75.107        0.120      337.610        9.698      858.863
10/20/2014  22:57:00      -72.757      -58.094       16.401      106.974       80.981       53.751    11443.540     6558.002     2889.158        1.491        1.045       93.105       59.536        0.409      337.599        9.681      858.837
10/20/2014  22:58:00     -262.517     -152.209       -3.432      169.747      145.914       80.345    28814.005    21291.003     6455.353        7.432        2.828      303.451       87.639        0.083      337.578        9.644      858.841
10/20/2014  22:59:00     -310.992     -136.830      -13.399      161.319      151.787       83.466    26023.890    23039.415     6966.510        8.581        2.801      339.762       80.432        0.056      337.569        9.628      858.865
10/20/2014  23:00:00     -322.981     -195.914       -0.061      212.547      168.171       90.098    45176.028    28281.505     8117.601       11.212        4.079      377.755      103.603        0.075      337.577        9.641      858.845
10/20/2014  23:01:00     -443.971     -266.025      -16.740      253.089      214.332       88.824    64054.184    45938.388     7889.665       19.300        5.894      517.571      103.221        0.040      337.544        9.585      858.853
10/20/2014  23:02:00     -390.623     -288.092       -3.408      200.673      152.275       91.893    40269.668    23187.575     8444.324       15.374        3.595      485.369      108.708        0.050      337.556        9.606      858.879
10/20/2014  23:03:00     -318.210     -269.400       -1.576      177.470      139.967       96.558    31495.717    19590.782     9323.481       11.711        3.020      416.934       98.254        0.056      337.569        9.628      858.893
10/20/2014  23:04:00     -386.149     -174.526        7.704      169.956      151.904       99.434    28884.901    23074.971     9887.134       12.073        3.092      423.758       93.460        0.049      337.583        9.651      858.901
10/20/2014  23:05:00     -234.554     -136.531       15.604      144.275      132.565       78.824    20815.360    17573.478     6213.261        5.924        2.230      271.397       72.693        0.072      337.550        9.595      858.894
10/20/2014  23:06:00     -284.370      -77.776        1.554      107.465      146.028       63.927    11548.680    21324.288     4086.709        6.193        1.848      294.814       62.271        0.045      337.531        9.563      858.892
10/20/2014  23:07:00     -286.526      -98.426       -2.794      208.551      105.127       74.757    43493.595    11051.585     5588.539        7.595        3.007      302.960       96.607        0.102      337.539        9.578      858.846
10/20/2014  23:08:00     -301.541     -306.098      -20.454      125.284      125.616       65.069    15696.027    15779.453     4233.946       11.037        1.785      429.677       58.718        0.019      337.537        9.573      858.861
10/20/2014  23:09:00     -256.959     -143.892       -7.324      139.537      131.361       62.675    19470.573    17255.616     3928.103        6.371        2.033      294.504       74.009        0.063      337.510        9.531      858.864
10/20/2014  23:10:00     -276.746     -125.632        5.099      141.448      112.632       59.230    20007.624    12686.077     3508.194        6.429        1.810      303.928       56.724        0.035      337.544        9.586      858.897
10/20/2014  23:11:00     -299.949     -110.825        3.744      159.170      104.712       70.516    25335.112    10964.668     4972.501        7.176        2.064      319.768       81.601        0.065      337.538        9.575      858.945
10/20/2014  23:12:00     -143.536      -61.635       14.122      131.419       91.102       64.642    17270.885     8299.531     4178.530        2.717        1.487      156.210       67.997        0.189      337.548        9.593      858.974
10/20/2014  23:13:00     -193.415      -70.247        1.995      114.152       85.712       52.810    13030.609     7346.624     2788.909        3.275        1.158      205.776       61.540        0.089      337.528        9.560      859.013
10/20/2014  23:14:00     -157.660     -125.199       -5.486       85.465       86.664       46.918     7304.323     7510.736     2201.291        2.879        0.851      201.325       39.493        0.038      337.560        9.613      859.026
10/20/2014  23:15:00     -345.465     -173.597      -16.973      218.726      100.080       80.707    47840.906    10016.076     6513.638       10.706        3.219      386.629       93.595        0.059      337.551        9.599      859.044
10/20/2014  23:16:00     -318.560     -155.077       -7.344      223.009      157.051       78.576    49732.834    24665.146     6174.117       10.306        4.029      354.301       92.044        0.067      337.581        9.648      859.082
10/20/2014  23:17:00     -255.527      -64.044       13.481      147.871      125.692       80.715    21865.962    15798.440     6514.965        5.687        2.209      263.430       81.761        0.096      337.559        9.612      859.168
10/20/2014  23:18:00     -272.421      -37.975        0.067      188.326      126.469       78.250    35466.732    15994.432     6123.046        6.661        2.879      275.055       85.313        0.096      337.558        9.610      859.210
10/20/2014  23:19:00     -256.391      -35.630       -6.538      107.437       84.780       56.657    11542.784     7187.638     3210.060        4.449        1.097      258.855       55.497        0.046      337.554        9.602      859.208
10/20/2014  23:20:00     -203.138      -83.130        0.143       85.423       98.905       49.833     7297.160     9782.135     2483.362        3.387        0.978      219.489       42.801        0.038      337.519        9.545      859.235
10/20/2014  23:21:00     -133.987      -39.093       12.213      100.829       88.166       55.749    10166.528     7773.219     3107.936        2.034        1.052      139.574       58.206        0.174      337.534        9.571      859.285
10/20/2014  23:22:00     -281.337      -63.127        5.636      111.258       94.970       55.873    12378.327     9019.376     3121.835        5.384        1.226      288.333       53.323        0.034      337.533        9.566      859.330
10/20/2014  23:23:00     -315.928      -75.737      -10.518      130.979      135.449       63.225    17155.532    18346.356     3997.419        7.257        1.975      324.879       66.469        0.042      337.543        9.585      859.361
10/20/2014  23:24:00     -268.878       14.003      -17.878      139.413       89.048       48.206    19435.894     7929.526     2323.785        5.125        1.484      269.243       61.597        0.052      337.579        9.643      859.399
10/20/2014  23:25:00     -346.226     -106.087       -9.853      179.665       94.245       63.438    32279.663     8882.088     4024.397        8.820        2.259      362.115       75.755        0.044      337.598        9.678      859.432
10/20/2014  23:26:00     -247.214      -27.539        5.312      151.560       95.525       58.617    22970.329     9125.100     3435.920        4.871        1.777      248.743       64.038        0.066      337.556        9.608      859.482
10/20/2014  23:27:00     -371.856      -44.191      -22.240      127.636       89.370       52.681    16290.902     7987.015     2775.334        8.388        1.353      374.472       60.644        0.026      337.533        9.567      859.515
10/20/2014  23:28:00     -415.328      -93.885      -10.858      118.453       97.805       64.472    14031.065     9565.754     4156.678       10.459        1.388      425.807       65.911        0.024      337.528        9.557      859.530
10/20/2014  23:29:00     -215.001      -72.786       -5.419      151.208      107.229       59.436    22863.832    11497.952     3532.668        4.472        1.895      226.988       65.401        0.083      337.558        9.609      859.511
10/20/2014  23:30:00     -304.697      -78.831      -17.074      113.349      104.837       61.622    12848.074    10990.786     3797.327        6.349        1.382      314.729       54.445        0.030      337.527        9.557      859.544
10/20/2014  23:31:00     -327.875     -188.646      -12.403      167.361      143.705       74.421    28009.541    20651.235     5538.510        9.871        2.710      378.271       69.405        0.034      337.588        9.659      859.550
10/20/2014  23:32:00     -284.903      -85.598      -10.143      194.152      127.397       81.058    37695.155    16230.087     6570.458        7.454        3.025      297.484       91.221        0.094      337.612        9.701      859.527
10/20/2014  23:33:00     -226.357      -91.434        1.945      137.273      112.589       63.642    18843.934    12676.228     4050.289        4.758        1.779      244.126       59.701        0.060      337.601        9.681      859.574
10/20/2014  23:34:00     -203.837     -137.112      -16.329      109.524      113.163       60.547    11995.615    12805.841     3665.987        4.454        1.423      245.660       51.637        0.044      337.606        9.689      859.588
10/20/2014  23:35:00     -338.370     -117.546      -14.578      180.448      149.219       67.305    32561.439    22266.186     4529.930        9.393        2.968      358.205       73.219        0.042      337.586        9.656      859.578
10/20/2014  23:36:00     -344.065     -127.293      -21.807      124.655      103.897       53.447    15538.897    10794.494     2856.614        8.212        1.460      366.858       27.869        0.006      337.619        9.713      859.569
10/20/2014  23:37:00     -150.654      -71.240        1.309      128.220      104.600       57.294    16440.437    10941.094     3282.610        2.921        1.533      166.649       58.192        0.122      337.553        9.601      859.602
10/20/2014  23:38:00     -478.525      -76.849      -25.348      242.535      155.059       76.611    58823.388    24043.241     5869.264       16.212        4.437      484.657       99.588        0.042      337.625        9.722      859.604
10/20/2014  23:39:00     -492.831     -137.086      -21.095      198.310      172.546       90.810    39326.937    29772.052     8246.394       16.972        3.867      511.542      103.950        0.041      337.639        9.747      859.550
10/20/2014  23:40:00     -409.523     -160.138      -15.863      147.881      154.777       70.567    21868.866    23956.041     4979.742       12.220        2.540      439.719       80.611        0.034      337.634        9.738      859.547
10/20/2014  23:41:00     -322.945     -196.506       -2.434      194.959      153.068       97.137    38008.950    23429.819     9435.553       10.688        3.544      378.032      108.521        0.082      337.699        9.847      859.524
10/20/2014  23:42:00     -413.672     -256.823      -19.224      208.032      166.571       96.637    43277.274    27745.922     9338.735       15.889        4.018      486.912      107.438        0.049      337.764        9.954      859.531
10/20/2014  23:43:00     -403.619     -307.255      -11.318      188.617      167.395      108.389    35576.350    28021.149    11748.084       16.638        3.767      507.261      112.663        0.049      337.779        9.981      859.554
10/20/2014  23:44:00     -519.942     -274.864      -14.089      176.132      155.140       75.431    31022.579    24068.354     5689.883       20.342        3.039      588.124       79.426        0.018      337.725        9.891      859.547
10/20/2014  23:45:00     -362.013     -269.202      -14.558      183.608      154.746       82.084    33711.864    23946.328     6737.800       13.405        3.220      451.135       86.218        0.037      337.707        9.860      859.552
10/20/2014  23:46:00     -332.533     -246.877      -26.379      134.717      118.183       74.591    18148.570    13967.251     5563.858       10.494        1.884      414.158       70.911        0.029      337.739        9.912      859.550
10/20/2014  23:47:00     -280.616     -197.739       -3.732      179.707      144.813       68.966    32294.525    20970.710     4756.350        8.793        2.901      343.287       84.191        0.060      337.761        9.952      859.535
10/20/2014  23:48:00     -420.856     -292.194      -12.823      243.391      166.614      101.421    59239.330    27760.195    10286.178       17.996        4.864      512.345      105.888        0.043      337.767        9.959      859.514
10/20/2014  23:49:00     -486.568     -193.348      -17.629      170.810      151.485       87.106    29176.220    22947.739     7587.493       16.707        2.986      523.576       74.741        0.020      337.718        9.877      859.497
10/20/2014  23:50:00     -315.924     -164.511       -4.098      164.959      185.969       87.439    27211.590    34584.560     7645.536        9.815        3.472      356.191       88.014        0.061      337.714        9.871      859.531
10/20/2014  23:51:00     -317.320     -175.040       -8.009      186.330      169.293       79.027    34718.893    28659.965     6245.248       10.050        3.481      362.396       85.713        0.056      337.749        9.930      859.512
10/20/2014  23:52:00     -277.993     -144.985       20.456      216.438      131.511       94.683    46845.475    17295.232     8964.919        8.590        3.655      313.530       98.934        0.100      337.742        9.919      859.513
10/20/2014  23:53:00     -293.864     -231.402       19.119      220.699      144.376       80.095    48708.064    20844.566     6415.258       10.811        3.798      374.036       99.251        0.070      337.806       10.026      859.512
10/20/2014  23:54:00     -233.617     -141.879       10.804      153.910      110.208       79.066    23688.197    12145.787     6251.384        5.845        2.104      273.326       84.981        0.097      337.788        9.997      859.523
10/20/2014  23:55:00     -212.290     -112.648       11.534      172.970      131.939       80.165    29918.782    17407.804     6426.347        5.581        2.688      240.326       85.352        0.126      337.732        9.902      859.560
10/20/2014  23:56:00     -274.243     -195.075       -9.126      124.394      112.838       67.424    15473.841    12732.518     4546.015        7.304        1.638      336.546       63.298        0.035      337.689        9.828      859.601
10/20/2014  23:57:00     -190.854      -71.278       16.629      170.727      103.170       69.605    29147.825    10644.130     4844.791        4.320        2.232      203.729       83.856        0.169      337.656        9.775      859.636
10/20/2014  23:58:00     -290.456      -60.106        5.916      150.259       95.837       71.811    22577.667     9184.752     5156.786        6.246        1.846      296.609       84.400        0.081      337.674        9.804      859.670
10/20/2014  23:59:00     -245.902      -84.884       -7.925      118.338       97.405       50.773    14003.927     9487.781     2577.923        4.690        1.303      260.141       60.002        0.053      337.651        9.765      859.731
